GEFSSGP_con_prob3kmehi_000.txt.gz
EHI
0 0 0 0 0 0 0 0 0 1 2 3 2 1 0 0 1 0 0 0 0 0 1 3 5 6 7 7 6 8 13 16 14 12 16 16 9 4 3 3 3 3 3 3 3 3 3 3 3
0 0 0 0 0 0 0 0 0 1 2 2 2 2 1 1 1 0 0 0 0 0 1 4 6 6 5 5 5 7 14 20 17 11 10 9 6 3 3 3 3 3 3 3 3 3 3 3 3
0 0 0 0 0 0 0 0 1 2 2 1 1 2 3 2 1 0 0 0 0 2 3 5 7 7 5 3 3 5 12 18 16 10 6 4 3 3 3 3 3 3 3 3 3 3 3 3 3
0 0 0 0 0 0 0 0 1 1 1 0 1 2 3 2 1 0 1 1 3 6 8 10 11 9 5 5 6 6 7 9 9 8 6 5 4 4 3 3 3 3 3 3 3 3 3 3 3
0 0 0 0 0 0 0 0 0 0 0 0 1 1 2 2 1 1 2 3 6 12 15 14 14 12 11 18 24 18 8 4 4 7 7 5 4 4 4 3 3 3 3 3 4 4 3 3 3
0 0 0 0 0 0 0 0 0 0 0 1 2 2 3 2 2 2 3 4 7 13 17 14 12 14 23 42 54 43 23 12 8 7 6 5 4 4 3 3 3 4 6 8 9 8 5 3 3
0 0 0 0 0 0 0 0 0 0 0 1 3 3 4 4 4 4 4 5 10 13 14 12 10 12 26 55 74 69 53 37 22 11 7 5 5 6 5 5 4 5 7 11 12 9 4 2 2
0 0 0 0 0 0 0 0 0 1 2 3 3 5 13 21 24 23 21 17 16 15 12 8 7 8 16 38 60 66 64 53 33 15 7 5 6 7 6 6 5 4 4 5 6 5 2 1 1
0 0 0 0 0 0 0 0 1 2 4 4 9 23 43 58 63 62 54 35 21 15 9 4 4 4 6 13 25 33 38 35 22 10 4 3 3 3 4 6 5 3 0 0 0 0 0 0 0
0 0 0 0 0 0 0 0 1 3 5 6 22 55 80 89 91 84 66 39 19 10 5 3 3 3 3 3 5 7 9 9 6 2 1 1 0 0 1 3 4 2 0 0 0 0 0 0 0
0 0 0 0 0 0 0 0 1 2 3 11 40 79 98 98 94 82 56 29 12 6 4 3 3 3 3 3 2 1 1 1 1 0 0 0 0 0 0 1 2 1 0 0 0 0 0 0 0
0 0 0 0 0 0 0 0 0 1 1 18 56 89 98 96 92 79 53 22 7 4 3 3 3 3 3 3 1 0 0 0 0 0 0 0 0 0 0 0 0 0 0 0 0 0 0 0 0
0 0 0 0 0 0 0 0 0 0 2 21 58 86 94 95 93 81 52 21 7 4 3 3 3 3 3 2 1 0 0 0 0 0 0 0 0 0 0 0 0 0 0 0 0 0 0 0 0
0 0 0 0 0 0 0 0 0 0 4 19 42 60 72 83 91 82 50 26 21 16 9 4 3 3 3 1 0 0 0 0 0 0 0 0 0 0 0 0 0 0 0 0 0 0 0 0 0
0 0 0 0 0 0 0 0 0 1 5 13 21 26 34 49 71 78 57 38 38 32 16 6 3 3 2 1 0 0 0 0 0 0 0 0 0 0 0 0 0 0 0 0 0 0 0 0 0
0 0 0 0 0 0 0 0 0 1 4 7 8 7 8 15 35 56 53 42 40 32 16 6 3 3 2 1 0 0 0 0 0 0 0 0 0 0 0 0 0 0 0 0 0 0 0 0 0
0 0 0 0 0 0 0 0 0 0 1 3 3 3 3 2 8 20 27 29 27 19 10 4 1 1 1 1 0 0 0 0 0 0 0 0 0 0 0 0 0 0 0 0 0 0 0 0 0
0 0 0 0 0 0 0 0 0 0 0 1 1 1 1 1 0 1 6 13 13 8 4 2 1 0 0 0 0 0 0 0 0 0 0 0 0 0 0 0 0 0 0 0 0 0 0 0 0
0 0 0 0 0 0 0 0 0 0 0 0 0 0 0 0 0 0 1 2 2 1 1 1 0 0 0 0 0 0 0 0 0 0 0 0 0 0 0 0 0 0 0 0 0 0 0 0 0
0 0 0 0 0 0 0 0 0 0 0 0 0 0 0 0 0 0 0 0 0 0 0 0 0 0 0 0 0 0 0 0 0 0 0 0 0 0 0 0 0 0 0 0 0 0 0 0 0
0 0 0 0 0 0 0 0 0 0 0 0 0 0 0 0 0 0 0 0 0 0 0 0 0 0 0 0 0 0 0 0 0 0 0 0 0 0 0 0 0 0 0 0 0 0 0 0 0
0 0 0 0 0 0 0 0 0 0 0 0 0 0 0 0 0 0 0 0 0 0 0 0 0 0 0 0 0 0 0 0 0 0 0 0 0 0 0 0 0 0 0 0 0 0 0 0 0
0 0 0 0 0 0 0 0 0 0 0 0 0 0 0 0 0 0 0 0 0 0 0 0 0 0 0 0 0 0 0 0 0 0 0 0 0 0 0 0 0 0 0 0 0 0 0 0 0
0 0 0 0 0 0 0 0 0 0 0 0 0 0 0 0 0 0 0 0 0 0 0 0 0 0 0 0 0 0 0 0 0 0 0 0 0 0 0 0 0 0 0 0 0 0 0 0 0
0 0 0 0 0 0 0 0 0 0 0 0 0 0 0 0 0 0 0 0 0 0 0 0 0 0 0 0 0 0 0 0 0 0 0 0 0 0 0 0 0 0 0 0 0 0 0 0 0
0 0 0 0 0 0 0 0 0 0 0 0 0 0 0 0 0 0 0 0 0 0 0 0 0 0 0 0 0 0 0 0 0 0 0 0 0 0 0 0 0 0 0 0 0 0 0 0 0
0 0 0 0 0 0 0 0 0 0 0 0 0 0 0 0 0 0 0 0 0 0 0 0 0 0 0 0 0 0 0 0 0 0 0 0 0 0 0 0 0 0 0 0 0 0 0 0 0
0 0 0 0 0 0 0 0 0 0 0 0 0 0 0 0 0 0 0 0 0 0 0 0 0 0 0 0 0 0 0 0 0 0 0 0 0 0 0 0 0 0 0 0 0 0 0 0 0
0 0 0 0 0 0 0 0 0 0 0 0 0 0 0 0 0 0 0 0 0 0 0 0 0 0 0 0 0 0 0 0 0 0 0 0 0 0 0 0 0 0 0 0 0 0 0 0 0
0 0 0 0 0 0 0 0 0 0 0 0 0 0 0 0 0 0 0 0 0 0 0 0 0 0 0 0 0 0 0 0 0 0 0 0 0 0 0 0 0 0 0 0 0 0 0 0 0

GEFSSGP_con_prob3kmehi_006.txt.gz
EHI
0 0 0 0 0 0 0 0 0 0 0 0 0 0 0 0 0 0 0 11 23 16 3 0 0 0 0 0 0 1 2 2 9 21 24 16 9 4 1 0 0 0 0 0 0 0 0 0 0
0 0 0 0 0 0 0 0 0 0 0 0 0 0 0 0 0 0 1 10 19 13 3 0 0 0 0 0 0 1 2 2 5 9 10 7 4 2 0 0 0 0 0 0 0 0 0 0 0
0 0 0 0 0 0 0 0 0 0 0 0 0 0 0 0 0 0 1 6 11 9 3 0 0 0 0 0 0 0 2 3 2 1 0 1 1 1 0 0 0 0 1 1 0 0 0 0 0
0 0 0 0 0 0 0 0 0 0 0 0 0 0 0 0 0 0 1 3 5 5 4 3 2 2 2 2 1 1 3 4 3 2 2 2 2 1 0 0 1 2 3 3 1 0 0 0 0
0 0 0 0 0 0 0 0 0 0 0 0 0 0 0 0 0 0 1 3 3 5 8 13 17 17 13 8 3 2 3 4 3 3 3 2 1 0 0 1 3 6 8 6 3 1 0 0 0
0 0 0 0 0 0 0 0 0 0 0 0 0 0 0 0 1 2 3 4 4 5 11 20 33 41 37 22 9 5 5 4 3 3 2 1 0 0 0 1 3 7 9 6 3 1 0 0 0
0 0 0 0 0 0 0 0 0 0 0 0 0 0 1 2 5 11 16 15 11 7 11 23 36 46 42 26 13 13 20 22 16 8 2 0 0 0 0 0 1 3 4 2 1 0 0 0 0
0 0 0 0 0 0 0 0 0 0 0 0 0 0 3 8 14 28 40 37 26 15 15 26 30 25 18 12 9 16 29 34 26 14 5 1 0 0 0 0 0 0 0 0 0 0 0 0 0
0 0 0 0 0 0 0 0 0 0 0 0 0 0 6 12 20 37 53 52 39 24 19 22 16 6 1 0 2 8 15 18 15 10 5 1 0 0 0 0 0 0 0 0 0 0 0 0 0
0 0 0 0 0 0 0 0 0 0 0 0 0 2 6 10 14 26 44 51 40 22 12 8 4 1 0 0 0 0 0 0 0 1 2 1 0 0 0 0 0 0 0 0 0 0 0 0 0
0 0 0 0 0 0 0 0 0 0 0 0 0 2 4 4 5 12 31 42 29 11 3 1 0 0 0 0 0 0 0 0 0 0 0 0 0 0 0 0 0 0 0 0 0 0 0 0 0
0 0 0 0 0 0 0 0 0 0 0 0 0 1 3 2 2 8 24 30 17 3 0 0 0 0 0 0 0 0 0 0 0 0 0 0 0 0 0 0 0 0 0 0 0 0 0 0 0
0 0 0 0 0 0 0 0 0 0 0 0 0 1 2 2 2 6 15 17 8 1 0 0 0 0 0 0 0 0 0 0 0 0 0 0 0 0 0 0 0 0 0 0 0 0 0 0 0
0 0 0 0 0 0 0 0 0 0 0 0 0 1 3 3 2 3 5 6 3 1 0 0 0 0 0 0 0 0 0 0 0 0 0 0 0 0 0 0 0 0 0 0 0 0 0 0 0
0 0 0 0 0 0 0 0 0 0 0 0 0 1 3 4 3 1 1 2 3 3 3 2 1 1 2 2 1 0 0 0 0 0 0 0 0 0 0 0 0 0 0 0 0 0 0 0 0
0 0 0 0 0 0 0 0 0 0 0 0 0 0 2 3 2 1 3 9 14 16 17 18 16 12 9 5 2 0 0 0 0 0 0 0 0 0 0 0 0 0 0 0 0 0 0 0 0
0 0 0 0 0 0 0 0 0 0 0 0 0 0 0 1 1 1 6 20 36 44 47 52 50 35 18 6 2 0 0 0 0 0 0 0 0 0 0 0 0 0 0 0 1 2 2 1 0
0 0 0 0 0 0 0 0 0 0 0 0 0 0 0 0 0 1 8 27 55 73 80 81 73 51 23 6 1 0 0 0 0 0 0 0 0 0 0 0 0 0 0 0 2 4 4 2 0
0 0 0 0 0 0 0 0 0 0 0 0 0 0 0 0 0 1 7 27 57 81 88 83 69 47 23 6 1 0 0 0 0 0 0 0 0 0 0 0 0 0 1 1 1 2 2 1 0
0 0 0 0 0 0 0 0 0 0 0 0 0 0 0 0 0 1 4 18 45 67 74 70 59 40 20 6 1 0 0 0 0 0 0 0 0 0 0 0 0 1 2 1 0 0 0 0 0
0 0 0 0 0 0 0 0 0 0 0 0 0 0 0 0 0 0 1 9 28 46 56 62 60 43 22 6 1 0 0 0 0 0 0 0 0 0 0 0 0 0 1 0 0 0 0 0 0
0 0 0 0 0 0 0 0 0 0 0 0 0 0 0 0 0 0 1 4 13 23 36 50 54 44 25 9 2 1 0 0 0 0 0 0 0 0 0 0 0 0 0 0 0 0 0 0 0
0 0 0 0 0 0 0 0 0 0 0 0 0 0 0 0 0 0 0 1 3 7 15 25 31 29 19 9 3 2 0 0 0 0 0 0 0 0 0 0 0 0 0 0 0 0 0 0 0
0 0 0 0 0 0 0 0 0 0 0 0 0 0 0 0 0 0 0 0 0 1 2 5 8 9 7 4 2 1 0 0 0 0 0 0 0 0 0 0 0 0 0 0 0 0 0 0 0
0 0 0 0 0 0 0 0 0 0 0 0 0 0 0 0 0 0 0 0 0 0 0 0 1 1 1 0 0 0 0 0 0 0 0 0 0 0 0 0 0 0 0 0 0 0 0 0 0
0 0 0 0 0 0 0 0 0 0 0 0 0 0 0 0 0 0 0 0 0 0 0 0 0 0 0 0 0 0 0 0 0 0 0 0 0 0 0 0 0 0 0 0 0 0 0 0 0
0 0 0 0 0 0 0 0 0 0 0 0 0 0 0 0 0 0 0 0 0 0 0 0 0 0 0 0 0 0 0 0 0 0 0 0 0 0 0 0 0 0 0 0 0 0 0 0 0
0 0 0 0 0 0 0 0 0 0 0 0 0 0 0 0 0 0 0 0 0 0 0 0 0 0 0 0 0 0 0 0 0 0 0 0 0 0 0 0 0 0 0 0 0 0 0 0 0
0 0 0 0 0 0 0 0 0 0 0 0 0 0 0 0 0 0 0 0 0 0 0 0 0 0 0 0 0 0 0 0 0 0 0 0 0 0 0 0 0 0 0 0 0 0 0 0 0
0 0 0 0 0 0 0 0 0 0 0 0 0 0 0 0 0 0 0 0 0 0 0 0 0 0 0 0 0 0 0 0 0 0 0 0 0 0 0 0 0 0 0 0 0 0 0 0 0

GEFSSGP_con_prob3kmehi_012.txt.gz
EHI
0 0 0 0 0 0 0 0 0 0 0 0 0 2 5 7 7 5 9 38 68 59 31 13 4 1 1 1 1 1 0 0 1 2 2 1 1 0 0 0 0 0 0 0 0 0 0 0 0
0 0 0 0 0 0 0 0 0 0 0 0 0 2 4 4 3 4 14 45 67 55 29 11 2 1 2 2 2 2 1 0 0 1 1 2 2 1 0 0 0 1 1 1 1 1 0 0 0
0 0 0 0 0 0 0 0 0 0 0 0 0 1 2 1 0 4 17 44 64 55 27 8 2 2 2 2 2 3 2 2 1 0 1 2 2 1 0 0 1 3 3 2 2 1 0 0 0
0 0 0 0 0 0 0 0 0 0 0 0 0 0 0 0 1 4 11 29 51 46 20 4 2 2 1 1 1 4 6 6 3 1 0 1 2 2 1 1 3 5 4 2 2 2 2 1 0
0 0 0 0 0 0 0 0 0 0 0 0 0 0 0 0 1 3 4 16 37 39 18 3 1 1 0 1 3 7 14 14 8 2 0 1 2 3 5 5 6 7 7 5 3 3 4 2 1
0 0 0 0 0 0 0 0 0 0 0 0 0 0 0 0 1 1 2 16 43 50 27 6 2 1 1 2 6 10 16 18 11 4 1 0 1 4 8 11 10 10 10 6 3 2 2 1 0
0 0 0 0 0 0 0 0 0 0 0 0 0 1 1 0 0 0 4 24 56 64 40 16 5 2 1 3 5 6 9 10 8 3 1 0 1 4 8 11 10 8 6 4 1 0 0 0 0
0 0 0 0 0 0 0 0 0 0 0 0 1 3 4 2 0 3 12 34 61 68 49 26 10 3 1 1 1 1 1 2 2 1 0 0 1 3 4 4 4 2 1 1 0 0 0 0 0
0 0 0 0 0 0 0 0 0 0 0 0 4 9 11 5 3 12 27 44 60 63 46 30 18 8 1 0 0 0 0 0 0 0 0 0 0 1 1 0 0 0 0 0 0 0 0 0 0
0 0 0 0 0 0 0 0 0 0 0 1 9 17 14 7 7 21 38 47 52 46 30 21 19 10 1 0 0 0 0 0 0 0 0 0 0 0 1 0 0 0 0 0 0 0 0 0 0
0 0 0 0 0 0 0 0 0 0 0 2 10 17 13 6 8 21 35 38 35 25 12 8 11 10 5 1 0 0 0 0 0 1 0 0 0 1 2 1 0 0 0 0 0 0 0 0 0
0 0 0 0 0 0 0 0 0 0 0 1 6 10 8 3 4 14 23 23 18 12 8 13 21 26 22 13 5 0 0 0 1 1 0 0 0 0 1 0 0 0 0 0 0 0 0 0 0
0 0 0 0 0 0 0 0 0 0 0 0 2 3 2 1 3 10 16 14 10 14 26 40 53 52 42 29 13 2 0 1 2 1 0 0 0 0 0 0 0 0 0 0 0 0 0 0 0
0 0 0 0 0 0 0 0 0 0 0 0 0 0 0 1 4 10 15 14 16 33 58 71 73 62 44 29 15 4 1 1 1 0 0 0 0 0 0 0 0 0 0 0 0 0 0 0 0
0 0 0 0 0 0 0 0 0 0 0 0 0 0 0 1 2 7 17 26 37 59 79 78 69 62 51 34 19 8 5 4 3 1 0 0 0 0 0 0 0 0 0 0 0 0 0 0 1
0 0 0 0 0 0 0 0 0 0 0 0 0 0 0 1 2 8 25 43 54 64 70 61 58 69 71 56 37 22 16 14 10 5 3 1 0 0 0 3 4 2 1 2 1 3 7 9 10
0 0 0 0 0 0 0 0 0 0 0 0 0 0 2 6 13 22 37 50 50 47 43 42 56 73 79 73 61 46 33 25 20 17 14 7 3 2 2 8 14 14 15 18 14 14 20 23 23
0 0 0 0 0 0 0 0 0 0 0 0 1 2 6 13 25 38 49 52 44 33 29 39 61 76 79 78 75 66 48 34 30 34 31 21 15 14 14 18 26 32 39 40 30 22 23 24 24
0 0 0 0 0 0 0 0 0 0 0 0 2 5 7 13 26 46 61 62 52 41 40 53 70 80 83 82 81 78 63 46 43 49 46 37 29 26 26 27 31 37 45 43 31 22 17 14 14
0 0 0 0 0 0 0 0 0 0 0 0 2 5 7 13 30 55 71 69 61 57 60 69 77 79 80 82 82 82 74 58 53 55 50 38 28 21 21 24 22 23 26 25 22 17 11 6 5
0 0 0 0 0 0 0 0 0 0 0 0 2 7 14 25 43 60 62 53 46 48 57 64 68 68 68 71 72 73 70 60 50 43 33 22 13 8 8 9 9 8 8 9 10 9 5 2 1
0 0 0 0 0 0 0 0 0 0 0 0 4 12 24 35 44 44 35 24 19 22 30 40 45 45 45 46 47 47 45 40 30 20 11 7 4 3 2 1 1 1 1 1 2 2 1 0 0
0 0 0 0 0 0 0 0 0 1 1 1 4 13 22 27 26 19 11 6 4 5 10 17 20 20 19 19 19 19 16 12 8 4 2 1 1 1 0 0 0 1 0 0 0 0 0 0 0
0 0 0 0 0 0 0 0 0 1 2 1 3 7 10 11 9 5 2 1 1 1 2 3 5 5 4 3 3 3 1 0 0 0 0 0 0 0 1 0 0 0 0 0 0 0 0 0 0
0 0 0 0 0 0 0 1 2 4 4 2 1 2 2 2 1 0 0 0 0 0 0 0 0 1 0 0 0 0 0 0 0 0 0 0 0 0 0 0 0 0 0 0 0 0 0 0 0
0 0 0 0 0 0 0 1 4 8 9 4 1 0 0 0 0 0 0 0 0 0 0 0 0 0 0 0 0 0 0 0 0 0 0 0 0 0 0 0 0 0 0 0 0 0 0 0 0
0 0 0 0 0 0 0 1 4 9 10 5 1 0 0 0 0 0 0 0 0 0 0 0 0 0 0 0 0 0 0 0 0 0 0 0 0 0 0 0 0 0 0 0 0 0 0 0 0
0 0 0 0 0 0 0 1 3 6 8 4 0 0 0 0 0 0 0 0 0 0 0 0 0 0 0 0 0 0 0 0 0 0 0 0 0 0 0 0 0 0 0 0 0 0 0 0 0
0 0 0 0 0 0 0 0 1 4 5 2 0 0 0 0 0 0 0 0 0 0 0 0 0 0 0 0 0 0 0 0 0 0 0 0 0 0 0 0 0 0 0 0 0 0 0 0 0
0 0 0 0 0 0 0 0 0 1 3 1 0 0 0 0 0 0 0 0 0 0 0 0 0 0 0 0 0 0 0 0 0 0 0 0 0 0 0 0 0 0 0 0 0 0 0 0 0

GEFSSGP_con_prob3kmehi_018.txt.gz
EHI
0 0 0 0 0 0 0 0 0 0 0 1 3 7 8 4 1 1 1 3 8 6 2 3 9 13 11 11 10 7 6 6 4 2 1 0 0 0 0 0 0 0 0 0 0 0 0 0 0
0 0 0 0 0 0 0 0 0 0 0 1 2 4 6 4 3 3 1 1 3 3 1 1 5 8 9 9 9 6 4 3 3 1 0 0 0 0 0 0 0 0 0 0 0 0 0 0 0
0 0 0 0 0 0 0 0 0 0 0 1 1 1 2 3 5 5 2 0 0 0 0 0 1 4 9 14 14 12 9 6 2 0 0 0 0 0 0 0 0 0 0 0 0 0 0 0 0
0 0 0 0 0 0 0 0 0 0 0 0 0 0 1 9 20 19 8 1 0 0 0 0 2 8 21 29 31 29 26 20 11 3 0 0 0 0 0 0 0 0 0 0 0 0 0 0 0
0 0 0 0 0 0 0 0 0 0 0 0 0 0 3 22 42 35 13 2 0 0 0 1 7 21 37 47 48 45 43 38 26 11 3 1 0 0 0 0 0 0 0 0 0 0 0 0 0
0 0 0 0 0 0 0 0 0 0 0 0 0 0 7 30 48 36 12 2 0 0 1 3 13 31 45 50 49 43 39 36 28 16 6 2 0 0 0 0 0 0 0 0 0 0 0 0 0
0 0 0 0 0 0 0 0 0 0 0 0 0 0 9 28 39 31 16 8 4 3 4 5 13 27 35 36 32 26 20 18 15 11 6 2 0 0 0 0 0 0 0 0 0 0 0 0 0
0 0 0 0 0 0 0 0 0 0 0 0 0 1 10 27 40 42 35 22 10 5 5 5 7 12 14 14 12 9 7 6 6 7 6 2 0 0 0 0 0 0 0 0 0 0 0 0 0
0 0 0 0 0 0 0 0 1 3 4 3 3 6 18 38 55 63 56 35 15 6 4 2 2 2 2 1 1 2 2 3 4 5 5 3 0 0 0 0 0 0 0 0 0 0 0 0 0
0 0 0 0 0 0 0 1 3 6 9 8 8 16 31 50 67 73 62 40 20 11 6 2 0 0 0 0 0 0 0 1 1 2 2 1 0 0 0 0 0 0 0 0 0 0 0 0 0
0 0 0 0 0 0 0 1 3 7 9 9 12 22 36 52 64 64 55 39 25 15 9 3 0 0 0 0 0 0 0 0 0 0 0 0 0 0 0 0 0 0 0 0 0 0 0 0 0
0 0 0 0 0 0 0 1 2 4 5 7 12 22 33 44 50 49 44 35 24 15 9 3 0 0 0 0 0 0 0 0 0 0 0 0 0 0 0 0 0 0 0 0 0 0 0 0 0
0 0 0 0 0 0 0 0 1 2 3 6 12 19 27 34 40 40 37 29 19 10 5 2 0 0 0 0 0 0 0 0 0 0 0 0 0 0 0 0 0 0 0 0 0 0 0 0 0
0 0 0 0 0 0 0 0 0 1 3 7 12 16 19 27 36 39 34 24 13 6 2 0 0 0 0 0 0 0 0 0 0 0 0 0 0 0 0 0 0 0 0 0 0 0 0 0 0
0 0 0 0 0 0 0 0 0 1 4 9 13 16 17 24 33 35 29 20 10 3 1 0 0 0 0 0 0 0 0 0 0 0 0 0 0 0 0 0 0 0 0 0 0 0 0 0 0
0 0 0 0 0 0 0 0 0 3 8 14 19 23 23 24 26 25 21 16 9 3 1 0 0 0 0 0 0 0 0 0 0 0 0 0 0 0 0 0 0 0 0 0 0 0 0 0 0
0 0 0 0 0 0 0 0 1 6 16 25 32 34 31 25 20 16 14 12 7 3 1 0 0 0 0 0 0 0 0 0 0 0 0 0 0 0 0 0 0 0 0 0 0 0 0 0 0
0 0 0 0 0 0 0 0 2 10 24 38 48 50 43 30 19 12 8 6 4 2 1 0 0 0 0 0 0 0 0 0 0 0 0 0 0 0 0 0 0 0 0 0 0 0 0 0 0
0 0 0 0 0 0 0 0 2 10 24 42 58 65 57 41 25 12 5 2 1 1 0 0 0 0 0 0 0 0 0 0 0 0 0 0 0 0 0 0 0 0 0 0 0 0 0 0 0
0 0 0 0 0 0 0 0 1 6 18 37 57 69 68 54 34 17 5 1 0 0 0 0 0 0 0 0 0 0 0 0 0 0 0 0 0 0 0 0 0 0 0 0 0 0 0 0 0
0 0 0 0 0 0 0 0 0 4 16 34 51 64 67 57 38 20 6 0 0 0 0 0 0 0 0 0 0 0 0 0 0 0 0 0 0 0 0 0 0 0 0 0 0 0 0 0 0
0 0 0 0 0 0 0 0 0 7 21 35 44 51 52 43 29 15 5 0 0 0 0 0 0 0 0 0 0 0 0 0 0 0 0 0 0 0 0 0 0 0 0 0 0 0 0 0 0
0 0 0 0 0 0 0 0 1 10 25 35 36 34 29 20 13 6 2 0 0 0 0 0 0 0 0 0 0 0 0 0 0 0 0 0 0 0 0 0 0 0 0 0 0 0 0 0 0
0 0 0 0 0 0 0 0 1 9 24 34 30 20 11 5 2 1 0 0 0 0 0 0 0 0 0 0 0 0 0 0 0 0 0 0 0 0 0 0 0 0 0 0 0 0 0 0 0
0 0 0 0 0 0 0 0 0 6 20 28 22 10 3 0 0 0 0 0 0 0 0 0 0 0 0 0 0 0 0 0 0 0 0 0 0 0 0 0 0 0 0 0 0 0 0 0 0
0 0 0 0 0 0 0 0 0 5 14 17 11 4 0 0 0 0 0 0 0 0 0 0 0 0 0 0 0 0 0 0 0 0 0 0 0 0 0 0 0 0 0 0 0 0 0 0 0
0 0 0 0 0 0 0 0 0 3 7 7 3 1 0 0 0 0 0 0 0 0 0 0 0 0 0 0 0 0 0 0 0 0 0 0 0 0 0 0 0 0 0 0 0 0 0 0 0
0 0 0 0 0 0 0 0 0 2 4 4 2 0 0 0 0 0 0 0 0 0 0 0 0 0 0 0 0 0 0 0 0 0 0 0 0 0 0 0 0 0 0 0 0 0 0 0 0
0 0 0 0 0 0 0 0 0 2 3 3 1 0 0 0 0 0 0 0 0 0 0 0 0 0 0 0 0 0 0 0 0 0 0 0 0 0 0 0 0 0 0 0 0 0 0 0 0
0 0 0 0 0 0 0 0 0 1 1 1 0 0 0 0 0 0 0 0 0 0 0 0 0 0 0 0 0 0 0 0 0 0 0 0 0 0 0 0 0 0 0 0 0 0 0 0 0

GEFSSGP_con_prob3kmehi_024.txt.gz
EHI
0 0 0 0 0 0 0 0 0 0 0 0 0 0 0 0 0 0 1 0 0 0 1 1 2 15 39 54 48 31 16 6 1 0 2 4 4 2 1 0 0 0 0 0 0 0 0 0 0
0 0 0 0 0 0 0 0 0 0 0 0 0 0 0 0 0 0 1 1 2 2 1 1 4 15 33 43 39 26 12 4 1 0 1 2 2 1 0 0 0 0 0 0 0 0 0 0 0
0 0 0 0 0 0 0 0 0 0 0 0 0 0 0 0 0 1 3 5 5 4 1 1 4 14 28 35 31 22 10 3 1 0 0 0 0 0 0 0 0 0 0 0 0 0 0 0 0
0 0 0 0 0 0 0 0 0 0 0 0 0 0 0 0 1 4 9 10 8 4 1 0 3 17 34 41 36 26 14 5 1 0 0 0 0 0 0 0 0 0 0 0 0 0 1 1 0
0 0 0 0 0 0 0 0 0 0 0 1 2 1 0 0 3 8 11 10 6 2 0 0 4 22 45 53 48 39 25 13 7 4 2 1 0 0 0 0 0 0 0 0 0 1 2 1 1
0 0 0 0 0 0 0 0 0 0 0 3 6 5 2 1 4 9 10 7 4 1 0 1 5 22 46 58 56 49 38 25 16 10 5 1 0 0 0 0 0 0 0 0 0 1 1 1 0
0 0 0 0 0 0 0 0 0 0 0 3 8 8 4 2 6 11 10 6 2 1 1 1 3 14 33 46 49 47 40 30 21 13 6 2 1 1 1 1 1 1 1 1 1 1 0 0 0
0 0 0 0 0 0 0 0 0 0 0 2 5 6 6 10 16 20 16 9 3 1 1 2 2 6 14 22 30 32 29 23 17 10 5 2 2 2 2 2 2 2 2 1 1 0 0 0 0
0 0 0 0 0 0 0 0 0 0 0 2 6 14 24 32 34 31 24 14 7 2 2 2 2 2 2 5 10 14 13 11 8 5 3 2 1 1 1 2 2 1 1 1 0 0 0 0 0
0 0 0 0 0 0 0 0 0 0 1 7 19 38 56 56 42 30 23 16 9 4 3 2 1 0 0 0 1 3 3 3 2 1 1 1 0 0 0 1 1 0 0 0 0 0 0 0 0
0 0 0 0 0 0 0 0 0 0 2 13 38 66 77 65 42 25 17 12 7 4 2 1 0 0 0 0 0 0 0 0 0 0 0 0 0 0 0 0 0 0 0 0 0 0 0 0 0
0 0 0 0 0 0 0 0 0 0 4 21 53 80 82 66 43 25 14 8 4 1 1 0 0 0 0 0 0 0 0 0 0 0 0 0 0 0 0 0 0 0 0 0 0 0 0 0 0
0 0 0 0 0 0 0 0 0 1 10 33 65 85 84 68 46 26 15 7 2 0 0 0 0 0 0 0 0 0 0 0 0 0 0 0 0 0 0 0 0 0 0 0 0 0 0 0 0
0 0 0 0 0 0 0 0 0 4 19 46 72 84 82 68 46 27 16 7 2 0 0 0 0 0 0 0 0 0 0 0 0 0 0 0 0 0 0 0 0 0 0 0 0 0 0 0 0
0 0 0 0 0 0 0 0 0 5 23 49 71 79 77 64 44 29 18 8 2 0 0 0 0 0 0 0 0 0 0 0 0 0 0 0 0 0 0 0 0 0 0 0 0 0 0 0 0
0 0 0 0 0 0 0 0 0 4 20 42 62 72 71 57 40 27 18 8 2 0 0 0 0 0 0 0 0 0 0 0 0 0 0 0 0 0 0 0 0 0 0 0 0 0 0 0 0
0 0 0 0 0 0 0 0 0 3 14 34 52 63 63 52 36 23 15 8 3 0 0 0 0 0 0 0 0 0 0 0 0 0 0 0 0 0 0 0 0 0 0 0 0 0 0 0 0
0 0 0 0 0 0 0 0 0 3 11 27 42 51 53 45 29 16 10 5 2 0 0 0 0 0 0 0 0 0 0 0 0 0 0 0 0 0 0 0 0 0 0 0 0 0 0 0 0
0 0 0 0 0 0 0 0 0 3 9 19 30 39 41 32 19 10 5 2 0 0 0 0 0 0 0 0 0 0 0 0 0 0 0 0 0 0 0 0 0 0 0 0 0 0 0 0 0
0 0 0 0 0 0 0 0 0 1 5 11 18 25 26 19 11 6 2 0 0 0 0 0 0 0 0 0 0 0 0 0 0 0 0 0 0 0 0 0 0 0 0 0 0 0 0 0 0
0 0 0 0 0 0 0 0 0 0 2 5 10 15 14 10 7 4 1 0 0 0 0 0 0 0 0 0 0 0 0 0 0 0 0 0 0 0 0 0 0 0 0 0 0 0 0 0 0
0 0 0 0 0 0 0 0 0 0 1 3 6 10 11 9 7 5 1 0 0 0 0 0 0 0 0 0 0 0 0 0 0 0 0 0 0 0 0 0 0 0 0 0 0 0 0 0 0
0 0 0 0 0 0 0 0 0 0 1 4 10 18 21 17 11 5 2 0 0 0 0 0 0 0 0 0 0 0 0 0 0 0 0 0 0 0 0 0 0 0 0 0 0 0 0 0 0
0 0 0 0 0 0 0 0 0 0 2 11 23 34 36 26 13 5 1 0 0 0 0 0 0 0 0 0 0 0 0 0 0 0 0 0 0 0 0 0 0 0 0 0 0 0 0 0 0
0 0 0 0 0 0 0 0 0 0 3 13 31 45 44 29 13 4 0 0 0 0 0 0 0 0 0 0 0 0 0 0 0 0 0 0 0 0 0 0 0 0 0 0 0 0 0 0 0
0 0 0 0 0 0 0 0 0 0 2 11 29 44 40 26 11 3 0 0 0 0 0 0 0 0 0 0 0 0 0 0 0 0 0 0 0 0 0 0 0 0 0 0 0 0 0 0 0
0 0 0 0 0 0 0 0 0 0 1 8 24 36 32 19 9 2 0 0 0 0 0 0 0 0 0 0 0 0 0 0 0 0 0 0 0 0 0 0 0 0 0 0 0 0 0 0 0
0 0 0 0 0 0 0 0 0 0 1 7 20 29 24 12 4 1 0 0 0 0 0 0 0 0 0 0 0 0 0 0 0 0 0 0 0 0 0 0 0 0 0 0 0 0 0 0 0
0 0 0 0 0 0 0 0 0 0 1 5 13 19 15 7 1 0 0 0 0 0 0 0 0 0 0 0 0 0 0 0 0 0 0 0 0 0 0 0 0 0 0 0 0 0 0 0 0
0 0 0 0 0 0 0 0 0 0 0 2 7 10 8 3 0 0 0 0 0 0 0 0 0 0 0 0 0 0 0 0 0 0 0 0 0 0 0 0 0 0 0 0 0 0 0 0 0

GEFSSGP_con_prob3kmehi_030.txt.gz
EHI
0 0 0 0 0 0 0 0 0 0 0 0 0 0 0 0 0 0 1 0 0 1 3 8 10 7 5 6 7 9 15 25 33 35 28 17 8 4 2 1 1 1 1 1 2 3 2 1 0
0 0 0 0 0 0 0 0 0 0 0 0 0 0 0 0 0 2 2 1 0 1 4 12 17 13 8 7 7 7 9 12 17 18 14 9 5 3 2 1 0 0 0 1 2 2 1 0 0
0 0 0 0 0 0 0 0 0 0 0 0 0 0 0 0 2 6 6 2 0 0 5 16 24 23 17 13 12 9 6 4 5 5 4 3 2 1 1 0 0 0 0 0 1 1 0 0 0
0 0 0 0 0 0 0 0 0 0 0 0 0 0 0 1 5 11 10 4 0 0 3 12 21 26 25 22 19 14 8 5 3 3 2 1 1 0 0 0 0 0 0 0 0 0 0 0 0
0 0 0 0 0 0 0 0 0 0 0 0 0 0 1 4 12 16 13 6 2 0 1 4 11 17 21 22 21 15 8 4 2 1 1 0 0 0 0 1 1 1 0 0 0 0 0 0 0
0 0 0 0 0 0 0 0 0 0 0 0 0 0 3 11 21 22 14 7 3 1 0 0 3 6 10 14 14 11 6 3 2 0 0 0 0 0 0 1 2 1 0 0 0 0 0 0 0
0 0 0 0 0 0 0 0 0 0 0 0 0 0 6 20 29 25 14 7 5 2 1 0 0 1 3 6 7 7 5 4 3 1 0 0 0 0 0 1 1 0 0 0 0 0 0 0 0
0 0 0 0 0 0 0 0 0 0 0 0 0 0 9 28 35 25 15 9 5 3 1 0 0 0 1 2 3 4 4 4 3 2 0 0 0 0 0 0 0 0 0 0 0 1 0 0 0
0 0 0 0 0 0 0 0 0 0 0 0 0 1 14 35 41 28 18 14 10 6 2 0 0 0 0 1 2 1 1 2 1 1 0 0 0 0 0 0 0 0 0 0 0 0 0 0 0
0 0 0 0 0 0 0 0 0 0 0 0 1 6 24 44 43 27 19 17 15 11 6 1 0 0 0 1 1 0 0 0 0 0 0 0 0 0 0 0 0 0 0 0 0 0 0 0 0
0 0 0 0 0 0 0 0 0 0 0 0 2 16 41 52 40 23 15 13 14 13 9 3 1 0 0 0 0 0 0 0 0 0 0 0 0 0 0 0 0 0 0 0 0 0 0 0 0
0 0 0 0 0 0 0 0 0 0 0 0 4 24 52 55 35 17 10 8 10 11 9 4 1 1 0 0 0 0 0 0 0 0 0 0 0 0 0 0 0 0 0 0 0 0 0 0 0
0 0 0 0 0 0 0 0 0 0 0 0 6 27 49 49 32 18 12 10 10 9 7 3 1 2 2 1 0 0 1 1 0 0 0 0 0 0 0 1 1 1 0 1 1 0 0 0 0
0 0 0 0 0 0 0 0 0 0 0 0 6 23 38 39 33 27 25 22 17 12 7 3 2 4 5 2 1 1 2 2 1 1 1 0 0 0 0 1 1 1 0 1 1 1 0 0 0
0 0 0 0 0 0 0 0 0 1 0 0 4 15 30 40 43 42 42 40 31 20 12 7 5 7 10 10 7 4 3 3 2 2 1 0 0 0 0 1 1 1 0 1 1 1 1 0 0
0 0 0 0 0 0 0 0 0 0 0 0 3 12 30 50 59 60 61 60 48 31 20 12 8 11 18 24 21 13 8 5 3 2 1 1 1 1 1 1 3 2 1 1 1 2 2 1 0
0 0 0 0 0 0 0 0 0 0 0 1 4 15 36 58 70 76 79 74 60 43 31 23 20 21 25 31 30 21 13 8 4 2 2 1 1 0 1 2 3 3 2 1 1 2 2 1 1
0 0 0 0 0 0 0 0 0 0 0 2 7 19 40 60 74 82 83 75 64 53 45 40 36 32 28 27 25 18 12 7 3 2 1 1 0 0 1 2 2 1 1 1 0 1 1 1 0
0 0 0 0 0 0 0 0 0 0 0 2 8 21 41 61 76 79 73 66 60 56 53 48 41 33 25 20 15 11 8 4 1 1 0 0 0 0 0 1 1 0 0 0 0 0 0 0 0
0 0 0 0 0 0 0 0 0 0 0 1 8 20 40 63 75 69 58 53 52 51 48 42 33 24 18 13 8 5 3 1 0 0 0 0 0 0 0 0 0 0 0 0 0 0 0 0 0
0 0 0 0 0 0 0 0 0 0 0 1 7 18 37 60 67 55 43 39 39 39 36 30 23 17 11 6 3 1 0 0 0 0 0 0 0 0 0 0 0 0 0 0 0 0 0 0 0
0 0 0 0 0 0 0 0 0 0 0 1 5 15 30 47 51 43 33 27 25 24 22 19 15 12 7 4 1 0 0 0 0 0 0 0 0 0 0 0 0 0 0 0 0 0 0 0 0
0 0 0 0 0 0 0 0 0 0 0 1 3 11 23 33 36 32 24 17 12 11 11 11 11 8 5 3 2 0 0 0 0 0 0 0 0 0 0 0 0 0 0 0 0 0 0 0 0
0 0 0 0 0 0 0 0 0 0 0 0 2 10 22 29 28 22 14 8 4 3 5 7 7 5 3 1 1 0 0 0 0 0 0 0 0 0 0 0 0 0 0 0 0 0 0 0 0
0 0 0 0 0 0 0 0 0 0 0 0 2 13 28 36 30 18 8 3 1 1 3 5 5 4 3 1 0 0 0 0 0 0 0 0 0 0 0 0 0 0 0 0 0 0 0 0 0
0 0 0 0 0 0 0 0 0 0 0 1 4 19 38 42 30 15 4 1 0 0 1 3 3 3 3 1 0 0 0 0 0 0 0 0 0 0 0 0 0 0 0 0 0 0 0 0 0
0 0 0 0 0 0 0 0 0 0 1 2 9 27 45 43 27 12 3 0 0 0 1 2 2 2 2 1 0 0 0 0 0 0 0 0 0 0 0 0 0 0 0 0 0 0 0 0 0
0 0 0 0 0 0 0 0 0 0 1 3 12 33 50 46 27 11 1 0 0 0 0 1 1 1 1 0 0 0 0 0 0 0 0 0 0 0 0 0 0 0 0 0 0 0 0 0 0
0 0 0 0 0 0 0 0 0 0 2 3 11 32 52 48 28 9 1 0 0 0 0 0 0 0 0 0 0 0 0 0 0 0 0 0 0 0 0 0 0 0 0 0 0 0 0 0 0
0 0 0 0 0 0 0 0 0 0 1 3 9 29 50 48 27 8 1 0 0 0 0 0 0 0 0 0 0 0 0 0 0 0 0 0 0 0 0 0 0 0 0 0 0 0 0 0 0

GEFSSGP_con_prob3kmehi_036.txt.gz
EHI
0 0 0 0 0 0 0 0 1 1 1 0 0 1 7 14 15 11 17 45 65 43 18 16 18 16 13 11 9 5 4 4 4 4 4 3 3 3 4 5 6 5 4 3 3 3 3 3 3
0 0 0 0 0 0 0 0 0 0 0 0 0 1 5 8 9 10 23 55 64 37 14 11 11 11 9 9 8 6 5 5 5 5 4 3 3 3 3 4 4 5 4 3 3 3 3 3 3
0 0 0 0 0 0 0 0 0 0 0 0 0 1 2 3 8 15 30 56 61 35 15 9 5 5 5 5 6 6 5 5 5 4 3 3 3 3 3 3 3 4 3 3 3 3 3 3 3
0 0 0 0 0 0 0 0 0 0 0 0 0 0 2 9 21 28 31 43 51 40 22 10 4 3 3 3 4 4 4 4 4 3 3 3 3 3 3 3 3 3 3 3 3 3 3 3 3
0 0 0 0 0 0 1 0 0 0 0 0 0 0 5 20 37 35 24 28 41 46 33 13 4 4 3 3 4 3 3 3 3 3 3 3 3 3 3 3 3 3 3 3 3 3 3 3 3
0 0 0 0 0 0 1 1 1 0 0 0 0 1 9 27 38 27 15 19 37 54 43 16 4 5 4 5 6 5 4 3 3 3 3 3 3 3 3 3 3 3 3 3 3 3 3 3 3
0 0 0 0 0 0 0 1 2 1 0 0 0 2 12 29 31 17 10 18 39 59 48 19 5 6 6 8 10 8 5 3 3 3 3 3 3 3 3 3 3 3 3 3 3 3 3 2 1
0 0 0 0 0 0 0 1 3 2 1 0 0 4 19 33 28 14 9 18 38 56 50 28 15 10 8 10 11 9 6 4 3 3 3 3 3 3 3 3 3 3 3 3 2 2 1 1 0
0 0 0 0 0 0 0 1 2 2 0 0 2 11 30 37 26 14 12 20 35 50 55 50 38 22 13 13 12 8 5 4 3 3 3 3 3 3 3 3 4 3 3 1 1 1 0 0 0
0 0 0 0 0 0 0 1 2 1 1 0 5 21 37 37 25 17 16 24 36 44 53 63 58 38 28 27 19 7 4 4 3 3 3 3 3 3 4 5 4 4 2 1 0 0 0 0 0
0 0 0 0 0 0 0 1 2 2 1 1 6 20 32 33 24 19 22 31 38 37 41 56 60 48 43 40 23 9 6 5 5 5 4 3 3 4 5 6 5 4 3 1 1 0 0 0 0
0 0 0 0 0 0 0 0 1 1 1 1 4 12 22 26 21 19 25 37 43 39 34 44 58 60 59 52 30 14 12 12 14 14 9 5 4 4 5 7 6 4 3 4 3 2 1 0 0
0 0 0 0 0 0 0 0 0 1 1 1 2 7 16 21 20 20 30 47 58 56 48 51 69 79 81 72 49 32 30 30 33 29 18 10 10 13 16 16 12 8 9 11 10 7 5 4 3
0 0 0 0 0 0 0 0 1 2 2 1 1 4 10 16 20 26 42 63 77 80 76 76 86 94 95 86 70 60 56 56 56 49 36 26 25 33 37 34 27 22 22 21 16 12 12 10 8
0 0 0 0 0 0 0 0 1 2 1 1 1 2 5 10 18 34 57 78 91 95 95 94 96 98 95 86 78 75 74 76 78 73 59 45 40 45 50 50 44 39 35 29 22 19 19 17 13
0 0 0 0 0 0 0 0 0 1 2 2 2 2 3 7 16 36 64 87 97 99 99 99 98 98 96 89 84 83 84 88 91 87 75 57 44 44 53 57 53 45 39 33 29 25 22 19 16
0 0 0 0 0 0 0 0 0 1 3 3 2 3 4 7 16 38 69 92 99 100 100 99 99 99 99 96 94 93 93 92 90 85 76 60 44 40 49 55 48 39 35 32 26 22 18 14 12
0 0 0 0 0 0 0 0 0 1 2 2 2 3 5 12 25 49 77 95 99 99 100 100 100 100 100 100 98 95 90 85 79 73 64 52 38 31 34 37 31 24 22 21 16 11 8 6 4
0 0 0 0 0 0 0 0 0 0 1 1 2 2 6 18 38 65 87 97 98 99 100 100 100 100 100 99 96 90 81 71 60 50 41 31 23 17 15 14 12 8 8 7 5 3 2 1 1
0 0 0 0 0 0 0 0 0 0 0 0 1 1 6 22 50 78 94 99 99 99 100 100 100 100 99 96 91 83 70 51 35 26 18 12 8 6 4 3 2 1 1 1 0 0 0 0 0
0 0 0 0 0 0 0 0 0 0 0 0 0 0 5 23 54 82 96 99 99 99 100 100 99 97 95 90 82 69 51 30 16 10 6 3 2 1 1 0 0 0 0 0 0 0 0 0 0
0 0 0 0 0 0 0 0 0 0 0 0 0 0 4 21 51 82 97 99 98 97 97 95 93 89 86 81 70 54 34 18 9 4 1 0 0 0 0 0 0 0 0 0 0 0 0 0 0
0 0 0 0 0 0 0 0 0 0 0 0 0 1 5 20 50 82 96 97 94 88 84 79 75 72 69 63 55 41 26 14 6 2 0 0 0 0 0 0 0 0 0 0 0 0 0 0 0
0 0 0 0 0 0 0 0 0 0 0 0 1 3 9 25 56 84 94 90 82 70 60 53 48 45 42 39 35 28 19 10 3 0 0 0 0 0 0 0 0 0 0 0 0 0 0 0 0
0 0 0 0 0 0 0 0 0 0 0 0 2 6 16 35 63 83 86 76 63 49 37 29 24 21 19 18 17 14 10 4 1 0 0 0 0 0 0 0 0 0 0 0 0 0 0 0 0
0 0 0 0 0 0 0 0 0 0 0 0 2 7 20 42 66 78 74 59 42 28 19 13 10 8 8 8 8 7 3 1 0 0 0 0 0 0 0 0 0 0 0 0 0 0 0 0 0
0 0 0 0 0 0 0 0 0 0 0 0 3 9 24 47 67 72 62 43 25 13 8 4 3 3 3 4 4 3 1 0 0 0 0 0 0 0 0 0 0 0 0 0 0 0 0 0 0
0 0 0 0 0 0 0 0 0 0 0 0 2 12 31 55 68 66 50 30 14 6 2 1 0 1 1 2 2 1 0 0 0 0 0 0 0 0 0 0 0 0 0 0 0 0 0 0 0
0 0 0 0 0 0 0 0 0 0 0 0 2 14 37 59 65 56 37 19 8 3 0 0 0 0 0 0 0 0 0 0 0 0 0 0 0 0 0 0 0 0 0 0 0 0 0 0 0
0 0 0 0 0 0 0 0 0 0 0 0 3 16 40 59 61 49 28 12 4 1 0 0 0 0 0 0 0 0 0 0 0 0 0 0 0 0 0 0 0 0 0 0 0 0 0 0 0

GEFSSGP_con_prob3kmehi_042.txt.gz
EHI
0 0 0 0 0 0 0 0 0 0 0 0 1 2 1 1 2 1 0 1 8 21 39 63 82 88 89 83 74 63 49 34 22 13 6 4 5 9 12 12 10 7 2 0 0 0 0 0 0
0 0 0 0 0 0 0 0 0 0 0 0 1 1 1 3 4 3 0 1 8 19 35 56 77 84 82 77 69 59 45 32 21 11 6 3 4 6 8 7 6 4 1 0 0 0 0 0 0
0 0 0 0 0 0 0 0 0 0 0 0 0 1 1 5 10 8 3 2 5 12 26 47 65 71 70 66 58 48 36 25 16 9 4 2 3 3 3 3 1 1 0 0 0 0 0 0 0
0 0 0 0 0 0 0 0 0 0 0 1 3 2 2 13 26 22 9 3 2 6 17 35 51 57 56 53 46 36 26 18 10 5 2 1 1 1 1 1 0 0 0 0 0 0 0 0 0
0 0 0 0 0 0 0 0 0 0 1 5 9 8 8 29 51 39 15 5 3 6 11 23 39 47 47 44 38 29 21 14 7 2 0 0 0 0 0 0 0 0 0 0 0 0 0 0 0
0 0 0 0 0 0 0 0 0 0 2 7 14 14 16 43 64 47 16 5 4 8 9 14 25 36 41 43 39 29 21 15 7 2 1 0 0 0 0 0 0 0 0 0 0 0 0 0 0
0 0 0 0 0 0 0 0 0 0 1 5 13 17 20 40 60 50 25 10 6 8 9 9 12 19 29 38 38 32 24 17 9 4 2 0 0 0 0 0 0 0 0 0 0 0 0 0 0
0 0 0 0 0 0 0 0 0 0 1 3 9 12 15 28 48 59 50 31 15 9 9 9 8 9 15 23 31 30 24 15 8 4 1 0 0 0 0 0 0 0 0 0 0 0 0 0 0
0 0 0 0 0 0 0 0 0 1 3 7 10 11 14 23 43 69 77 59 35 20 14 12 11 10 10 15 21 22 17 10 5 2 0 0 0 0 0 0 0 0 0 0 0 0 0 0 0
0 0 0 0 0 0 0 0 0 2 8 15 22 26 25 26 43 71 89 81 61 40 24 17 15 14 15 16 15 11 6 3 1 0 0 0 0 0 0 0 0 0 0 0 0 0 0 0 0
0 0 0 0 0 0 0 0 0 3 10 21 36 45 41 34 42 65 87 91 80 62 43 30 22 18 19 18 12 5 1 0 0 0 0 0 0 0 0 0 0 0 0 0 0 0 0 0 0
0 0 0 0 0 0 0 0 0 2 10 24 41 52 49 40 40 55 77 90 89 79 67 53 37 24 20 19 12 3 0 0 0 0 0 0 0 0 0 0 0 0 0 0 0 0 0 0 0
0 0 0 0 0 0 0 0 0 2 12 26 40 48 47 40 37 45 66 84 91 88 82 75 59 39 25 19 12 4 1 0 0 0 0 0 0 0 0 0 0 0 0 0 0 0 0 0 0
0 0 0 0 0 0 0 0 0 2 11 23 33 39 38 34 33 41 58 76 88 91 89 86 79 62 41 25 16 9 4 1 0 0 0 0 0 0 0 0 0 0 0 0 0 0 0 0 0
0 0 0 0 0 0 0 0 0 2 7 16 24 27 25 24 29 39 53 69 84 91 90 88 86 78 59 40 28 21 14 8 4 2 2 2 1 1 0 0 0 0 0 0 0 0 0 0 0
0 0 0 0 0 0 0 0 0 1 4 10 15 17 16 17 22 32 47 65 80 87 86 84 86 83 71 55 43 38 31 23 14 7 4 3 2 1 0 0 0 0 0 0 0 0 0 0 0
0 0 0 0 0 0 0 0 0 0 2 6 9 10 12 12 16 25 40 58 73 80 80 81 85 86 80 66 57 53 45 32 21 12 7 5 3 1 0 0 0 0 0 0 0 0 0 0 0
0 0 0 0 0 0 0 0 0 0 1 4 6 6 8 10 14 23 37 52 66 75 78 81 86 89 85 76 67 59 45 29 18 12 8 6 4 2 0 0 0 0 0 0 0 0 0 0 0
0 0 0 0 0 0 0 0 0 0 0 2 4 5 8 12 18 26 39 53 66 75 80 84 88 91 89 80 68 52 34 19 12 8 5 3 2 1 0 0 0 0 0 0 0 0 0 0 0
0 0 0 0 0 0 0 0 0 0 0 1 3 7 13 20 27 35 47 62 73 80 84 87 90 91 86 74 56 37 20 10 6 3 2 1 0 0 0 0 0 0 0 0 0 0 0 0 0
0 0 0 0 0 0 0 0 0 0 0 0 2 9 20 30 38 48 61 73 81 84 86 88 87 84 74 60 42 23 11 4 2 1 0 0 0 0 0 0 0 0 0 0 0 0 0 0 0
0 0 0 0 0 0 0 0 0 0 0 0 1 9 21 35 49 63 74 81 86 86 84 82 78 68 56 44 29 15 5 2 1 0 0 0 0 0 0 0 0 0 0 0 0 0 0 0 0
0 0 0 0 0 0 0 0 0 0 0 0 2 8 21 40 59 74 82 85 85 82 76 68 57 46 34 25 17 8 3 1 0 0 0 0 0 0 0 0 0 0 0 0 0 0 0 0 0
0 0 0 0 0 0 0 0 0 0 0 1 4 11 26 48 70 83 86 86 81 73 61 47 32 22 15 10 7 4 1 0 0 0 0 0 0 0 0 0 0 0 0 0 0 0 0 0 0
0 0 0 0 0 0 0 0 0 1 2 5 12 24 40 60 77 86 85 79 69 54 39 25 14 6 4 3 2 2 1 0 0 0 0 0 0 0 0 0 0 0 0 0 0 0 0 0 0
0 0 0 0 0 0 0 0 1 4 8 16 28 42 57 69 75 75 69 57 42 28 18 10 4 1 1 1 1 1 0 0 0 0 0 0 0 0 0 0 0 0 0 0 0 0 0 0 0
0 0 0 0 0 0 0 0 2 7 16 29 42 51 57 60 56 49 39 28 17 9 4 2 0 0 0 0 0 0 0 0 0 0 0 0 0 0 0 0 0 0 0 0 0 0 0 0 0
0 0 0 0 0 0 0 0 1 6 17 29 37 41 39 35 28 21 15 9 4 2 0 0 0 0 0 0 0 0 0 0 0 0 0 0 0 0 0 0 0 0 0 0 0 0 0 0 0
0 0 0 0 0 0 0 0 0 4 12 20 22 20 17 13 9 6 3 1 0 0 0 0 0 0 0 0 0 0 0 0 0 0 0 0 0 0 0 0 0 0 0 0 0 0 0 0 0
0 0 0 0 0 0 0 1 1 2 8 14 13 7 4 3 2 1 1 0 0 0 0 0 0 0 0 0 0 0 0 0 0 0 0 0 0 0 0 0 0 0 0 0 0 0 0 0 0

GEFSSGP_con_prob3kmehi_048.txt.gz
EHI
0 0 0 0 0 0 0 0 0 0 0 0 0 0 0 0 0 0 0 0 3 9 19 39 66 87 94 93 90 85 80 75 72 72 74 75 75 70 62 52 41 28 16 6 2 1 0 0 0
0 0 0 0 0 0 0 0 0 0 0 0 0 0 0 0 0 0 0 1 7 14 21 40 72 91 95 94 92 87 80 71 62 58 57 57 57 53 46 36 27 18 9 3 1 0 0 0 0
0 0 0 0 0 0 0 0 0 0 0 0 0 0 0 0 0 0 1 5 15 20 23 44 76 93 96 95 93 86 77 64 50 41 36 34 33 31 25 17 10 6 2 0 0 0 0 0 0
0 0 0 0 0 0 0 0 0 0 0 0 0 0 0 0 0 0 3 11 21 23 25 47 76 90 93 93 90 83 72 58 44 32 24 20 18 15 11 6 2 0 0 0 0 0 0 0 0
0 0 0 0 0 0 0 0 0 0 0 0 0 0 1 0 0 1 4 12 23 26 27 44 70 84 86 85 83 77 66 53 40 29 20 14 9 6 3 1 0 0 0 0 0 0 0 0 0
0 0 0 0 0 0 0 0 0 0 0 0 1 1 1 0 0 1 4 10 19 26 26 36 56 70 74 74 72 67 58 46 35 25 16 9 4 1 1 0 0 0 0 0 0 0 0 0 0
0 0 0 0 0 0 0 0 0 0 0 1 3 4 2 0 0 0 2 5 12 17 18 22 33 44 52 57 59 56 48 39 29 19 11 5 1 0 0 0 0 1 0 0 0 0 0 0 0
0 0 0 0 0 0 0 0 0 0 0 1 3 3 3 3 3 1 2 4 6 8 8 10 14 20 25 33 40 42 37 31 23 13 7 3 1 0 0 0 1 1 0 0 0 0 0 0 0
0 0 0 0 0 0 0 0 0 0 0 1 2 3 9 15 12 7 6 6 5 5 4 4 5 8 10 15 20 24 23 19 14 9 5 2 1 0 0 0 1 0 0 0 0 0 0 0 0
0 0 0 0 0 0 0 0 0 0 0 0 3 13 29 36 27 15 9 7 6 5 3 2 3 7 11 11 11 12 12 11 8 6 3 1 0 0 0 0 0 0 0 0 0 0 0 0 0
0 0 0 0 0 0 0 0 0 0 0 1 10 34 59 59 41 23 13 8 5 4 3 2 3 9 16 16 14 14 12 10 6 4 2 1 0 0 0 0 0 0 0 0 0 0 0 0 0
0 0 0 0 0 0 0 0 0 0 0 1 18 54 80 76 54 32 18 10 6 4 3 2 3 9 16 19 19 19 16 12 8 4 2 1 0 0 0 0 0 0 0 0 0 0 0 0 0
0 0 0 0 0 0 0 0 0 0 0 3 24 62 88 86 67 45 27 18 12 8 4 3 5 8 14 19 21 19 16 13 8 3 1 0 0 0 0 0 0 0 0 0 0 0 0 0 0
0 0 0 0 0 0 0 0 0 0 1 6 26 58 82 86 77 61 46 37 28 17 10 8 9 10 13 17 19 16 13 10 7 3 0 0 0 0 0 0 0 0 0 0 0 0 0 0 0
0 0 0 0 0 0 0 0 0 0 2 7 22 44 64 76 77 72 65 56 44 31 21 16 14 14 15 16 16 14 10 8 5 2 0 0 0 0 0 0 0 0 0 0 0 0 0 0 0
0 0 0 0 0 0 0 0 0 0 2 7 15 28 42 54 60 61 63 64 59 50 40 31 26 23 20 18 16 12 9 6 3 1 0 0 0 0 0 0 0 0 0 0 0 0 0 0 0
0 0 0 0 0 0 0 0 0 0 1 5 9 17 25 32 35 38 46 59 67 69 64 55 48 42 35 27 19 12 7 5 3 1 0 0 0 0 0 0 0 0 0 0 0 0 0 0 0
0 0 0 0 0 0 0 0 0 0 0 2 5 9 14 19 20 20 29 45 63 76 80 78 74 66 56 43 28 16 10 8 5 2 0 0 0 0 0 0 0 0 0 0 0 0 0 0 0
0 0 0 0 0 0 0 0 0 0 0 0 1 3 7 11 10 9 14 27 50 71 83 87 86 80 72 59 38 21 13 10 7 4 1 0 0 0 0 0 0 0 0 0 0 0 0 0 0
0 0 0 0 0 0 0 0 0 0 0 0 0 1 2 3 3 3 5 13 33 58 74 82 83 78 71 57 36 18 9 6 5 3 2 0 0 0 0 0 0 0 0 0 0 0 0 0 0
0 0 0 0 0 0 0 0 0 0 0 0 0 0 1 1 1 2 3 8 20 39 57 69 71 64 54 40 22 9 4 2 2 1 1 0 0 0 0 0 0 0 0 0 0 0 0 0 0
0 0 0 0 0 0 0 0 0 0 0 0 0 1 2 2 2 3 5 9 16 28 41 52 53 44 33 23 12 5 2 1 0 0 0 0 0 0 0 0 0 0 0 0 0 0 0 0 0
0 0 0 0 0 0 0 0 0 0 0 0 0 1 2 3 5 8 11 14 19 25 33 36 33 25 18 12 7 4 2 1 0 0 0 0 0 0 0 0 0 0 0 0 0 0 0 0 0
0 0 0 0 0 0 0 0 0 1 1 0 1 1 2 6 11 16 19 21 23 24 24 24 19 12 8 5 3 2 1 0 0 0 0 0 0 0 0 0 0 0 0 0 0 0 0 0 0
0 0 0 0 0 0 0 0 1 3 2 1 2 3 6 11 17 22 22 22 20 17 14 12 10 5 2 1 1 0 0 0 0 0 0 0 0 0 0 0 0 0 0 0 0 0 0 0 0
0 0 0 0 0 0 0 0 1 4 4 4 4 6 9 13 16 19 18 14 11 8 5 4 3 1 0 0 0 0 0 0 0 0 0 0 0 0 0 0 0 0 0 0 0 0 0 0 0
0 0 0 0 0 0 0 0 1 3 6 8 8 7 8 10 11 12 9 6 4 2 1 1 0 0 0 0 0 0 0 0 0 0 0 0 0 0 0 0 0 0 0 0 0 0 0 0 0
0 0 0 0 0 0 0 0 0 2 5 9 9 7 6 6 5 4 3 1 1 1 0 0 0 0 0 0 0 0 0 0 0 0 0 0 0 0 0 0 0 0 0 0 0 0 0 0 0
0 0 0 0 0 0 0 0 0 1 3 7 8 6 5 3 2 1 0 0 0 0 0 0 0 0 0 0 0 0 0 0 0 0 0 0 0 0 0 0 0 0 0 0 0 0 0 0 0
0 0 0 0 0 0 0 1 1 2 3 6 7 6 4 2 1 0 0 0 0 0 0 0 0 0 0 0 0 0 0 0 0 0 0 0 0 0 0 0 0 0 0 0 0 0 0 0 0

GEFSSGP_con_prob3kmehi_054.txt.gz
EHI
0 0 0 0 0 0 0 0 0 0 0 0 0 0 0 0 0 0 0 3 17 40 47 29 14 11 10 16 36 63 83 92 94 94 94 92 89 83 73 63 56 44 27 13 8 6 2 0 0
0 0 0 0 0 0 0 0 0 0 0 0 0 0 0 0 0 0 0 4 17 36 40 28 20 18 15 19 35 61 81 91 94 95 95 94 90 82 69 57 46 34 20 11 7 4 2 0 0
0 0 0 0 0 0 0 0 0 0 0 0 0 0 0 0 0 0 1 6 16 26 31 34 34 30 26 26 38 60 79 88 92 94 94 91 86 76 63 48 33 22 13 8 5 2 1 0 0
0 0 0 0 0 0 0 0 0 0 0 0 0 0 0 0 0 2 5 9 15 17 23 37 45 41 35 35 43 60 75 83 87 89 87 84 77 69 56 38 24 15 9 6 3 1 0 0 0
0 0 0 0 0 0 0 0 0 0 0 0 0 0 1 4 5 5 8 11 13 12 18 35 48 46 41 40 45 57 67 73 76 77 76 74 70 63 49 30 17 11 7 4 1 0 0 0 0
0 0 0 0 0 0 0 0 0 0 0 0 0 0 4 11 15 13 11 10 10 9 15 30 42 42 40 40 43 49 56 59 60 61 62 62 58 52 39 25 14 9 5 2 0 0 0 0 0
0 0 0 0 0 0 0 0 0 0 0 0 0 0 7 19 25 21 14 9 7 7 11 20 29 31 30 32 35 38 41 43 42 41 44 44 40 33 24 17 11 7 4 1 0 0 0 0 0
0 0 0 0 0 0 0 0 0 0 0 0 0 0 11 29 37 32 22 12 7 6 7 10 15 17 16 18 22 24 25 25 24 22 23 23 19 13 9 8 8 6 2 0 1 1 1 0 0
0 0 0 0 0 0 0 0 0 0 0 0 0 1 16 41 54 48 36 24 16 10 6 5 8 9 7 7 11 12 13 13 11 8 7 7 5 3 4 6 7 3 0 1 2 2 2 1 0
0 0 0 0 0 0 0 0 0 0 0 0 0 3 20 46 61 58 47 37 27 16 8 5 6 6 4 4 5 5 6 8 6 4 3 2 1 1 3 8 6 2 0 1 2 3 2 1 0
0 0 0 0 0 0 0 0 0 0 0 0 0 4 19 40 55 53 45 37 29 18 10 6 6 6 5 4 4 3 4 7 7 7 6 4 2 2 3 5 4 2 1 1 2 2 1 0 0
0 0 0 0 0 0 0 0 0 0 0 0 0 4 15 31 41 41 34 29 23 17 11 7 6 8 8 6 5 4 5 6 8 11 10 6 4 3 3 3 4 4 3 2 1 1 0 0 0
0 0 0 0 0 0 0 0 0 0 0 0 1 3 9 19 26 28 28 26 24 21 16 12 11 14 15 12 8 6 7 7 8 10 9 7 4 4 4 5 5 5 4 3 2 1 1 0 0
0 0 0 0 0 0 0 0 0 0 0 0 1 3 5 7 13 22 31 36 36 33 27 23 22 24 24 19 12 9 10 10 9 8 9 8 7 7 7 7 6 5 5 4 2 2 1 0 0
0 0 0 0 0 0 0 0 0 0 0 0 1 2 3 3 6 17 34 47 50 47 42 35 32 35 36 29 23 20 18 16 14 12 12 12 11 11 11 9 9 10 10 7 4 2 1 1 1
0 0 0 0 0 0 0 0 0 0 0 0 0 1 2 1 3 12 30 49 58 59 56 48 43 47 49 45 39 34 30 28 25 20 17 16 15 14 16 17 17 19 17 12 7 4 3 2 2
0 0 0 0 0 0 0 0 0 0 0 0 0 1 1 1 1 8 24 45 62 71 70 65 62 63 65 63 57 50 45 43 37 30 25 21 17 17 20 24 25 24 20 13 8 5 4 3 3
0 0 0 0 0 0 0 0 0 0 0 0 0 0 1 1 3 8 21 41 64 79 83 81 80 81 82 78 71 63 56 50 42 34 28 23 20 20 22 24 23 20 16 11 7 4 3 3 2
0 0 0 0 0 0 0 0 0 0 0 1 1 1 2 5 8 13 21 37 60 80 89 91 92 94 92 86 78 67 56 46 37 29 25 21 19 18 18 17 15 12 10 8 6 3 1 1 1
0 0 0 0 0 0 0 0 0 0 1 3 5 6 8 12 16 19 24 35 54 73 87 92 95 96 92 84 72 59 47 37 28 23 20 16 13 11 9 9 9 7 5 4 3 1 0 0 0
0 0 0 0 0 0 0 0 0 0 2 7 13 18 21 24 27 27 28 35 48 65 78 87 91 92 88 77 61 48 38 30 23 18 14 10 7 5 3 3 4 4 3 2 1 0 0 0 0
0 0 0 0 0 0 0 0 0 0 3 12 24 32 36 37 35 34 36 41 51 63 76 84 87 87 79 65 51 41 33 27 20 12 7 4 3 2 1 1 1 2 1 1 0 0 0 0 0
0 0 0 0 0 0 0 0 0 1 6 17 30 40 44 42 39 41 46 54 61 69 77 81 80 73 61 48 40 33 26 20 13 6 3 1 1 0 0 0 0 0 0 0 0 0 0 0 0
0 0 0 0 0 0 0 0 1 3 9 21 32 40 43 40 39 43 50 57 63 67 68 66 59 48 36 30 26 21 15 10 5 2 1 0 0 0 0 0 0 0 0 0 0 0 0 0 0
0 0 0 0 0 0 0 1 3 6 13 21 29 33 34 33 33 36 39 42 46 48 46 41 32 23 17 15 13 10 7 4 2 0 0 0 0 0 0 0 0 0 0 0 0 0 0 0 0
0 0 0 0 0 0 0 1 3 7 12 19 24 25 23 22 22 22 22 21 22 23 22 19 14 10 7 6 4 3 3 2 1 0 0 0 0 0 0 0 0 0 0 0 0 0 0 0 0
0 0 0 0 0 0 0 0 1 4 9 17 20 19 15 12 11 10 9 7 6 7 7 6 5 4 2 1 1 1 1 0 0 0 0 0 0 0 0 0 0 0 0 0 0 0 0 0 0
0 0 0 0 0 0 0 0 0 3 9 16 17 13 7 4 3 3 3 2 1 1 1 1 1 1 0 0 0 0 0 0 0 0 0 0 0 0 0 0 0 0 0 0 0 0 0 0 0
0 0 0 0 0 0 0 0 3 9 14 15 12 6 2 0 0 0 0 0 0 0 0 0 0 0 0 0 0 0 0 0 0 0 0 0 0 0 0 0 0 0 0 0 0 0 0 0 0
0 0 0 0 0 0 0 1 7 16 19 15 9 4 1 0 0 0 0 0 0 0 0 0 0 0 0 0 0 0 0 0 0 0 0 0 0 0 0 0 0 0 0 0 0 0 0 0 0

GEFSSGP_con_prob3kmehi_060.txt.gz
EHI
0 0 0 0 0 0 0 0 0 0 0 0 0 0 0 0 0 0 3 29 69 75 60 54 45 26 10 3 1 0 1 2 2 1 2 3 6 12 15 18 18 14 8 3 0 0 0 0 0
0 0 0 0 0 0 0 0 0 0 0 0 0 0 0 0 0 1 9 38 71 70 50 46 44 27 11 2 0 0 1 3 4 6 7 8 12 15 16 17 15 12 8 3 0 0 0 0 0
0 0 0 0 0 0 0 0 0 0 0 0 0 0 0 0 1 6 20 49 72 62 43 44 45 31 12 3 0 1 3 7 10 14 17 20 23 23 20 17 13 10 6 2 0 0 0 0 0
0 0 0 0 0 0 0 0 0 0 0 0 0 1 3 6 10 16 30 52 66 58 42 41 44 33 15 4 1 1 5 11 17 23 27 30 32 29 22 17 12 8 5 2 0 0 0 0 0
0 0 0 0 0 0 0 0 0 0 0 0 0 2 8 16 21 22 29 44 55 57 46 38 40 33 15 5 1 3 7 14 22 29 32 35 35 30 23 15 10 6 4 2 1 0 0 0 0
0 0 0 0 0 0 0 0 0 0 0 0 0 3 12 22 24 18 20 28 42 59 52 34 31 26 12 4 1 3 7 13 21 26 30 33 33 29 21 13 8 5 4 3 1 1 0 0 0
0 0 0 0 0 0 0 0 0 0 0 0 0 4 17 27 22 13 11 15 33 57 51 25 14 13 8 3 2 3 5 10 17 20 22 26 26 22 15 9 6 4 3 3 3 2 1 0 0
0 0 0 0 0 0 0 0 0 0 0 0 0 7 23 31 23 12 8 12 30 53 47 21 6 5 4 2 2 4 7 9 12 14 14 15 14 12 8 7 8 7 3 3 4 3 2 0 0
0 0 0 0 0 0 0 0 0 0 0 0 1 10 25 30 21 12 9 15 33 50 46 27 13 7 3 1 2 5 7 7 7 7 7 6 4 3 4 12 20 13 5 3 3 3 2 1 0
0 0 0 0 0 0 0 0 0 0 0 0 4 15 26 27 19 12 11 20 34 45 45 38 27 13 5 5 6 4 3 3 3 2 2 2 1 3 9 24 31 21 7 3 3 3 2 1 0
0 0 0 0 0 0 0 0 0 0 0 0 6 18 28 26 16 12 14 21 31 36 39 45 41 24 13 15 14 6 2 3 3 4 4 3 3 8 19 29 31 21 8 2 1 2 2 1 1
0 0 0 0 0 0 0 0 0 0 0 0 5 18 28 23 12 11 15 21 30 31 31 45 54 43 33 34 27 13 10 11 12 14 14 11 10 16 26 32 29 20 9 3 3 3 3 2 2
0 0 0 0 0 0 0 0 0 0 0 0 3 13 20 16 9 9 16 26 37 39 35 48 68 69 64 61 46 28 25 27 28 30 28 27 27 30 38 43 39 28 17 12 9 8 7 6 5
0 0 0 0 0 0 0 0 0 0 0 0 1 6 11 9 7 11 21 37 53 59 56 64 83 91 90 83 65 44 39 41 45 48 49 47 48 52 56 58 54 43 32 25 21 16 14 11 8
0 0 0 0 0 0 0 0 0 0 0 0 0 2 5 5 7 15 32 55 74 82 81 84 92 98 99 93 77 58 50 53 60 65 67 64 64 68 72 69 64 55 47 39 31 22 17 14 11
0 0 0 0 0 0 0 0 0 0 0 0 0 2 5 6 9 18 42 71 89 95 96 95 95 98 100 96 86 73 67 69 73 76 76 73 72 76 78 75 69 62 55 47 35 24 16 12 11
0 0 0 0 0 0 0 0 0 0 0 0 1 4 8 10 12 22 47 77 95 99 100 99 98 99 99 97 93 86 83 83 82 81 80 76 75 77 78 75 70 63 54 43 33 23 16 11 9
0 0 0 0 0 0 0 0 0 0 0 1 4 8 11 13 16 29 55 82 96 99 100 100 99 99 99 97 96 93 89 87 85 83 79 75 73 73 70 67 62 54 44 34 26 20 13 9 8
0 0 0 0 0 0 0 0 0 0 1 4 8 11 14 18 26 43 68 86 94 98 100 100 100 99 98 97 97 94 90 85 81 76 69 64 62 59 54 49 44 36 28 21 16 12 8 5 5
0 0 0 0 0 0 0 0 0 1 4 8 13 17 21 26 38 57 74 85 91 96 99 99 99 98 97 96 95 92 86 78 68 59 50 44 41 37 33 29 23 18 13 9 6 5 3 2 1
0 0 0 0 0 0 0 0 1 3 8 14 19 25 31 39 50 63 74 82 88 92 95 97 97 97 94 91 87 83 78 68 54 42 33 24 20 17 15 11 8 6 5 4 3 3 2 0 0
0 0 0 0 0 0 0 0 1 5 12 20 29 37 44 52 57 63 71 78 83 87 90 92 93 92 88 84 80 76 69 56 40 28 19 12 7 6 5 3 1 1 2 3 2 2 1 0 0
0 0 0 0 0 0 0 0 1 7 17 30 43 51 53 56 60 63 67 71 75 78 80 82 82 79 75 73 71 66 55 40 25 14 9 5 3 2 1 1 0 0 1 1 1 1 1 0 0
0 0 0 0 0 0 0 0 6 19 34 48 58 60 56 54 55 56 58 60 62 62 63 64 62 56 53 52 51 46 36 23 12 6 4 3 1 1 0 0 0 0 0 0 0 0 0 0 0
0 0 0 0 0 0 0 3 18 43 60 67 65 59 52 47 43 42 42 43 43 42 41 42 37 30 27 28 28 25 18 10 5 3 2 2 1 0 0 0 0 0 0 0 0 0 0 0 0
0 0 0 0 0 0 2 12 38 64 74 71 61 50 40 33 27 25 24 25 26 25 24 21 17 12 11 11 11 9 6 3 1 1 1 1 0 0 0 0 0 0 0 0 0 0 0 0 0
0 0 0 0 0 0 3 21 51 71 72 63 49 36 25 17 12 11 11 12 13 12 11 10 7 4 3 3 2 1 1 0 0 0 0 0 0 0 0 0 0 0 0 0 0 0 0 0 0
0 0 0 0 0 0 2 17 44 66 65 51 35 21 12 7 4 3 3 4 4 4 4 4 4 1 0 0 0 0 0 0 0 0 0 0 0 0 0 0 0 0 0 0 0 0 0 0 0
0 0 0 0 0 0 1 9 32 56 55 38 21 10 4 2 0 0 0 1 1 1 1 1 1 0 0 0 0 0 0 0 0 0 0 0 0 0 0 0 0 0 0 0 0 0 0 0 0
0 0 0 0 0 0 1 9 31 50 47 30 14 4 1 0 0 0 0 0 1 1 0 0 0 0 0 0 0 0 0 0 0 0 0 0 0 0 0 0 0 0 0 0 0 0 0 0 0

GEFSSGP_con_prob3kmehi_066.txt.gz
EHI
0 0 0 0 0 0 0 0 0 0 0 0 0 1 1 1 2 3 4 8 20 30 32 44 66 74 66 55 39 19 7 7 10 11 11 14 20 23 20 16 12 8 4 1 0 0 0 0 0
0 0 0 0 0 0 0 0 0 0 0 0 0 0 0 2 5 8 8 14 30 36 33 44 66 73 64 51 33 15 6 4 5 6 5 7 11 13 12 9 7 4 2 1 0 0 0 0 0
0 0 0 0 0 0 0 0 0 0 0 0 0 0 0 3 10 14 14 24 37 39 35 46 65 70 60 46 27 12 5 2 1 1 1 1 2 3 3 2 1 1 1 0 0 0 0 0 0
0 0 0 0 0 0 0 0 0 0 0 1 2 1 0 8 22 28 26 29 37 38 36 46 60 65 58 45 27 13 7 3 1 0 1 1 0 0 0 0 0 0 0 0 0 0 0 0 0
0 0 0 0 0 0 0 0 0 0 0 1 3 3 4 22 45 48 34 27 32 38 37 42 55 61 56 45 30 19 11 4 1 1 2 1 0 0 0 0 0 0 0 0 0 0 0 0 0
0 0 0 0 0 0 0 0 0 0 0 2 6 7 11 37 61 56 33 21 28 39 39 39 46 54 54 44 30 20 12 5 1 1 2 1 1 1 1 0 0 0 0 0 0 0 0 0 0
0 0 0 0 0 0 0 0 0 0 0 4 9 10 15 40 60 54 32 18 21 34 38 35 35 41 45 38 26 17 10 6 4 3 2 1 2 2 2 1 1 1 0 0 0 0 0 0 0
0 0 0 0 0 0 0 0 0 0 1 5 9 8 14 35 55 59 44 25 17 20 27 28 24 25 27 23 17 11 7 7 6 5 4 3 3 2 2 2 1 1 1 1 1 1 1 1 1
0 0 0 0 0 0 0 0 0 0 2 7 11 12 19 37 56 68 62 40 19 11 13 18 18 16 13 10 7 5 5 5 4 4 4 4 2 1 1 1 2 2 2 3 3 3 3 3 2
0 0 0 0 0 0 0 0 0 0 3 10 18 23 30 42 56 69 69 50 26 11 8 10 13 13 10 6 3 1 1 2 1 1 2 1 0 0 0 1 2 2 3 3 4 5 5 4 3
0 0 0 0 0 0 0 0 0 1 3 10 21 28 33 38 46 58 63 52 32 15 8 7 10 12 11 7 4 1 0 0 0 0 0 0 0 0 0 0 1 1 2 2 3 4 4 3 3
0 0 0 0 0 0 0 0 0 0 2 9 20 27 29 29 31 39 51 50 36 21 12 8 8 10 11 9 5 2 0 0 0 0 0 0 0 0 0 0 0 1 2 2 3 3 3 3 3
0 0 0 0 0 0 0 0 0 0 2 8 19 25 23 20 21 29 42 48 42 31 21 15 12 11 11 9 7 3 1 1 1 1 0 0 0 0 0 0 0 0 1 1 2 3 3 2 1
0 0 0 0 0 0 0 0 0 1 3 9 17 20 17 15 18 28 41 48 48 42 34 26 21 17 15 12 9 5 3 3 3 2 1 1 1 0 0 0 0 0 0 0 1 2 1 1 0
0 0 0 0 0 0 0 0 0 1 3 8 14 16 15 15 20 30 40 47 49 49 45 40 34 29 25 20 13 10 8 6 4 3 3 2 2 1 1 0 0 1 1 0 0 1 0 0 0
0 0 0 0 0 0 0 0 0 1 3 6 11 16 18 19 23 30 38 44 51 56 57 54 50 47 43 35 25 19 15 10 7 5 5 5 5 4 3 2 1 2 2 1 1 1 0 0 0
0 0 0 0 0 0 0 0 0 1 3 6 10 18 24 25 28 34 39 45 55 64 68 67 65 66 65 57 44 34 25 17 12 10 10 10 9 7 6 4 3 3 4 2 1 0 0 0 0
0 0 0 0 0 0 0 0 0 1 4 7 12 21 27 29 32 37 42 50 60 67 72 74 75 78 79 75 65 53 41 29 19 15 13 12 11 9 8 7 5 3 3 3 1 0 0 0 0
0 0 0 0 0 0 0 0 1 5 9 12 17 23 26 28 31 35 42 52 60 65 69 74 79 81 83 82 77 67 53 37 24 16 11 9 8 8 8 8 5 3 2 2 1 0 0 0 0
0 0 0 0 0 0 1 2 5 9 15 20 24 26 26 27 31 35 42 51 58 61 66 71 76 78 80 81 77 66 50 34 23 15 9 6 6 6 7 5 3 1 1 1 0 0 0 0 0
0 0 0 0 0 0 2 4 7 11 19 27 32 33 32 32 36 40 43 49 55 60 64 67 70 72 74 73 69 58 44 30 20 13 8 5 5 5 4 2 1 0 0 0 0 0 0 0 0
0 0 0 0 0 0 1 2 5 10 19 28 36 39 38 39 41 44 46 50 53 54 56 58 60 61 63 61 56 48 38 26 17 10 5 2 3 3 2 1 0 0 0 0 0 0 0 0 0
0 0 0 0 0 0 0 0 3 8 15 25 34 39 40 42 43 43 44 46 45 43 42 45 47 48 48 45 40 34 27 18 11 4 1 0 1 1 0 0 0 0 0 0 0 0 0 0 0
0 0 0 0 0 0 0 0 2 6 13 22 30 33 35 36 37 36 35 34 33 32 31 33 36 36 33 28 24 20 14 9 4 1 0 0 0 0 0 0 0 0 0 0 0 0 0 0 0
0 0 0 0 0 0 0 0 1 5 12 19 22 23 24 25 26 26 24 23 22 21 21 21 23 22 18 15 13 9 5 2 1 0 0 0 0 0 0 0 0 0 0 0 0 0 0 0 0
0 0 0 0 0 0 0 1 3 7 12 13 13 13 15 16 17 17 16 16 14 12 10 10 9 8 7 6 5 2 0 0 0 0 0 0 0 0 0 0 0 0 0 0 0 0 0 0 0
0 0 0 0 0 0 0 1 5 8 10 9 8 8 9 10 10 10 9 8 7 5 4 3 2 1 1 2 2 1 0 0 0 0 0 0 0 0 0 0 0 0 0 0 0 0 0 0 0
0 0 0 0 0 0 0 1 6 9 9 7 6 4 5 5 5 4 3 2 2 2 1 1 1 0 0 1 1 0 0 0 0 0 0 0 0 0 0 0 0 0 0 0 0 0 0 0 0
0 0 0 0 0 0 0 0 4 8 7 4 3 2 1 2 1 1 0 0 0 0 0 0 0 0 0 0 0 0 0 0 0 0 0 0 0 0 0 0 0 0 0 0 0 0 0 0 0
0 0 0 0 0 0 0 0 2 5 5 2 1 0 0 0 0 0 0 0 0 0 0 0 0 0 0 0 0 0 0 0 0 0 0 0 0 0 0 0 0 0 0 0 0 0 0 0 0

GEFSSGP_con_prob3kmehi_072.txt.gz
EHI
0 0 0 0 0 0 0 0 0 0 0 0 0 0 0 0 0 0 0 6 26 47 45 37 42 52 63 77 88 92 93 95 96 96 96 93 89 81 68 51 33 21 13 6 1 0 0 0 0
0 0 0 0 0 0 0 0 0 0 0 0 0 0 0 0 0 0 1 11 37 55 49 41 48 57 67 80 89 92 93 93 94 94 94 90 83 74 62 48 34 24 15 6 1 0 0 1 1
0 0 0 0 0 0 0 0 0 0 0 0 0 0 0 0 0 1 6 24 49 57 49 47 56 64 73 82 89 92 91 90 89 90 87 81 72 64 55 45 34 25 15 6 2 1 1 3 3
0 0 0 0 0 0 0 0 0 0 0 0 0 0 0 0 1 6 18 39 56 54 46 50 60 66 73 81 85 88 88 86 85 84 79 72 64 56 46 36 25 16 9 3 1 1 2 3 3
0 0 0 0 0 0 0 0 0 0 0 0 0 0 0 3 7 15 30 46 58 58 50 52 58 62 68 76 79 80 81 81 81 79 72 63 55 46 33 21 11 6 2 1 0 0 2 3 2
0 0 0 0 0 0 0 0 0 0 0 0 0 0 2 5 11 22 33 43 56 65 60 54 52 53 59 68 73 74 72 73 73 70 61 51 42 31 18 8 3 1 0 0 0 0 1 1 1
0 0 0 0 0 0 0 0 0 0 0 0 0 2 5 8 12 23 35 43 55 64 60 50 42 40 46 55 65 69 67 64 61 56 47 37 26 15 6 2 0 0 0 0 0 0 0 0 0
0 0 0 0 0 0 0 0 0 0 0 0 1 3 9 17 23 33 47 52 52 51 46 39 32 29 33 41 53 60 60 55 49 42 33 24 13 5 2 0 0 0 0 0 0 0 0 0 0
0 0 0 0 0 0 0 0 0 0 0 0 2 5 19 36 43 48 57 57 47 37 30 26 24 23 26 31 37 41 41 39 34 26 19 12 5 1 1 1 1 0 0 0 0 0 0 0 0
0 0 0 0 0 0 0 0 0 0 0 1 5 15 37 55 55 49 48 45 38 31 23 18 18 20 23 25 24 22 20 18 14 10 6 3 1 0 0 0 0 0 0 0 0 0 0 0 0
0 0 0 0 0 0 0 0 0 0 0 1 10 30 56 67 58 40 29 25 24 24 21 15 13 16 18 20 19 16 11 7 4 2 1 0 0 0 0 0 0 0 0 0 0 0 0 0 0
0 0 0 0 0 0 0 0 0 0 0 2 14 41 66 73 60 37 20 14 14 16 17 13 11 13 15 17 19 17 12 7 4 2 0 0 0 0 0 0 0 0 0 0 0 0 0 0 0
0 0 0 0 0 0 0 0 0 0 0 3 18 44 66 71 58 36 22 16 14 13 13 11 10 13 15 16 16 15 11 8 5 2 0 0 0 0 0 0 0 0 0 0 0 0 0 0 0
0 0 0 0 0 0 0 0 0 0 0 4 20 43 59 63 53 35 27 24 20 13 9 8 9 12 14 14 12 11 9 7 4 2 1 0 0 0 0 0 0 0 0 0 0 0 0 0 0
0 0 0 0 0 0 0 0 0 0 1 5 18 33 45 48 43 34 31 30 24 15 8 6 7 9 10 10 9 8 7 5 2 1 1 0 0 0 0 0 0 0 0 0 0 0 0 0 0
0 0 0 0 0 0 0 0 0 0 1 5 11 20 27 30 28 27 32 33 28 19 12 8 7 7 7 6 6 6 5 3 1 0 0 0 0 0 0 0 0 0 0 0 0 0 0 0 0
0 0 0 0 0 0 0 0 1 2 2 3 6 10 14 15 16 22 31 36 34 28 20 14 10 8 7 6 6 6 4 2 1 0 0 0 0 0 0 0 0 0 0 0 0 0 0 0 0
0 0 0 0 0 0 0 1 3 4 4 5 6 7 9 9 10 19 31 39 40 38 33 24 18 14 11 10 10 8 6 3 1 0 0 0 0 0 0 0 0 0 0 0 1 0 0 0 0
0 0 0 0 0 0 0 1 3 6 9 10 11 11 11 9 10 16 26 37 42 44 44 38 30 26 23 21 18 15 9 3 0 0 0 0 0 0 0 0 0 0 0 0 0 0 0 0 0
0 0 0 0 0 0 0 1 5 9 13 15 17 17 16 14 13 15 20 31 41 46 50 49 44 40 37 33 26 19 12 4 0 0 0 0 0 0 0 0 0 0 0 0 0 0 0 0 0
0 0 0 0 0 0 0 2 6 11 14 16 17 18 17 16 16 17 21 29 38 44 48 51 50 47 43 37 28 21 13 7 2 1 1 1 0 0 0 0 0 0 0 0 0 0 0 0 0
0 0 0 0 0 0 0 1 4 7 11 13 13 13 13 12 13 17 23 30 36 39 40 43 44 41 39 34 27 22 16 9 5 3 2 2 1 0 0 0 0 0 0 0 0 0 0 0 0
0 0 0 0 0 0 0 0 1 3 7 9 9 7 7 6 8 13 20 25 30 33 33 32 31 30 30 27 23 20 15 8 3 3 2 2 1 0 0 0 0 0 0 0 0 0 0 0 0
0 0 0 0 0 0 0 0 0 1 3 5 4 3 3 3 4 8 13 18 21 24 25 23 20 20 19 17 15 12 8 4 1 1 1 1 1 0 0 0 0 0 0 0 0 0 0 0 0
0 0 0 0 0 0 0 0 0 0 1 2 1 1 1 1 1 4 7 10 12 14 16 15 12 11 9 8 7 6 4 2 0 0 0 0 0 0 0 0 0 0 0 0 0 0 0 0 0
0 0 0 0 0 0 0 0 0 0 1 1 0 0 0 0 0 1 3 4 5 7 8 7 5 4 3 2 2 1 1 1 0 0 0 0 0 0 0 0 0 0 0 0 0 0 0 0 0
0 0 0 0 0 0 0 0 0 0 0 0 0 0 0 0 0 0 1 1 2 3 3 2 1 0 0 0 0 0 0 0 0 0 0 0 0 0 0 0 0 0 0 0 0 0 0 0 0
0 0 0 0 0 0 0 0 0 0 0 0 0 0 0 0 0 0 0 0 1 1 1 0 0 0 0 0 0 0 0 0 0 0 0 0 0 0 0 0 0 0 0 0 0 0 0 0 0
0 0 0 0 0 0 0 0 0 0 0 0 0 0 0 0 0 0 0 0 0 0 0 0 0 0 0 0 0 0 0 0 0 0 0 0 0 0 0 0 0 0 0 0 0 0 0 0 0
0 0 0 0 0 0 0 0 0 0 0 0 0 0 0 0 0 0 0 0 0 0 0 0 0 0 0 0 0 0 0 0 0 0 0 0 0 0 0 0 0 0 0 0 0 0 0 0 0

GEFSSGP_con_prob3kmehi_078.txt.gz
EHI
0 0 0 0 0 0 0 0 0 0 0 0 0 0 0 0 0 1 9 29 57 71 60 39 32 37 43 54 71 84 88 86 82 78 73 66 55 42 29 18 13 12 12 10 6 4 3 3 3
0 0 0 0 0 0 0 0 0 0 0 0 0 0 0 0 0 4 20 46 68 73 57 39 38 45 52 64 79 89 91 90 88 86 81 75 67 56 40 24 15 13 11 9 7 5 3 2 1
0 0 0 0 0 0 0 0 0 0 0 0 0 0 0 0 1 12 38 66 78 71 53 43 45 53 63 75 88 95 96 96 95 94 91 86 81 72 53 34 21 14 10 9 7 5 3 2 1
0 0 0 0 0 0 0 0 0 0 0 0 0 0 0 1 6 24 54 75 75 60 43 40 47 53 63 78 92 98 99 99 99 98 97 93 88 79 62 44 29 18 12 9 6 5 3 2 1
0 0 0 0 0 0 0 0 0 0 0 0 0 0 1 6 17 38 61 70 64 48 33 33 42 48 56 72 87 96 99 100 99 99 98 96 91 82 67 50 36 25 17 11 7 4 3 2 1
0 0 0 0 0 0 0 0 0 0 0 0 0 0 2 12 28 47 57 55 47 37 29 29 32 35 42 57 75 88 95 98 98 97 97 94 89 81 69 53 41 30 21 13 7 3 2 2 1
0 0 0 0 0 0 0 0 0 0 0 0 0 0 4 19 39 52 54 47 37 29 25 21 19 18 24 36 55 73 86 92 93 94 93 89 82 71 57 46 38 29 19 11 6 2 1 2 2
0 0 0 0 0 0 0 0 0 0 0 0 0 0 8 27 49 62 66 58 44 31 22 15 11 9 9 15 31 50 65 74 77 78 75 68 57 44 31 26 26 20 11 5 2 1 0 1 2
0 0 0 0 0 0 0 0 0 0 0 0 0 1 12 34 56 73 83 79 63 44 27 15 11 8 4 4 12 23 34 43 45 44 42 34 23 14 9 11 14 11 4 2 0 0 0 0 1
0 0 0 0 0 0 0 0 0 0 0 0 0 2 13 32 53 70 84 86 76 58 37 20 12 9 5 4 6 9 13 18 19 19 17 12 6 2 3 8 9 6 2 1 0 0 0 0 0
0 0 0 0 0 0 0 0 0 0 0 0 0 2 11 25 41 56 68 74 71 59 41 24 14 10 7 6 7 9 11 13 14 15 13 9 6 3 3 4 5 4 1 1 1 0 0 0 0
0 0 0 0 0 0 0 0 0 0 1 1 0 2 8 17 27 38 48 55 57 52 40 27 18 15 12 11 11 12 14 16 19 20 16 10 6 3 1 1 2 1 0 0 0 0 0 0 0
0 0 0 0 0 0 0 0 0 1 2 2 1 2 6 11 16 25 36 44 47 44 37 29 23 21 22 21 19 17 17 16 19 21 16 10 7 3 2 3 2 1 0 0 0 0 1 1 0
0 0 0 0 0 0 0 0 0 1 3 3 4 5 6 8 11 20 33 41 44 41 36 33 28 27 30 31 27 23 20 17 17 17 14 9 7 6 5 4 3 1 1 1 1 1 3 3 2
0 0 0 0 0 0 0 0 1 2 3 4 6 8 10 11 13 20 30 37 38 38 37 35 32 31 33 34 31 25 20 17 17 16 12 9 8 8 7 4 3 4 4 4 4 7 9 9 7
0 0 0 0 0 0 0 0 1 3 4 5 7 9 13 16 20 23 27 31 32 33 38 38 34 33 36 36 33 28 25 22 20 18 14 11 11 11 8 6 7 10 10 10 12 16 17 15 13
0 0 0 0 0 0 1 2 5 6 6 7 10 13 18 23 28 30 29 30 30 34 41 42 39 39 41 42 40 37 36 33 28 24 20 16 15 14 11 10 13 16 18 19 22 24 23 19 18
0 0 0 0 0 1 2 6 11 13 12 14 19 24 28 32 37 39 36 32 32 37 44 45 46 49 52 52 49 47 46 43 37 33 30 25 21 20 19 18 18 21 25 28 30 27 23 18 17
0 0 0 0 0 1 3 7 13 17 19 23 28 33 36 39 41 43 42 37 35 39 44 47 53 60 65 65 62 58 54 49 43 39 36 30 26 27 27 24 21 23 26 29 29 24 17 13 11
0 0 0 0 0 1 2 5 9 14 20 25 30 34 37 39 41 43 45 45 44 44 46 49 56 65 71 73 71 69 63 51 42 37 33 27 25 26 25 21 18 19 22 22 20 17 12 8 7
0 0 0 0 0 0 1 2 4 8 15 21 27 31 32 34 36 39 45 49 50 49 49 52 59 68 74 74 73 71 62 47 34 27 22 18 16 15 14 11 9 11 13 12 11 9 8 6 3
0 0 0 0 0 0 0 1 2 4 10 16 22 26 27 27 29 32 36 41 44 46 50 54 61 67 71 71 67 61 49 33 22 16 12 10 8 6 4 3 3 4 4 4 4 4 4 3 1
0 0 0 0 0 0 0 0 0 2 6 10 14 18 19 20 21 23 25 28 30 36 44 50 54 56 57 59 56 46 31 18 12 9 6 4 3 2 1 0 1 1 0 1 1 1 1 1 0
0 0 0 0 0 0 0 0 0 2 4 5 8 10 11 12 14 15 17 18 19 23 29 36 39 40 40 41 39 31 19 11 8 5 2 1 1 0 0 0 0 0 0 0 0 0 0 0 0
0 0 0 0 0 0 0 1 2 3 3 3 4 5 6 7 8 10 11 12 14 15 16 19 22 24 24 24 22 18 13 8 5 3 1 0 0 0 0 0 0 0 0 0 0 0 0 0 0
0 0 0 0 0 0 0 2 5 3 2 1 1 2 3 4 4 5 7 8 10 10 10 10 11 12 12 11 9 8 7 4 2 1 0 0 0 0 0 0 0 0 0 0 0 0 0 0 0
0 0 0 0 0 0 0 2 3 2 0 0 0 1 2 2 1 2 4 5 5 5 6 6 6 6 5 4 2 2 1 1 0 0 0 0 0 0 0 0 0 0 0 0 0 0 0 0 0
0 0 0 0 0 0 0 1 1 1 0 0 0 0 0 0 0 0 1 2 2 2 2 2 2 2 1 1 0 0 0 0 0 0 0 0 0 0 0 0 0 0 0 0 0 0 0 0 0
0 0 0 0 0 0 0 1 2 2 1 0 0 0 0 0 0 0 0 0 0 0 0 0 0 0 0 0 0 0 0 0 0 0 0 0 0 0 0 0 0 0 0 0 0 0 0 0 0
0 0 0 0 0 0 1 2 3 3 2 1 0 0 0 0 0 0 0 0 0 0 0 0 0 0 0 0 0 0 0 0 0 0 0 0 0 0 0 0 0 0 0 0 0 0 0 0 0

GEFSSGP_con_prob3kmehi_084.txt.gz
EHI
0 0 0 0 0 0 0 0 0 0 0 0 0 0 1 2 3 2 10 42 83 100 99 99 96 80 49 21 8 4 4 4 3 1 1 1 1 1 2 2 1 0 0 0 0 0 1 2 2
0 0 0 0 0 0 0 0 0 0 0 0 0 0 0 1 2 6 25 61 90 99 98 98 97 82 55 29 14 9 7 5 3 3 4 4 3 3 3 2 1 0 0 0 0 0 0 1 1
0 0 0 0 0 0 0 0 0 0 0 0 0 0 0 0 3 17 49 81 96 95 93 95 96 88 66 41 24 16 11 9 8 8 10 9 9 9 7 4 1 0 0 0 0 0 0 0 0
0 0 0 0 0 0 0 0 0 0 0 0 1 2 4 5 14 34 63 86 92 86 84 87 92 91 75 52 35 25 21 19 19 20 20 18 16 15 12 6 1 0 0 0 0 0 0 0 0
0 0 0 0 0 0 0 0 0 0 0 0 3 8 11 16 30 47 62 77 81 78 76 78 88 91 78 61 46 39 37 37 37 37 35 31 27 24 18 7 1 0 0 0 0 0 0 0 0
0 0 0 0 0 0 0 0 0 0 0 0 4 12 17 23 36 46 51 58 68 75 72 70 79 82 74 62 54 51 51 53 54 52 50 46 40 33 23 11 4 1 1 0 0 0 0 0 0
0 0 0 0 0 0 0 0 0 0 0 0 4 12 19 26 32 35 35 40 58 73 67 56 57 61 57 53 53 55 57 59 60 58 57 52 44 32 22 13 7 4 2 1 0 0 0 0 0
0 0 0 0 0 0 0 0 0 0 0 0 3 11 22 27 26 25 25 33 54 68 56 38 34 36 34 33 37 44 51 54 51 49 47 41 30 19 13 11 10 8 4 1 0 0 0 0 0
0 0 0 0 0 0 0 0 0 0 0 0 3 11 21 24 21 22 27 38 58 66 48 28 21 18 14 15 19 25 31 34 31 25 25 20 11 6 6 14 20 16 8 3 1 1 0 0 0
0 0 0 0 0 0 0 0 0 0 0 1 5 11 17 18 17 21 32 48 63 64 47 30 21 13 8 11 13 12 11 11 9 7 6 5 3 3 11 25 31 22 11 5 2 2 1 0 0
0 0 0 0 0 0 0 0 0 0 0 1 5 11 15 16 16 20 34 53 65 61 50 40 30 18 15 18 16 10 6 4 3 3 3 2 3 7 19 31 31 20 10 4 3 3 2 1 1
0 0 0 0 0 0 0 0 0 1 1 1 5 11 15 15 16 21 36 56 66 60 54 55 48 37 37 37 24 12 10 9 9 11 10 7 5 8 18 26 24 14 8 6 6 4 3 3 3
0 0 0 0 0 0 0 0 1 2 2 3 6 11 14 14 16 24 41 60 67 62 61 69 71 67 70 63 41 25 24 22 23 26 23 15 10 9 17 24 23 14 11 14 13 8 7 7 6
0 0 0 0 0 0 0 1 2 3 3 4 7 11 12 12 16 27 44 61 71 71 73 80 86 88 89 80 61 48 45 41 42 45 41 30 24 24 29 33 31 21 18 22 22 17 15 13 11
0 0 0 0 0 0 1 2 4 4 4 6 8 10 13 14 18 30 47 66 78 83 85 87 89 90 93 87 74 63 57 55 59 64 60 48 44 47 48 45 40 31 27 31 32 27 24 19 16
0 0 0 0 0 0 1 3 5 5 7 9 11 13 15 17 24 38 58 75 86 91 93 90 88 90 94 91 79 66 62 65 72 76 73 62 59 63 63 56 49 42 41 41 36 31 29 25 20
0 0 0 0 0 0 2 5 7 9 11 14 14 15 18 24 35 51 67 80 88 92 94 91 89 91 93 89 80 72 72 77 82 83 78 70 65 67 68 62 57 53 52 48 37 33 32 27 22
0 0 0 0 0 2 5 10 14 14 16 19 19 20 28 39 50 59 67 76 84 91 93 91 90 90 89 86 82 82 83 84 84 81 77 70 64 62 61 58 56 54 53 49 41 34 30 24 19
0 0 0 0 1 4 9 16 21 23 25 31 34 37 45 55 61 63 65 71 79 86 89 88 87 88 87 86 87 89 88 82 76 70 65 60 55 52 50 49 52 52 49 45 39 32 26 19 14
0 0 0 0 1 5 11 16 22 28 36 44 50 53 57 61 61 61 63 67 73 78 79 77 77 81 83 84 87 89 84 74 64 55 47 42 38 36 35 38 44 45 40 36 31 26 20 14 10
0 0 0 0 1 3 7 10 16 26 37 47 53 55 55 53 51 52 55 59 63 66 67 65 67 72 75 76 80 81 75 64 52 40 30 24 22 20 19 22 27 29 27 22 19 15 10 7 6
0 0 0 0 0 1 1 4 10 21 31 39 44 45 41 37 35 37 40 43 45 49 53 56 59 63 64 66 69 69 63 51 38 26 17 13 12 10 9 10 13 14 13 10 8 5 3 1 1
0 0 1 0 0 0 0 2 8 19 25 28 29 30 26 22 20 22 24 26 28 32 37 43 46 49 51 52 53 53 47 36 24 16 11 8 6 6 5 5 6 6 5 3 2 1 0 0 0
0 0 0 0 0 0 0 2 11 22 25 20 18 17 14 11 11 11 13 15 17 20 23 27 31 33 35 36 36 35 29 22 15 10 6 3 2 2 2 2 2 1 1 0 0 0 0 0 0
0 0 0 0 0 0 3 10 24 34 30 19 13 11 9 7 7 8 9 10 11 13 13 15 18 20 21 21 22 21 17 13 10 6 3 0 0 0 0 0 0 0 0 0 0 0 0 0 0
0 0 0 0 0 1 7 21 37 40 29 17 11 9 8 8 8 8 9 9 9 9 10 11 11 13 14 13 13 11 9 6 4 2 1 0 0 0 0 0 0 0 0 0 0 0 0 0 0
0 0 0 0 0 1 6 19 29 28 21 15 12 9 7 5 5 5 6 6 6 7 8 9 8 8 8 8 6 4 3 2 1 0 0 0 0 0 0 0 0 0 0 0 0 0 0 0 0
0 0 0 0 0 0 2 7 11 14 14 11 9 7 4 2 1 1 2 2 2 3 4 4 4 4 3 2 1 0 0 0 0 0 0 0 0 0 0 0 0 0 0 0 0 0 0 0 0
0 0 0 0 0 0 0 1 4 9 9 6 4 2 1 0 0 0 0 0 0 1 1 1 1 1 0 0 0 0 0 0 0 0 0 0 0 0 0 0 0 0 0 0 0 0 0 0 0
0 0 0 0 0 0 0 1 4 8 7 4 1 0 0 0 0 0 0 0 0 0 0 0 0 0 0 0 0 0 0 0 0 0 0 0 0 0 0 0 0 0 0 0 0 0 0 0 0

GEFSSGP_con_prob3kmehi_090.txt.gz
EHI
0 0 0 0 0 0 0 0 0 0 0 0 0 0 0 0 2 4 9 23 45 55 44 37 41 47 44 33 21 14 11 12 12 12 11 8 6 5 3 1 1 1 1 0 0 0 0 0 1
0 0 0 0 0 0 0 0 0 0 0 0 0 0 0 0 3 9 17 34 57 64 52 43 47 51 45 32 21 14 8 6 5 5 5 4 3 2 1 0 0 0 0 0 0 0 0 1 2
0 0 0 0 0 0 0 0 0 0 0 0 0 0 0 0 4 15 33 55 72 75 64 56 58 59 47 33 23 16 7 2 0 0 0 0 0 0 0 0 0 0 0 0 0 0 0 1 2
0 0 0 0 0 0 0 0 0 0 0 0 1 1 2 4 13 31 56 73 80 80 74 69 69 66 53 38 27 19 9 2 0 0 0 0 0 0 0 0 0 0 0 0 0 0 0 0 1
0 0 0 0 0 0 0 0 0 0 0 1 2 3 5 13 31 55 72 80 83 84 79 74 73 69 58 44 32 23 12 4 1 0 0 0 0 0 0 0 0 0 0 0 0 0 0 0 0
0 0 0 0 0 0 0 0 0 0 0 2 5 7 10 23 46 65 73 78 82 84 81 74 69 65 57 46 37 26 14 8 4 2 1 0 0 0 0 0 0 0 0 0 0 0 0 0 0
0 0 0 0 0 0 0 0 0 0 0 2 7 11 17 32 51 62 68 74 78 81 81 74 63 55 49 43 36 28 18 12 8 5 3 1 0 0 0 0 0 0 0 0 0 0 0 0 0
0 0 0 0 0 0 0 0 0 0 1 3 8 14 23 37 53 63 68 71 72 73 76 73 62 52 43 36 32 28 22 16 11 7 4 2 0 0 0 0 0 0 0 0 0 0 0 0 0
0 0 0 0 0 0 0 0 0 0 1 5 10 19 30 43 58 69 73 71 66 64 66 67 62 55 45 36 31 28 22 17 12 8 4 2 0 0 0 0 0 0 0 0 0 0 0 0 0
0 0 0 0 0 0 0 0 0 0 1 6 15 27 38 47 57 70 74 68 61 59 57 56 55 53 49 44 39 31 21 15 10 7 4 2 0 0 0 0 0 0 0 0 0 0 0 0 0
0 0 0 0 0 0 0 1 2 2 2 7 18 31 40 44 51 63 67 61 54 51 49 45 44 44 45 47 43 32 20 12 7 5 3 1 0 0 0 0 0 0 1 0 0 0 0 0 0
0 0 0 0 0 0 0 2 3 3 3 7 18 30 37 39 44 55 61 55 45 40 39 38 37 36 36 39 36 28 19 11 5 3 2 1 0 0 0 0 0 0 0 0 0 0 0 0 0
0 0 0 0 0 0 0 1 3 3 4 9 18 27 33 36 41 51 57 53 43 37 36 35 35 32 31 30 27 22 15 9 4 3 2 1 0 0 0 0 0 0 0 0 0 0 0 0 0
0 0 0 0 0 0 0 1 2 4 7 12 17 24 31 35 41 50 55 53 46 40 36 34 31 29 28 25 20 16 12 7 4 3 2 1 0 0 0 0 0 0 0 0 0 0 0 0 0
0 0 0 0 0 0 0 0 2 5 10 15 18 23 29 33 35 42 50 50 44 39 35 31 28 26 25 22 17 12 9 7 4 2 1 1 1 0 0 1 1 0 0 0 0 0 0 0 0
0 0 0 0 0 0 0 0 2 6 13 19 19 22 27 29 29 33 40 43 39 34 32 30 29 27 24 22 18 14 12 10 7 4 2 2 1 1 1 2 1 0 0 0 0 0 0 0 0
0 0 0 0 0 1 1 2 6 12 19 23 24 25 28 30 30 31 34 38 36 33 31 31 33 33 31 31 28 23 18 14 9 6 4 3 2 1 2 2 1 1 1 0 0 0 0 0 0
0 0 0 0 1 3 5 9 16 24 29 30 31 32 33 33 33 32 33 35 36 33 31 31 34 38 41 45 43 35 25 15 9 6 4 2 1 2 2 2 1 2 2 1 1 0 0 0 0
0 0 0 1 4 9 14 21 30 35 38 38 36 36 35 34 32 31 30 31 33 33 31 30 33 38 46 51 48 40 28 17 9 5 4 3 2 2 3 3 3 4 4 3 2 1 1 0 0
0 0 0 3 9 16 22 29 34 35 36 36 34 31 30 29 26 25 26 25 27 29 29 29 30 35 41 43 40 35 27 18 10 6 4 3 3 4 5 5 4 4 4 3 3 3 2 1 0
0 0 2 6 10 14 20 24 25 24 24 24 22 20 20 20 18 18 18 17 19 22 25 26 26 28 31 32 30 27 23 16 9 6 4 3 3 4 4 4 4 3 3 3 3 2 2 1 0
0 0 2 5 6 6 8 10 12 13 15 15 12 10 11 12 12 11 10 10 11 15 19 20 20 21 22 23 23 21 17 11 6 5 4 3 3 3 3 3 3 3 3 2 1 1 1 0 0
0 0 1 2 2 1 1 1 3 8 11 12 10 8 8 9 9 8 6 5 6 10 13 14 15 15 15 17 17 15 11 7 4 5 5 4 3 2 2 2 2 2 1 1 0 0 0 0 0
0 0 0 0 0 0 0 0 1 3 7 10 11 9 8 9 8 7 6 5 6 9 10 10 10 10 9 11 12 9 6 4 4 4 4 3 1 1 1 1 1 1 0 0 0 0 0 0 0
0 0 0 0 0 0 0 0 0 1 4 8 9 8 8 7 7 6 6 6 6 7 7 7 7 6 5 5 6 5 4 3 3 3 2 1 0 0 0 0 0 0 0 0 0 0 0 0 0
0 0 0 0 0 0 0 0 0 1 3 5 5 5 4 4 4 5 5 4 4 4 4 4 4 5 3 3 3 3 3 3 2 1 0 0 0 0 0 0 0 0 0 0 0 0 0 0 0
0 0 0 0 0 0 0 0 0 1 3 3 2 1 1 1 2 2 2 2 3 3 3 3 3 3 3 2 2 2 2 1 1 0 0 0 0 0 0 0 0 0 0 0 0 0 0 0 0
0 0 0 0 0 0 0 0 0 1 2 2 1 0 0 0 0 0 0 1 2 2 2 2 2 2 2 1 1 1 1 0 0 0 0 0 0 0 0 0 0 0 0 0 0 0 0 0 0
0 0 0 0 0 0 0 0 0 1 1 1 0 0 0 0 0 0 0 0 1 1 1 1 1 0 0 0 0 0 0 0 0 0 0 0 0 0 0 0 0 0 0 0 0 0 0 0 0
0 0 0 0 0 0 0 0 0 0 0 0 0 0 0 0 0 0 0 0 0 0 0 0 0 0 0 0 0 0 0 0 0 0 0 0 0 0 0 0 0 0 0 0 0 0 0 0 0

GEFSSGP_con_prob3kmehi_096.txt.gz
EHI
0 0 0 0 0 0 0 0 0 0 0 0 0 0 0 0 0 1 1 12 37 57 58 49 41 40 50 67 79 83 84 85 84 84 80 71 58 45 32 19 8 3 1 0 0 1 1 1 0
0 0 0 0 0 0 0 0 0 0 0 0 0 0 0 0 1 1 3 17 46 67 66 54 45 44 53 70 81 83 82 80 79 77 72 63 51 40 28 16 6 2 1 0 0 0 0 0 0
0 0 0 0 0 0 0 0 0 0 0 0 0 0 0 1 1 2 8 28 56 74 73 61 53 51 58 72 81 81 77 73 71 68 63 55 44 32 23 12 4 1 0 0 0 0 0 0 0
0 0 0 0 0 0 0 0 0 0 0 0 0 0 1 2 4 9 22 44 65 74 71 66 62 59 63 72 77 76 72 67 65 62 56 47 36 26 18 9 2 0 0 0 0 0 1 1 0
0 0 0 0 0 0 0 0 0 0 0 0 1 1 2 6 14 25 40 59 72 75 70 68 70 66 64 67 70 70 67 64 61 57 48 36 27 20 13 5 1 0 0 0 0 1 2 2 1
0 0 0 0 0 0 0 0 0 0 0 1 2 4 7 14 26 40 55 67 75 76 73 70 70 65 59 59 62 65 64 60 56 50 39 27 19 13 8 3 0 0 0 0 0 1 2 2 1
0 0 0 0 0 0 0 0 0 0 0 1 3 6 12 24 39 52 64 73 77 78 77 72 64 56 51 51 56 60 60 54 48 40 29 18 13 8 4 1 0 0 0 0 0 0 1 1 0
0 0 0 0 0 0 0 0 0 0 0 2 4 5 14 34 54 63 69 74 78 79 74 67 61 55 50 48 49 50 51 47 39 30 21 13 9 5 2 0 0 0 0 0 0 0 0 0 0
0 0 0 0 0 0 0 0 0 0 1 3 5 8 20 45 66 72 71 71 75 75 66 60 60 61 58 53 47 44 43 41 34 25 17 11 7 4 2 1 0 0 0 0 0 0 0 0 0
0 0 0 0 0 0 0 0 0 0 1 4 10 18 35 55 67 71 71 70 71 71 63 55 56 63 64 60 56 53 49 44 35 25 16 10 5 4 3 2 1 1 0 0 0 0 0 0 0
0 0 0 0 0 1 1 1 0 0 1 3 12 27 45 57 61 64 68 69 70 69 63 53 51 58 63 64 64 62 57 51 40 27 17 11 6 4 4 3 2 2 1 0 0 0 0 0 0
0 0 0 0 1 2 2 1 1 2 2 4 13 30 47 54 54 55 59 64 67 67 62 51 48 53 59 63 64 62 58 53 42 28 19 15 10 5 3 3 2 1 0 0 0 0 0 0 0
0 0 0 0 1 1 1 1 2 3 5 9 17 31 44 49 48 47 50 54 58 59 56 49 46 51 56 60 60 57 53 49 39 28 21 17 11 4 1 1 1 0 0 1 1 0 0 0 0
0 0 0 0 0 0 0 1 3 5 7 12 18 27 37 42 41 43 46 47 47 48 48 47 44 45 50 54 54 50 46 42 35 28 22 16 8 2 0 0 0 0 0 1 1 0 0 0 0
0 0 0 0 0 0 0 1 3 6 7 9 14 20 28 33 35 38 43 42 39 39 41 43 42 39 39 42 43 40 37 34 31 27 22 15 7 2 0 0 0 0 0 0 0 0 0 0 0
0 0 0 0 0 0 0 2 5 7 6 7 10 16 22 26 29 31 34 35 34 34 35 36 35 32 29 30 30 28 26 24 23 21 18 12 7 3 1 0 0 0 0 0 0 0 0 0 0
0 0 0 0 0 0 0 2 4 6 6 7 9 14 18 20 21 21 22 27 30 30 29 28 26 25 25 24 22 19 16 15 15 14 11 8 6 4 2 1 0 0 0 0 0 0 0 0 0
0 0 0 0 0 0 1 2 3 5 8 9 8 10 12 12 13 12 13 20 26 26 25 23 21 21 22 22 18 15 12 11 10 8 5 4 3 3 3 1 0 0 0 0 0 0 0 0 0
0 0 0 0 0 1 2 4 5 6 8 9 9 8 7 7 8 9 10 16 23 23 20 18 18 18 19 20 17 15 13 10 8 5 3 1 1 2 3 2 1 1 0 0 0 0 0 0 0
0 0 0 0 0 1 2 4 4 5 5 6 7 6 5 4 6 8 10 15 21 22 18 15 16 17 17 16 15 13 11 9 5 3 3 1 0 1 2 3 3 2 1 1 1 1 1 0 0
0 0 0 0 0 1 1 1 1 1 2 3 4 5 4 4 5 8 10 13 17 19 18 17 16 15 14 11 11 11 10 7 4 2 2 1 0 0 1 2 3 3 3 2 2 2 1 0 0
0 0 0 1 0 0 1 0 0 0 1 2 3 4 6 7 6 7 9 10 13 15 16 15 15 13 10 9 10 10 9 6 3 2 1 1 0 0 0 1 3 3 3 3 3 2 1 0 0
0 0 0 0 0 0 0 0 0 0 0 1 2 4 6 7 7 7 7 8 9 10 10 11 11 10 8 8 9 9 8 5 3 2 1 0 0 0 0 1 2 2 2 2 2 2 1 0 0
0 0 0 0 0 0 0 0 0 0 0 0 1 1 2 4 5 5 6 6 6 6 6 7 7 8 8 8 8 7 5 4 3 3 2 1 1 0 0 0 1 1 1 1 1 1 0 0 0
0 0 0 0 0 0 0 0 0 0 0 0 0 0 0 1 2 3 3 3 3 2 3 4 6 6 6 6 4 3 3 3 3 3 3 2 1 0 0 0 0 0 0 0 0 0 0 0 0
0 0 0 0 0 0 0 0 0 0 0 0 1 1 0 0 0 1 1 1 1 0 1 3 4 4 3 2 1 1 1 3 3 3 3 2 1 0 0 0 0 0 0 0 0 0 0 0 0
0 0 0 0 0 0 0 0 0 0 0 0 1 1 0 0 0 0 0 0 0 0 1 2 2 1 1 0 0 0 1 2 3 3 2 1 0 0 0 0 0 0 0 0 0 0 0 0 0
0 0 0 0 0 0 0 0 0 0 0 0 1 1 0 0 0 0 0 0 0 0 0 1 1 0 0 0 0 0 1 2 2 1 1 0 0 0 0 0 0 0 0 0 0 0 0 0 0
0 0 0 0 0 0 0 0 0 0 0 0 0 0 0 0 0 0 0 0 0 0 0 0 0 0 0 0 0 0 1 1 1 0 0 0 0 0 0 0 0 0 0 0 0 0 0 0 0
0 0 0 0 0 0 0 0 0 0 0 0 0 0 0 0 0 0 0 0 0 0 0 0 0 0 0 0 0 0 1 0 0 0 0 0 0 0 0 0 0 0 0 0 0 0 0 0 0

GEFSSGP_con_prob3kmehi_102.txt.gz
EHI
0 0 0 0 0 0 0 0 0 0 0 0 0 0 0 0 1 2 2 8 30 56 66 65 65 65 63 65 72 77 77 75 72 62 48 39 33 25 16 11 8 6 7 8 4 2 6 10 12
0 0 0 0 0 0 0 0 0 0 0 0 0 0 0 0 1 3 6 15 36 58 66 67 71 72 71 74 79 84 84 81 76 68 56 47 39 30 22 15 10 9 9 8 4 2 3 6 8
0 0 0 0 0 0 0 0 0 0 0 0 0 0 0 1 2 6 13 27 45 60 65 72 80 80 78 81 85 89 90 87 82 75 64 54 45 36 27 18 14 12 10 7 3 1 1 2 3
0 0 0 0 0 0 0 0 0 0 0 0 0 0 0 1 5 13 24 36 50 58 61 71 83 84 81 82 84 87 89 88 85 80 70 59 50 42 32 22 16 13 10 5 2 0 0 1 1
0 0 0 0 0 0 0 0 0 0 0 0 0 0 1 3 10 21 30 36 46 53 58 67 79 82 81 81 82 84 87 88 86 82 75 65 56 48 38 28 20 15 11 7 2 1 1 0 0
0 0 0 0 0 0 0 0 0 0 0 0 0 0 2 8 16 24 29 31 38 50 60 68 73 74 75 76 77 80 85 88 85 81 74 67 58 51 43 33 23 17 12 8 4 2 2 1 0
0 0 0 0 0 0 0 0 0 0 0 1 1 1 5 15 24 29 30 31 38 52 63 67 65 61 60 62 67 74 81 82 80 75 69 63 55 49 42 34 25 18 12 8 4 2 1 0 0
0 0 0 0 0 0 0 0 0 0 1 3 3 3 10 23 36 40 42 44 47 54 60 60 56 49 40 40 52 64 69 69 66 62 57 50 41 34 29 27 27 20 12 7 4 2 0 0 0
0 0 0 0 0 0 0 0 1 1 3 5 5 6 16 30 41 49 54 56 56 56 55 54 53 44 28 27 39 46 45 45 42 38 37 31 21 16 17 26 31 22 11 6 3 2 1 0 0
0 0 0 0 0 0 1 1 1 1 3 4 5 9 19 31 41 49 56 59 59 58 52 51 54 47 33 33 40 36 28 25 20 19 22 20 15 12 16 28 29 17 8 5 3 2 1 0 0
0 0 0 0 0 1 2 2 2 2 2 3 5 10 18 29 38 44 51 56 60 59 54 52 56 53 45 46 49 43 35 31 25 24 27 29 27 21 20 23 21 12 6 3 2 1 1 0 0
0 0 0 0 0 1 2 2 2 3 4 5 7 11 17 24 32 39 46 54 59 60 58 57 58 58 56 57 58 54 50 46 44 43 43 43 39 29 22 22 19 12 6 2 1 1 0 0 0
0 0 0 0 0 1 1 1 2 5 7 8 9 11 15 19 26 34 43 49 54 58 60 59 59 60 62 66 65 59 55 54 57 57 53 48 44 35 29 29 27 16 7 4 2 1 1 1 1
0 0 0 0 0 0 0 0 2 5 8 9 10 11 13 17 24 35 43 47 51 54 56 56 55 55 60 65 66 62 59 61 63 63 57 48 43 40 36 34 30 19 10 8 4 2 2 3 3
0 0 0 0 0 0 0 1 2 4 7 9 10 11 13 17 25 37 47 49 50 49 48 48 48 48 54 59 62 62 62 65 68 66 59 48 42 42 41 36 31 23 17 15 11 7 6 6 6
0 0 0 0 0 0 0 1 2 5 8 11 11 12 14 19 26 37 46 49 48 46 43 41 42 47 53 57 60 62 62 63 65 63 58 50 42 40 41 39 33 29 26 22 19 16 12 9 9
0 0 0 0 0 0 0 1 2 5 9 12 13 15 16 18 23 32 40 42 43 45 44 41 42 47 51 54 57 58 58 57 56 54 52 48 42 38 38 37 35 33 31 27 23 22 19 13 10
0 0 0 0 0 0 0 0 1 4 7 9 12 16 17 16 19 25 31 35 38 42 44 42 41 42 45 48 51 51 49 46 45 44 41 40 36 33 32 31 31 31 31 28 25 24 20 14 10
0 0 0 0 0 0 0 0 1 3 5 7 9 12 13 12 12 17 23 29 33 35 37 36 35 36 40 43 46 45 40 35 34 33 31 30 28 25 24 25 27 29 30 28 23 20 17 13 10
0 0 0 0 0 0 0 0 1 3 4 5 8 10 10 7 7 11 18 25 29 30 31 32 33 34 36 38 41 38 31 26 24 24 23 24 22 18 16 21 25 28 29 25 20 17 14 11 9
0 0 1 1 1 0 0 1 1 2 3 4 7 9 8 6 6 8 12 18 24 28 30 32 33 34 34 34 33 30 24 21 20 20 18 17 16 13 13 15 19 23 24 21 17 15 12 9 7
0 0 1 1 1 0 0 0 0 1 1 2 5 8 8 7 7 7 9 13 17 23 27 28 29 30 30 30 30 26 21 19 18 16 12 11 10 10 10 11 13 17 18 16 14 12 10 8 6
0 0 0 0 0 0 0 0 0 0 0 1 3 5 6 7 7 8 9 11 12 15 20 23 25 26 26 26 26 23 19 16 14 10 6 5 6 7 8 9 9 10 11 10 9 9 8 7 6
0 0 0 0 0 0 0 0 0 0 1 1 2 3 4 5 6 8 10 10 9 10 14 17 19 20 20 20 19 17 14 12 10 6 3 2 3 4 5 6 5 5 5 5 5 5 6 6 6
0 0 0 0 0 0 0 0 0 0 1 1 1 1 2 3 3 6 8 7 6 6 8 10 10 11 13 13 13 12 10 10 9 5 2 1 1 3 4 4 3 3 3 3 3 4 4 5 5
0 0 0 0 0 0 0 0 1 1 1 1 1 1 2 2 2 3 5 5 4 4 4 5 5 6 7 9 9 8 7 7 6 3 1 0 1 2 3 3 3 3 3 3 2 2 3 3 2
0 0 0 0 0 0 0 0 1 1 1 1 1 2 2 1 1 2 2 3 3 3 4 4 4 3 4 5 5 5 4 2 2 1 0 0 1 2 3 3 3 2 2 1 1 1 1 1 0
0 0 0 0 0 0 0 0 1 2 2 1 1 1 1 0 0 1 1 1 1 1 2 2 2 1 1 1 2 2 1 0 0 0 1 1 1 2 2 2 1 1 1 0 0 0 0 0 0
0 0 0 0 0 0 0 0 1 3 3 1 0 0 0 0 0 0 0 0 0 0 0 0 0 0 0 0 0 0 0 0 0 1 2 2 1 1 1 1 0 0 0 0 0 0 0 0 0
0 0 0 0 0 0 0 0 1 2 3 1 0 0 0 0 0 0 0 0 0 0 0 0 0 0 0 0 0 0 0 0 0 1 2 2 1 0 0 0 0 0 0 0 0 0 0 0 0

GEFSSGP_con_prob3kmehi_108.txt.gz
EHI
0 0 0 0 0 0 0 0 0 0 0 1 3 3 4 4 5 7 11 36 74 90 86 77 65 47 28 17 11 3 0 0 0 0 1 2 3 3 1 2 2 2 2 2 2 1 0 0 0
0 0 0 0 0 0 0 0 0 0 1 2 3 3 3 5 7 11 21 48 79 89 81 76 70 55 36 24 16 7 2 1 0 1 2 3 4 3 1 1 1 2 2 1 1 0 0 0 0
0 0 0 0 0 0 0 0 0 0 1 3 3 3 4 5 11 19 35 61 83 84 77 78 78 69 51 37 27 17 9 5 3 4 5 5 4 4 2 1 0 1 1 1 0 0 0 0 0
0 0 0 0 0 0 0 0 0 1 2 3 3 4 6 10 17 29 43 65 80 77 72 76 81 77 66 53 42 31 22 15 12 11 10 9 8 6 3 1 0 1 2 1 0 0 0 0 0
0 0 0 0 0 0 0 0 0 1 2 3 3 5 10 16 25 33 42 59 71 69 67 73 78 78 73 66 57 49 40 33 29 27 23 20 15 10 5 3 2 2 2 1 0 0 0 0 0
0 0 0 0 0 0 0 0 1 1 3 3 3 6 14 22 29 32 36 46 57 63 67 72 74 73 72 70 67 64 59 53 52 48 41 34 23 13 8 7 6 3 1 0 0 0 0 0 0
0 0 0 0 0 0 1 1 2 3 3 3 2 7 19 30 34 34 33 37 49 62 69 69 66 64 64 66 70 73 71 68 65 60 51 40 26 15 10 10 8 5 2 1 0 0 0 0 0
0 0 0 0 0 1 2 3 3 3 3 3 4 11 28 41 39 35 34 39 51 64 67 61 56 54 53 56 64 70 72 70 64 56 46 33 20 11 8 9 10 7 3 1 0 0 0 0 0
0 0 0 0 0 1 3 3 3 3 3 4 6 16 33 40 35 32 36 46 59 67 64 55 50 47 43 47 56 60 60 58 50 39 31 21 9 4 4 10 15 11 4 1 0 0 0 0 0
0 0 0 0 1 2 3 3 3 2 3 5 8 17 27 31 27 29 39 52 65 68 60 50 46 43 38 43 52 51 44 40 31 23 18 11 4 3 9 19 24 16 6 1 0 0 0 0 0
0 0 0 1 2 3 3 3 3 3 4 7 10 17 23 25 24 28 39 54 65 68 60 51 46 41 37 43 50 44 36 30 22 16 13 8 6 11 21 29 27 16 6 1 0 0 0 0 0
0 0 1 1 2 2 1 2 3 5 6 8 12 18 22 24 25 30 39 50 59 64 60 55 51 44 44 50 50 42 38 33 25 22 20 16 14 19 27 30 23 13 5 1 1 0 0 1 1
1 1 1 1 1 1 1 2 4 7 9 9 12 17 20 23 28 33 38 45 54 59 58 56 55 54 56 59 55 48 46 43 38 38 37 30 26 26 29 26 19 11 6 4 3 2 3 5 6
1 1 0 0 0 0 0 1 4 8 10 9 11 17 21 25 33 38 39 46 55 60 59 56 57 60 62 64 61 54 52 51 52 53 49 41 35 35 34 29 22 14 12 14 11 8 10 12 11
1 0 0 0 0 0 0 1 4 9 10 11 15 21 26 31 39 43 45 51 59 64 63 60 60 61 62 64 62 59 56 56 58 58 53 45 42 43 42 36 27 20 22 25 20 14 15 16 14
1 0 0 0 0 0 0 3 7 9 12 15 20 26 32 37 41 44 48 55 61 65 64 62 61 62 62 62 61 61 61 60 60 58 53 46 43 44 44 39 31 27 29 30 23 18 17 16 15
0 0 0 0 0 0 1 4 8 11 13 18 24 29 35 39 41 43 47 55 61 63 62 58 57 59 60 59 58 58 59 59 58 56 51 44 39 38 38 35 33 31 30 27 22 19 18 16 16
0 0 0 0 0 0 0 3 8 12 15 20 26 31 35 37 37 39 44 51 57 59 58 54 51 52 53 53 52 51 50 48 46 44 41 37 33 31 30 30 31 30 27 24 22 20 19 17 16
0 0 0 0 0 0 0 2 7 11 16 23 27 30 31 31 30 31 35 41 48 52 51 49 46 44 45 46 46 45 41 37 32 29 28 27 25 25 24 25 28 27 24 24 23 19 15 13 12
0 0 0 0 0 0 0 3 7 13 20 26 27 27 28 29 27 24 25 29 36 42 44 42 40 39 40 41 40 38 35 30 26 23 21 20 19 18 18 19 23 23 22 21 20 15 10 7 6
0 0 0 0 0 0 1 3 9 18 24 26 25 24 25 28 27 23 21 22 26 32 36 37 37 36 38 38 35 32 28 23 22 21 19 16 15 14 13 14 18 20 18 16 14 12 8 5 4
0 0 0 0 0 0 0 2 9 19 24 22 20 20 21 24 25 24 22 21 23 25 27 30 33 33 34 34 31 27 23 20 19 18 15 12 12 11 11 12 14 15 14 12 10 8 7 6 4
0 0 0 0 0 0 0 1 6 16 22 21 18 16 17 18 20 21 21 20 20 20 19 21 24 25 26 27 26 23 20 18 17 15 12 9 8 8 8 9 12 12 11 10 8 7 6 5 3
0 0 0 0 0 0 0 0 4 12 19 19 16 14 13 13 13 15 16 15 15 15 14 14 16 17 17 19 19 17 14 13 14 14 11 7 6 6 6 6 8 8 7 7 7 6 4 2 1
0 0 0 0 0 0 0 1 4 9 13 14 13 12 11 10 10 10 11 11 11 12 12 12 12 13 13 13 13 12 10 10 11 12 8 5 4 4 4 4 5 4 4 4 4 4 3 1 0
0 0 0 0 0 0 0 1 4 6 6 8 10 10 10 9 7 6 6 7 8 9 10 10 10 10 9 9 8 8 8 8 9 8 5 3 3 3 3 3 3 2 1 1 3 3 3 1 1
0 0 0 0 0 0 0 1 3 4 4 5 6 7 6 5 4 2 2 2 3 4 6 6 6 5 4 4 4 4 5 6 6 5 4 3 3 1 1 2 2 1 1 1 3 3 2 2 2
0 0 0 0 0 0 0 0 1 3 4 4 4 3 2 1 1 0 0 0 1 1 2 2 2 1 1 0 1 1 1 2 3 3 3 3 3 1 1 2 2 1 1 1 2 2 1 1 1
0 0 0 0 0 0 0 0 0 3 5 5 3 1 0 0 0 0 0 0 0 0 0 0 0 0 0 0 0 0 0 0 1 1 2 3 3 3 3 3 2 1 1 1 1 1 0 0 0
0 0 0 0 0 0 0 0 1 3 6 5 2 1 0 0 0 0 0 0 0 0 0 0 0 0 0 0 0 0 0 0 0 0 1 2 3 3 3 3 3 1 0 0 0 0 0 0 0

GEFSSGP_con_prob3kmehi_114.txt.gz
EHI
0 0 0 0 0 0 0 0 0 1 3 4 4 5 7 6 3 1 6 17 33 46 51 58 62 54 41 31 22 15 10 9 14 22 29 33 31 28 25 22 18 17 13 8 4 4 4 3 2
0 0 0 0 0 0 0 0 1 2 3 4 5 7 11 11 6 4 10 26 44 53 55 60 66 62 50 39 29 19 12 10 12 15 19 23 21 18 16 14 13 12 10 6 3 3 2 1 1
0 0 0 0 0 0 0 0 2 3 4 5 6 8 12 13 11 10 22 42 54 57 58 62 70 69 59 47 36 25 17 13 11 9 9 10 9 8 6 5 5 6 5 3 1 1 1 0 0
0 0 0 0 0 0 0 0 2 3 4 6 8 10 14 19 24 30 42 55 61 60 61 67 75 74 63 50 39 31 23 17 12 8 5 4 3 3 2 1 1 1 1 0 0 0 0 0 0
0 0 0 0 0 0 0 0 2 2 4 6 10 17 23 33 47 56 60 63 65 67 70 75 81 78 66 53 43 37 30 24 18 12 5 2 2 1 1 0 0 0 0 0 0 0 0 0 0
0 0 0 0 0 0 0 0 2 3 4 7 14 24 33 46 62 70 69 66 69 74 79 82 82 77 68 58 50 43 38 33 27 19 8 3 1 1 0 0 0 0 0 0 0 0 0 0 0
0 0 0 0 0 0 0 1 2 3 5 9 18 27 38 51 64 71 72 72 74 79 83 84 79 73 66 61 53 47 41 37 32 25 14 6 3 2 0 0 0 0 0 0 0 0 0 0 0
0 0 0 0 0 0 0 1 3 5 8 13 20 27 37 51 64 72 75 77 77 76 77 79 77 70 65 59 52 47 42 39 36 29 20 11 6 4 2 1 1 0 0 0 0 0 0 0 0
0 0 0 0 0 0 1 2 4 7 13 19 24 28 37 52 65 72 73 73 70 66 65 69 71 68 64 58 52 48 43 40 38 32 23 14 8 5 3 2 2 1 0 0 0 0 0 0 0
0 0 0 0 0 0 1 2 4 9 16 23 27 32 40 51 63 69 68 65 62 57 56 58 61 63 61 58 55 50 42 37 35 32 25 16 8 4 3 2 2 1 0 0 0 0 0 0 0
0 0 0 0 0 0 0 1 3 8 14 21 26 32 37 46 54 59 61 60 58 54 49 48 53 57 58 56 54 48 41 36 31 28 24 17 7 2 1 1 1 1 0 0 0 0 0 0 0
0 0 0 0 0 0 0 0 2 6 10 17 24 30 34 40 45 47 51 54 53 49 43 42 46 50 53 54 52 47 41 35 29 24 21 14 6 1 1 1 0 0 0 0 0 0 0 0 0
0 0 0 0 0 0 0 0 1 4 8 15 23 30 35 38 39 39 42 46 46 43 39 38 39 42 47 50 48 44 39 32 26 21 17 11 4 1 1 1 0 0 0 0 0 0 0 0 0
0 0 0 0 0 0 0 1 3 6 11 16 23 29 33 35 35 34 35 38 38 37 35 35 35 37 41 41 39 37 34 28 20 17 14 9 3 1 1 1 0 0 0 0 0 0 1 0 0
0 0 0 0 0 0 1 2 6 12 17 20 23 26 29 30 30 30 29 30 32 33 33 33 32 31 32 32 29 28 27 21 14 12 12 8 3 1 1 2 1 1 1 1 0 0 0 0 0
0 0 0 0 0 0 1 3 8 15 21 22 23 24 24 25 26 29 29 29 29 31 32 32 28 25 24 24 22 20 18 12 8 9 10 7 3 1 2 3 3 2 1 1 0 0 0 0 0
0 0 0 0 0 1 3 6 11 17 21 22 23 24 23 23 24 27 29 29 28 29 30 29 25 21 20 19 17 13 9 5 4 5 7 6 3 2 3 4 3 3 2 1 0 0 0 0 0
0 0 0 0 0 2 6 11 15 20 21 22 25 27 25 24 24 24 25 26 26 25 26 25 22 21 20 18 14 10 6 4 2 2 3 4 4 3 4 4 4 3 2 1 0 0 0 0 0
0 0 0 0 0 2 7 12 17 20 19 19 23 27 26 24 22 21 21 23 22 20 20 20 19 20 21 19 14 10 7 5 3 2 2 4 6 6 5 5 4 3 2 0 0 0 0 0 0
0 0 0 0 0 2 7 12 16 18 18 18 21 24 24 23 21 19 20 21 19 16 15 16 16 18 19 18 14 10 7 7 6 5 4 4 6 7 6 4 4 3 1 1 1 1 1 0 0
0 0 0 0 0 1 5 9 13 16 17 17 19 21 23 23 20 18 18 17 15 13 14 15 16 16 14 14 12 9 7 7 7 6 4 4 6 6 5 4 4 3 3 2 2 2 2 1 0
0 0 0 0 0 0 1 4 7 11 13 14 16 18 19 18 17 16 14 12 10 11 12 14 14 13 11 9 9 7 5 5 5 3 3 4 5 6 5 4 4 4 3 3 3 3 2 1 0
0 0 0 0 0 0 0 1 3 6 9 11 12 13 12 10 10 10 9 7 7 8 9 10 11 9 8 7 6 4 3 3 2 2 2 3 4 5 5 4 4 4 3 3 3 2 3 2 1
0 0 0 0 0 0 0 0 1 3 5 8 9 8 6 4 4 4 4 4 4 5 5 6 7 7 6 6 5 3 2 1 1 1 2 3 3 4 3 3 4 3 3 3 3 3 3 2 1
0 0 0 0 0 0 0 0 1 2 4 6 6 4 2 1 1 1 1 2 2 2 2 4 5 6 6 6 5 3 2 1 0 0 1 2 3 3 2 3 3 3 3 3 3 3 2 2 1
0 0 0 0 0 0 0 0 1 2 4 4 3 1 0 0 0 0 0 1 1 0 1 2 4 4 5 5 4 3 1 1 1 0 0 1 1 2 2 2 3 3 2 2 2 1 1 1 0
0 0 0 0 0 0 0 0 0 1 2 2 1 0 0 0 0 0 0 0 0 0 0 1 2 2 2 2 1 1 1 1 0 0 0 0 0 1 1 1 2 1 1 1 1 0 0 0 0
0 0 0 0 0 0 0 0 0 1 1 1 0 0 0 0 0 0 0 0 0 0 0 0 1 1 0 0 0 0 0 0 0 0 0 0 0 0 0 0 0 0 0 0 0 0 0 0 0
0 0 0 0 0 0 0 0 0 1 2 1 0 0 0 0 0 0 0 0 0 0 0 0 0 0 0 0 0 0 0 0 0 0 0 0 0 0 0 0 0 0 0 0 0 0 0 0 0
0 0 0 0 0 0 0 0 0 1 1 0 0 0 0 0 0 0 0 0 0 0 0 0 0 0 0 0 0 0 0 0 0 0 0 0 0 0 0 0 0 0 0 0 0 0 0 0 0

GEFSSGP_con_prob3kmehi_120.txt.gz
EHI
0 0 0 0 0 0 0 0 0 0 0 1 1 1 0 0 0 0 4 21 46 60 61 60 64 68 71 72 73 77 81 81 78 73 67 57 50 45 39 32 28 22 16 10 6 4 3 3 3
0 0 0 0 0 0 0 0 0 0 1 1 2 2 1 1 1 0 6 25 48 61 60 60 67 74 76 75 75 78 80 79 75 70 65 58 52 48 42 34 28 23 15 9 6 4 4 3 2
0 0 0 0 0 0 0 0 0 1 2 3 5 6 6 5 3 1 9 31 53 61 61 63 72 80 80 79 80 82 80 75 70 65 61 57 54 51 45 36 29 22 14 8 5 4 4 3 1
0 0 0 0 0 0 0 0 0 1 2 5 9 13 16 14 9 9 20 40 55 60 61 67 76 82 83 82 83 83 79 71 65 60 57 54 52 48 43 34 26 18 12 7 5 4 4 3 1
0 0 0 0 0 0 0 0 0 0 1 5 11 18 23 22 19 24 36 45 53 59 63 69 77 82 82 80 79 78 74 68 61 56 54 50 47 42 36 28 21 16 12 8 6 6 5 3 2
0 0 0 0 0 0 0 0 1 2 3 6 13 22 29 30 31 38 46 46 49 59 66 70 74 76 77 76 74 73 70 66 60 54 49 44 39 34 28 23 18 16 13 10 8 6 4 4 3
0 0 0 0 0 0 0 0 2 6 10 13 18 27 35 38 40 46 51 49 50 60 68 69 69 69 69 69 69 69 68 63 56 49 42 36 31 25 21 18 17 15 12 9 6 5 4 4 4
0 0 0 0 0 0 0 1 5 9 14 18 23 27 37 45 49 53 58 57 57 62 67 68 67 66 65 65 65 65 63 58 50 41 34 30 26 20 16 16 15 11 7 5 4 4 5 5 4
0 0 0 0 0 0 0 2 5 9 15 22 28 33 42 52 56 59 60 57 55 58 63 65 66 64 65 67 66 63 59 54 47 37 30 27 23 18 14 13 11 8 6 4 4 6 9 7 5
0 0 0 0 0 0 0 1 3 6 13 23 33 41 49 54 56 57 55 49 43 46 53 58 59 60 64 68 67 62 57 53 45 37 31 27 22 17 13 10 9 8 8 7 7 9 10 8 6
0 0 0 0 0 0 0 0 2 4 8 16 27 36 43 46 46 48 48 42 35 35 42 47 50 53 57 62 63 60 56 51 44 37 32 28 23 18 14 11 8 7 8 10 10 9 8 6 4
0 0 0 0 0 0 0 0 1 2 4 9 17 25 32 34 34 37 42 40 34 32 35 39 43 46 49 51 52 52 50 47 42 36 32 29 26 19 13 9 6 4 5 7 7 6 4 3 2
0 0 0 0 0 0 0 0 0 2 6 9 14 20 26 27 25 28 33 35 34 32 33 36 38 40 41 41 41 41 42 40 36 32 30 29 26 19 11 7 4 3 2 2 2 2 2 1 0
0 0 0 0 0 0 0 0 0 3 8 11 16 21 23 22 21 22 25 27 29 30 31 34 34 33 33 33 32 32 34 34 31 29 27 25 21 15 10 6 4 2 1 1 0 0 0 0 0
0 0 0 0 0 0 0 1 1 4 8 12 17 22 23 21 20 19 20 22 24 27 31 32 30 28 28 29 28 27 28 28 27 25 22 20 16 11 9 6 3 2 2 2 1 1 0 0 0
0 0 0 0 0 0 0 1 2 4 8 12 16 19 20 20 21 19 18 19 21 25 31 31 27 25 27 26 24 22 20 20 18 17 16 13 10 9 8 6 4 2 3 4 3 2 1 0 0
0 0 0 0 0 0 0 0 1 3 7 10 14 16 18 20 21 20 19 18 19 22 26 26 23 23 25 24 19 14 12 11 9 9 9 8 7 7 7 7 5 4 4 4 3 2 1 0 0
0 0 0 0 0 0 0 1 1 3 6 8 12 15 17 18 18 18 18 16 16 18 20 19 18 19 22 21 15 8 5 5 4 4 4 4 5 6 6 6 5 4 3 3 2 2 1 0 0
0 0 0 0 0 0 0 1 2 3 4 7 11 15 16 16 15 16 16 13 12 14 15 15 15 16 17 17 13 6 3 3 3 2 2 2 3 4 4 5 4 3 2 1 1 1 0 0 0
0 0 0 0 0 0 0 1 2 3 4 6 11 14 14 12 10 11 12 11 11 12 13 12 12 13 13 13 10 6 3 3 2 1 0 0 1 2 3 4 3 3 2 1 0 0 0 0 0
0 0 0 0 0 0 0 0 1 4 6 7 9 11 10 7 6 6 7 9 11 12 12 10 8 8 10 10 8 6 4 3 1 0 0 0 0 1 2 3 3 3 3 2 1 0 0 0 0
0 0 0 0 0 0 0 0 1 4 6 5 5 6 5 3 2 2 3 5 8 9 9 8 6 5 7 8 7 6 4 2 1 0 0 0 0 0 1 1 2 3 3 3 2 1 0 0 0
0 0 0 0 0 0 0 0 1 2 3 2 2 2 2 1 0 0 1 2 4 4 5 5 4 4 4 5 4 4 3 1 0 0 0 0 0 0 0 0 1 2 3 3 3 2 1 0 0
0 0 0 0 0 0 0 0 0 0 1 1 2 1 0 0 0 0 0 1 1 1 2 2 2 2 2 2 2 2 1 1 0 0 0 0 0 0 0 0 1 2 3 3 3 3 2 1 0
0 0 0 0 0 0 0 0 0 0 0 1 1 1 0 0 0 0 0 0 0 0 1 1 1 1 1 1 1 0 0 0 0 0 0 0 0 0 0 0 1 2 3 3 3 3 2 1 0
0 0 0 0 0 0 0 0 0 0 1 1 1 0 0 0 0 0 0 0 0 0 0 0 0 0 0 0 0 0 0 0 0 0 0 0 0 0 0 0 0 1 2 3 3 3 1 0 0
0 0 0 0 0 0 0 0 0 0 1 1 0 0 0 0 0 0 0 0 0 0 0 0 0 0 0 0 0 0 0 0 0 0 0 0 0 0 0 0 0 0 1 1 3 2 1 0 0
0 0 0 0 0 0 0 0 0 0 1 1 0 0 0 0 0 0 0 0 0 0 0 0 0 0 0 0 0 0 0 0 0 0 0 0 0 0 0 0 0 0 0 1 2 2 1 0 0
0 0 0 0 0 0 0 0 0 0 0 0 0 0 0 0 0 0 0 0 0 0 0 0 0 0 0 0 0 0 0 0 0 0 0 0 0 0 0 0 0 0 0 0 1 1 1 0 0
0 0 0 0 0 0 0 0 0 0 0 0 0 0 0 0 0 0 0 0 0 0 0 0 0 0 0 0 0 0 0 0 0 0 0 0 0 0 0 0 0 0 0 0 0 1 0 0 0

GEFSSGP_con_prob3kmehi_126.txt.gz
EHI
0 0 0 0 0 0 0 0 0 0 0 0 0 0 0 1 0 0 1 11 28 42 43 40 44 50 49 50 55 60 59 51 42 34 29 25 24 23 20 17 14 12 10 10 11 11 8 5 4
0 0 0 0 0 0 0 0 0 0 0 0 1 1 2 2 1 0 3 14 30 41 42 43 50 56 58 60 64 67 65 58 50 42 38 34 31 28 23 18 16 13 11 11 11 11 10 6 4
0 0 0 0 0 0 0 0 0 0 0 1 2 4 5 5 3 2 8 20 31 36 39 46 54 60 64 69 73 75 74 70 63 57 52 47 41 35 28 22 18 15 14 12 10 9 10 7 4
0 0 0 0 0 0 0 0 0 0 1 1 3 7 10 10 7 7 15 23 27 28 31 42 53 57 62 69 74 78 80 79 74 67 63 58 51 42 33 25 18 16 15 12 8 8 9 7 4
0 0 0 0 0 0 0 0 0 1 2 2 4 10 16 15 12 13 17 20 22 22 27 37 45 48 53 63 70 76 81 82 78 72 69 64 57 49 38 26 17 15 14 11 9 10 11 7 4
0 0 0 0 0 0 0 0 0 1 3 5 7 15 24 24 19 15 13 14 16 21 28 32 31 31 38 50 61 70 76 79 77 72 68 62 58 52 42 29 22 20 18 12 11 12 11 7 5
0 0 0 0 0 0 0 1 2 2 4 8 11 18 31 35 25 16 13 13 14 20 27 26 18 15 22 33 46 57 65 70 70 66 60 55 52 48 40 32 29 27 23 17 14 12 9 6 4
0 0 0 0 0 0 0 3 6 7 9 15 20 27 39 43 31 22 20 19 17 19 22 21 14 9 11 18 29 39 47 53 55 51 47 42 37 32 27 26 29 28 22 20 16 12 7 3 2
0 0 0 0 0 0 0 3 8 12 17 26 35 44 50 46 37 33 31 28 24 20 19 18 15 12 10 12 20 25 28 33 34 32 31 28 22 17 15 21 27 22 16 16 15 9 5 2 1
0 0 0 0 0 0 0 1 5 12 21 32 42 52 53 47 41 39 39 36 30 23 18 17 17 17 16 18 23 24 24 26 23 23 25 24 21 17 17 25 26 16 9 10 10 7 3 1 0
0 0 0 0 0 0 0 1 4 13 22 28 34 44 48 43 38 37 38 37 31 24 20 20 21 22 24 28 34 35 36 35 31 29 30 31 31 27 27 31 28 17 10 9 9 7 3 1 0
0 0 0 0 0 0 0 2 8 16 21 23 26 35 39 36 32 32 33 33 30 26 23 23 26 30 34 39 43 43 44 44 42 39 36 35 36 32 32 36 33 26 19 17 16 11 5 1 0
0 0 0 0 0 0 0 2 7 13 15 18 23 26 28 28 28 28 27 28 28 28 26 25 28 34 39 43 45 44 43 44 43 40 34 32 34 33 32 34 35 31 28 27 25 19 12 6 3
0 0 0 0 0 0 0 1 4 5 7 13 17 17 17 20 23 24 22 22 25 26 26 25 28 33 37 39 40 40 40 40 38 36 32 30 32 32 29 28 30 32 32 32 29 23 19 12 6
0 0 0 0 0 0 0 0 2 3 6 10 12 11 13 16 18 19 19 19 19 20 23 25 27 30 31 31 31 31 32 33 33 32 31 30 31 32 29 26 26 29 32 32 28 24 22 16 10
0 0 0 0 0 0 0 1 2 5 8 10 10 12 15 16 16 17 19 18 16 16 22 26 26 26 26 25 25 25 26 28 28 27 26 25 25 27 27 25 25 26 27 28 27 24 21 18 14
0 0 0 0 0 0 0 1 2 4 8 10 12 14 16 16 15 16 17 16 13 14 22 28 27 24 24 25 24 25 27 28 26 24 22 19 17 19 23 25 25 25 24 25 26 25 23 20 19
0 0 0 0 0 0 0 1 1 2 4 8 11 13 15 15 15 14 14 12 11 15 21 27 28 26 27 29 28 27 27 26 24 21 20 16 13 14 19 24 25 24 22 22 24 26 26 24 23
0 0 0 0 0 0 0 1 1 1 2 6 9 12 14 15 14 14 13 12 13 16 20 24 26 27 28 30 30 27 23 21 18 16 15 13 10 11 15 20 21 20 19 19 22 26 26 24 22
0 0 0 0 0 0 0 1 1 1 2 4 6 9 11 13 14 14 13 13 13 15 17 19 21 23 24 25 27 25 21 17 14 12 11 10 9 9 12 15 17 17 17 18 20 22 22 18 16
0 0 0 0 0 0 0 0 1 2 2 3 4 6 9 12 13 11 10 10 10 11 13 15 16 17 18 20 22 21 18 15 12 10 9 9 8 8 9 11 13 14 16 17 17 17 16 13 11
0 0 0 0 0 0 0 0 1 3 3 3 5 6 8 9 9 7 5 5 6 8 10 13 14 13 14 16 17 16 14 12 10 8 8 7 6 6 6 7 9 11 13 13 12 12 11 10 8
0 0 0 0 0 0 0 0 1 3 3 3 6 8 6 4 4 3 3 3 3 5 7 10 12 12 12 13 13 13 10 8 7 7 6 5 4 3 3 4 6 7 8 9 8 8 9 8 7
0 0 0 0 0 0 0 0 2 3 3 3 6 7 4 1 1 1 1 2 3 3 5 7 9 10 10 10 9 8 6 6 6 5 4 3 2 2 1 1 2 3 4 5 5 5 6 7 6
0 0 0 0 0 0 0 0 2 3 2 4 7 6 2 0 0 0 0 1 1 2 2 4 6 7 7 6 5 4 4 4 4 3 3 2 1 1 0 0 0 1 2 3 2 2 4 5 5
0 0 0 0 0 0 0 0 1 1 3 6 7 5 1 0 0 0 0 0 0 0 0 1 3 4 4 3 2 2 3 3 2 1 1 1 0 0 0 0 0 0 1 1 0 1 2 3 4
0 0 0 0 0 0 0 0 1 1 3 6 6 3 0 0 0 0 0 0 0 0 0 0 1 1 1 1 1 1 1 1 0 0 0 0 0 0 0 0 0 0 0 0 0 0 2 3 3
0 0 0 0 0 0 0 0 1 3 5 5 4 1 0 0 0 0 0 0 0 0 0 0 0 0 0 0 0 0 0 0 0 0 0 0 0 0 0 0 0 0 0 0 0 1 2 3 3
0 0 0 0 0 0 0 0 1 3 5 6 5 2 0 0 0 0 0 0 0 0 0 0 0 0 0 0 0 0 0 0 0 0 0 0 0 0 0 0 0 0 0 0 1 1 3 3 3
0 0 0 0 0 0 0 0 0 2 5 8 8 3 0 0 0 0 0 0 0 0 0 0 0 0 0 0 0 0 0 0 0 0 0 0 0 0 0 0 0 0 0 1 2 2 3 3 3

GEFSSGP_con_prob3kmehi_132.txt.gz
EHI
0 0 0 0 0 0 0 0 0 0 0 1 2 6 10 11 9 9 25 56 70 57 45 42 35 19 6 1 0 1 1 1 0 0 0 1 2 4 5 3 3 3 2 1 0 0 0 0 0
0 0 0 0 0 0 0 0 1 1 1 1 4 9 14 16 13 14 34 61 65 50 40 40 37 24 12 6 3 1 0 0 0 0 0 0 1 3 4 3 3 4 3 1 0 0 0 0 1
0 0 0 0 0 0 0 1 2 3 2 2 5 13 19 21 21 25 46 63 56 39 36 43 44 34 21 14 9 5 3 2 2 1 1 1 1 2 3 3 4 5 4 2 1 1 0 1 2
0 0 0 0 0 0 0 1 2 3 3 4 10 20 26 26 27 36 50 56 46 34 34 44 51 45 30 20 15 10 8 8 7 5 3 3 4 4 4 4 4 4 4 3 2 1 0 1 2
0 0 0 0 0 0 0 0 1 1 2 6 17 30 34 30 31 37 42 39 38 40 37 41 52 50 34 25 22 17 14 15 14 11 9 9 9 7 6 6 5 4 3 3 2 1 0 1 2
0 0 0 0 0 0 0 0 0 1 3 9 22 35 37 32 29 28 27 25 36 48 43 38 43 42 34 31 30 26 24 25 24 22 19 16 14 11 9 9 7 4 1 1 2 1 1 1 1
0 0 0 0 0 0 0 0 1 4 8 12 22 36 41 34 24 18 17 23 39 48 39 28 26 26 26 29 34 37 37 37 35 32 26 19 14 10 8 7 6 3 1 1 1 2 2 2 1
0 0 0 0 0 0 0 1 5 10 13 15 25 40 46 37 22 15 18 29 42 40 27 16 12 11 13 19 29 38 41 41 38 32 24 16 9 6 5 5 5 5 3 1 1 2 2 2 3
0 0 0 0 0 0 1 3 8 13 17 21 29 41 46 37 27 24 28 37 43 36 23 15 12 9 6 10 19 26 29 31 29 23 19 13 6 3 3 7 12 12 7 4 2 2 2 3 3
0 0 0 0 0 1 3 7 11 14 19 25 33 38 39 36 33 36 39 43 44 36 26 22 21 15 11 14 18 14 16 23 20 17 18 13 6 5 7 16 24 22 13 7 4 3 2 2 2
0 0 0 0 0 3 7 14 17 18 20 26 31 34 35 35 36 41 43 42 42 37 30 29 28 25 26 31 27 18 20 27 24 20 22 19 14 15 20 28 33 27 16 9 8 6 3 1 1
0 0 0 0 1 5 12 18 20 20 22 26 29 31 33 33 34 38 41 40 40 37 35 34 34 35 43 47 39 32 34 36 31 28 30 30 29 29 33 38 37 29 17 10 10 8 4 1 1
0 0 0 1 2 5 9 13 16 19 24 27 28 28 28 29 31 34 37 39 40 39 38 38 41 45 53 56 50 44 42 39 35 36 38 38 39 40 40 40 37 29 19 13 11 9 7 5 5
0 0 0 0 1 3 4 7 11 17 22 25 26 22 20 22 25 29 34 38 41 43 42 41 45 51 55 57 55 51 46 42 40 42 43 41 42 43 41 38 34 27 21 17 14 12 11 10 9
0 0 0 0 0 0 1 4 8 13 19 22 21 18 16 18 21 24 28 32 38 43 44 42 45 50 53 53 54 51 47 44 43 42 42 41 42 44 41 36 31 25 22 21 19 18 16 13 10
0 0 0 0 0 0 2 6 8 11 16 20 18 15 15 17 20 22 24 27 32 41 46 45 44 47 49 49 49 48 45 43 42 41 40 40 41 42 40 35 31 27 25 24 20 20 19 14 10
0 0 0 0 0 0 3 8 10 10 14 17 16 14 16 18 20 22 23 24 28 37 44 46 45 46 46 45 45 44 43 42 41 41 40 38 38 40 38 35 32 29 26 21 17 18 18 14 13
0 0 0 0 0 0 3 8 10 9 12 16 17 16 18 21 22 21 22 24 27 32 39 42 43 45 45 45 44 43 41 41 40 39 38 36 36 37 35 32 30 26 21 17 15 14 14 13 12
0 0 0 0 0 0 2 5 7 9 13 17 20 20 21 23 22 21 22 26 28 30 33 37 40 42 43 45 44 42 39 39 37 34 33 33 31 30 28 26 25 21 17 16 15 13 12 10 9
0 0 0 0 0 1 2 4 6 9 12 16 19 20 20 21 21 20 22 26 28 27 29 33 35 36 38 40 40 38 36 35 34 31 29 27 24 20 18 19 20 19 17 16 16 13 11 9 7
0 0 0 0 0 1 2 5 9 11 12 15 19 21 21 20 20 18 17 21 22 22 23 27 29 30 31 32 33 32 31 32 32 31 28 23 18 13 11 11 14 16 16 15 14 12 10 8 6
0 0 0 0 0 1 2 5 10 14 15 18 22 26 25 21 17 13 11 12 14 14 16 19 22 24 26 26 27 27 28 28 29 28 24 20 15 10 8 8 10 12 13 11 11 11 11 9 7
0 0 0 0 0 0 1 2 8 15 18 21 26 28 26 19 11 7 7 8 7 7 8 11 14 17 21 22 23 22 22 23 24 22 18 15 13 10 7 7 8 9 8 7 9 12 12 10 8
0 0 0 0 0 0 0 1 6 13 18 23 29 30 25 16 6 3 5 6 4 2 2 4 6 9 14 17 18 17 17 18 18 16 13 11 10 9 6 6 7 8 7 7 9 12 12 11 10
0 0 0 0 0 0 0 1 5 11 15 23 30 30 24 15 5 2 3 4 3 1 1 1 2 4 7 10 12 12 12 13 12 12 11 10 9 7 5 5 6 7 8 8 9 9 9 10 10
0 0 0 0 0 0 0 1 6 11 16 23 27 26 22 15 7 2 1 3 2 1 0 0 0 1 2 5 7 7 7 7 7 8 8 8 7 6 4 4 5 6 7 8 7 6 6 7 7
0 0 0 0 0 0 0 1 5 11 17 21 22 20 19 16 10 4 2 2 3 1 0 0 0 0 0 1 3 4 3 4 4 5 5 4 4 3 3 2 3 4 5 5 5 5 4 3 3
0 0 0 0 0 0 0 0 3 9 16 18 17 17 18 17 11 6 3 3 3 2 0 0 0 0 0 0 1 1 1 2 2 2 2 1 1 1 1 1 1 1 1 2 3 3 2 1 1
0 0 0 0 0 0 0 0 3 9 14 16 16 17 18 16 10 5 5 5 3 1 0 0 0 0 0 0 0 0 0 1 1 1 1 0 0 0 0 0 0 0 0 1 2 1 0 0 0
0 0 0 0 0 0 0 1 5 9 13 16 17 18 19 15 9 5 6 6 3 1 0 0 0 0 0 0 0 0 0 0 0 0 0 0 0 0 0 0 0 0 0 1 1 1 0 0 0

GEFSSGP_con_prob3kmehi_138.txt.gz
EHI
0 0 0 0 0 0 0 0 1 2 4 7 13 18 19 15 9 5 3 14 38 49 40 33 31 27 24 23 20 15 12 11 10 10 13 16 20 22 19 11 5 2 1 0 0 0 1 1 1
0 0 0 0 0 0 0 0 1 3 6 11 20 27 27 22 16 11 7 19 43 53 43 34 32 29 24 21 18 13 10 9 8 8 9 10 12 13 10 6 2 1 0 0 0 0 0 0 0
0 0 0 0 0 0 0 0 3 9 13 16 24 31 30 23 18 14 14 28 49 55 46 41 39 35 27 20 13 10 8 6 5 4 4 4 4 3 2 1 0 0 0 0 0 0 0 0 0
0 0 0 0 0 0 0 0 5 13 17 20 27 32 29 22 20 20 23 36 50 54 49 49 48 43 33 23 14 9 6 4 3 1 1 1 1 1 1 2 1 1 0 0 0 0 0 0 0
0 0 0 0 0 0 0 2 7 13 18 25 35 38 33 27 28 28 30 39 51 54 50 50 52 48 40 32 21 12 6 3 1 0 1 1 1 2 2 2 2 2 1 0 0 0 0 0 0
0 0 0 0 0 0 1 4 9 15 20 29 40 43 35 30 30 29 30 38 47 50 48 48 49 48 44 39 29 17 8 3 1 1 2 2 3 3 2 1 1 2 1 0 0 0 0 0 0
0 0 0 0 0 0 3 7 13 18 24 31 40 42 37 31 29 28 30 35 40 42 44 45 44 43 43 41 35 24 13 6 4 3 3 3 3 2 1 0 0 1 1 0 0 0 0 0 0
0 0 0 0 0 1 4 10 17 23 29 35 39 41 39 34 32 33 33 34 35 36 36 37 38 37 37 36 34 27 17 10 6 4 3 3 3 1 0 0 0 0 1 1 0 0 0 0 0
0 0 0 0 0 2 6 13 19 26 34 41 42 42 38 33 33 34 32 30 28 26 26 27 29 30 27 25 24 20 14 10 7 5 4 4 4 2 1 1 1 1 2 1 0 0 0 0 0
0 0 0 0 2 6 11 14 17 25 36 41 43 42 36 31 30 29 27 23 19 16 17 18 19 20 18 16 16 13 10 9 8 6 5 5 4 2 1 1 1 2 3 2 2 1 1 0 0
0 0 0 1 5 11 13 14 16 23 30 34 36 37 34 31 29 26 22 17 14 13 14 13 12 12 12 12 12 11 10 10 9 6 5 4 2 1 1 1 2 3 4 4 5 4 2 1 0
0 0 1 2 7 11 12 14 19 23 24 25 26 28 29 30 29 26 21 16 14 14 13 12 11 11 12 12 11 10 11 11 9 6 4 2 1 0 0 1 2 3 3 5 5 4 2 1 0
0 0 1 2 5 7 9 14 20 22 21 20 20 20 21 23 24 23 20 17 15 15 14 13 12 12 12 12 11 10 10 11 9 6 4 2 1 0 0 1 2 2 1 3 3 2 1 1 0
0 0 0 1 2 4 8 13 17 17 18 18 16 16 17 19 19 18 17 16 16 17 17 17 15 13 12 12 12 11 11 11 9 5 3 2 1 0 0 2 3 1 0 1 1 0 0 0 0
0 0 0 1 2 4 7 10 11 13 16 17 15 15 17 18 18 16 14 13 14 17 18 18 18 16 13 11 11 11 11 9 6 4 3 2 1 1 1 2 2 1 0 0 0 0 0 0 0
0 0 0 1 2 2 4 8 11 14 17 17 15 14 15 16 16 13 10 9 10 13 15 14 15 14 12 10 9 9 9 8 6 4 4 3 3 3 3 2 1 0 0 0 0 0 0 0 0
0 0 0 0 1 1 4 9 14 16 18 18 14 12 12 13 12 9 6 6 6 8 10 9 9 9 10 11 11 10 9 10 10 8 5 4 5 5 3 1 0 0 0 0 0 0 0 0 0
0 0 0 0 1 3 7 13 17 16 18 18 15 12 12 12 10 8 7 7 7 6 6 7 7 7 9 11 12 12 12 13 14 13 8 5 6 6 4 1 0 0 0 0 0 0 0 0 0
0 0 0 0 1 4 10 16 17 16 17 16 14 11 11 11 11 9 9 10 9 6 6 8 8 8 8 9 11 12 14 14 15 14 12 8 7 6 4 2 1 1 1 0 0 0 0 0 0
0 0 0 1 1 3 10 15 16 15 16 15 13 12 11 10 10 9 8 9 9 8 9 10 9 9 9 8 9 12 13 12 11 11 11 10 8 7 5 3 2 2 2 1 0 0 0 0 0
0 0 0 0 1 2 6 10 11 13 16 15 14 12 11 9 8 7 5 6 7 8 9 10 10 10 9 9 10 12 11 9 6 6 7 8 7 6 5 3 3 3 2 1 0 0 0 0 0
0 0 0 0 0 1 2 4 7 12 17 16 12 11 10 9 7 5 4 4 4 4 5 7 8 9 9 10 11 11 10 6 3 3 5 5 4 3 3 3 3 3 3 1 0 0 0 0 0
0 0 0 0 0 0 0 1 3 10 16 16 12 10 10 9 7 5 4 3 2 1 2 3 4 5 6 7 8 9 7 4 2 2 3 2 1 1 1 3 3 3 3 2 1 0 0 0 0
0 0 0 0 0 0 0 0 1 5 12 16 15 10 8 7 5 4 4 3 1 0 0 1 1 1 2 2 3 5 4 3 2 1 1 1 0 0 1 2 2 2 2 2 1 0 0 0 0
0 0 0 0 0 0 0 0 0 3 9 15 14 10 6 4 2 2 2 2 1 0 0 0 0 0 0 0 0 1 1 2 2 1 0 0 0 0 0 1 1 1 1 1 0 0 0 0 0
0 0 0 0 0 0 0 0 1 4 9 12 11 8 6 2 0 1 1 1 0 0 0 0 0 0 0 0 0 0 0 1 1 0 0 0 0 0 0 0 0 0 0 0 0 0 0 0 0
0 0 0 0 0 0 0 0 1 5 9 9 8 8 5 2 0 0 0 0 0 0 0 0 0 0 0 0 0 0 0 0 0 0 0 0 0 0 0 0 0 0 0 0 0 0 0 0 0
0 0 0 0 0 0 0 0 1 5 6 5 5 6 5 1 0 0 0 0 0 0 0 0 0 0 0 0 0 0 0 0 0 0 0 0 0 0 0 0 0 0 0 0 0 0 0 0 0
0 0 0 0 0 0 0 0 1 4 5 4 3 4 3 1 0 0 0 0 0 0 0 0 0 0 0 0 0 0 0 0 0 0 0 0 0 0 0 0 0 0 0 0 0 0 0 0 0
0 0 0 0 0 0 0 0 1 3 5 4 3 2 1 0 0 0 0 0 0 0 0 0 0 0 0 0 0 0 0 0 0 0 0 0 0 0 0 0 0 0 0 0 0 0 0 0 0

GEFSSGP_con_prob3kmehi_144.txt.gz
EHI
0 0 0 0 0 0 0 0 0 1 2 4 4 4 4 3 2 1 2 12 27 31 20 13 16 26 38 47 56 63 68 70 70 64 56 47 38 29 21 16 12 8 6 4 2 2 2 1 1
0 0 0 0 0 0 0 0 1 1 2 5 8 9 9 7 5 4 5 14 28 32 23 16 19 28 38 47 55 61 62 60 57 49 43 39 35 27 21 17 14 11 7 5 3 2 1 1 1
0 0 0 0 0 0 0 0 2 3 4 7 11 14 15 12 9 7 9 19 30 33 26 23 27 32 38 45 52 55 52 44 36 31 28 28 29 25 19 17 16 13 8 5 3 1 0 0 1
0 0 0 0 0 0 0 0 2 4 6 9 15 20 20 16 12 11 15 25 33 33 29 30 35 38 38 42 46 46 43 34 25 21 20 20 22 20 16 14 12 10 6 2 1 1 0 0 1
0 0 0 0 0 0 0 1 2 4 8 13 21 26 23 17 15 19 23 31 36 35 31 32 38 41 39 38 39 40 38 32 25 20 17 16 15 13 11 9 6 4 3 1 0 0 0 0 0
0 0 0 0 0 0 1 2 3 5 8 16 27 31 25 19 21 25 28 31 35 36 33 31 34 38 39 38 37 36 34 30 25 21 16 12 8 5 5 4 3 2 1 1 2 1 0 0 0
0 0 0 0 0 0 1 2 3 6 10 19 29 32 27 25 27 29 29 29 31 32 32 31 30 33 38 41 39 33 28 26 23 20 14 8 4 2 3 4 4 3 2 2 3 2 1 1 0
0 0 0 0 0 0 0 2 5 9 15 22 29 31 30 30 31 31 30 27 26 26 27 29 30 29 35 41 41 34 25 21 18 15 11 7 5 4 4 4 4 3 1 1 2 3 3 2 1
0 0 0 0 0 0 1 4 7 13 22 28 31 33 34 35 33 32 30 26 23 22 23 27 29 29 31 36 36 31 23 17 13 10 9 7 5 5 4 3 2 2 2 1 2 3 4 2 1
0 0 0 0 0 1 3 5 7 13 22 29 33 36 37 36 34 29 25 22 21 19 19 23 26 27 28 27 26 24 20 14 9 8 8 6 3 2 2 2 1 2 3 3 3 3 3 2 1
0 0 0 0 0 2 3 4 7 12 18 23 31 36 35 32 29 24 17 15 15 13 15 18 22 23 22 20 19 19 16 11 7 7 6 3 0 0 1 1 1 2 3 4 4 3 3 3 1
0 0 0 0 0 2 4 6 9 13 16 19 26 32 30 24 20 16 12 10 8 7 9 12 15 16 17 17 16 15 14 10 7 5 4 1 0 0 0 1 1 1 1 2 3 2 3 2 1
0 0 1 0 1 3 7 9 10 14 16 17 22 25 22 16 11 10 10 8 6 5 5 7 9 10 12 12 11 9 9 8 4 2 1 0 0 0 0 1 1 0 0 1 1 1 1 1 0
0 0 0 0 1 4 8 8 9 12 14 15 17 18 14 10 8 9 10 8 6 4 4 4 6 6 6 6 5 4 5 4 2 0 0 0 0 0 0 1 1 0 0 0 0 0 0 0 0
0 0 0 0 0 2 4 6 7 10 14 14 14 14 12 10 9 9 11 10 8 5 3 3 4 4 3 2 1 1 2 2 1 0 0 0 0 0 0 0 0 0 0 0 0 0 0 0 0
0 0 0 0 0 0 1 3 5 9 14 15 14 13 11 9 8 8 10 10 9 6 3 2 2 1 1 0 0 1 1 1 1 1 0 0 0 0 0 0 0 0 0 0 0 0 0 0 0
0 0 0 0 0 0 1 3 7 10 12 13 12 10 8 5 5 5 7 8 8 7 4 2 1 0 0 1 1 1 1 1 0 0 0 0 0 0 0 0 0 0 0 0 0 0 0 0 0
0 0 0 0 0 0 1 5 10 12 12 11 10 7 4 2 3 3 4 6 7 7 5 3 1 0 0 1 2 2 2 1 0 0 0 0 0 0 0 0 0 0 0 0 0 0 0 0 0
0 0 0 0 0 0 2 6 10 13 12 10 8 4 2 2 3 3 3 3 5 5 5 3 1 0 0 0 1 2 2 1 0 0 0 0 0 0 0 0 0 0 0 0 0 0 0 0 0
0 0 0 1 0 0 2 5 7 9 9 8 6 4 2 2 2 3 2 2 2 3 3 2 1 0 0 0 0 1 1 0 0 0 0 0 0 0 0 0 0 0 0 0 0 0 0 0 0
0 0 0 0 0 0 1 2 3 4 5 6 5 4 3 2 1 3 3 2 1 2 3 3 2 1 0 0 0 1 0 0 0 0 0 0 0 0 0 0 0 0 0 0 0 0 0 0 0
0 0 0 0 0 0 0 0 0 1 3 5 6 6 4 1 1 2 2 3 3 3 3 3 3 2 1 0 0 0 0 0 0 0 0 0 0 0 0 0 0 0 0 0 0 0 0 0 0
0 0 0 0 0 0 0 0 0 0 2 5 6 6 4 1 1 2 1 2 3 3 3 3 3 3 2 1 0 0 0 0 0 0 0 0 0 0 0 0 0 0 0 0 0 0 0 0 0
0 0 0 0 0 0 0 0 0 0 2 4 5 6 4 1 1 1 0 1 1 2 2 2 2 2 2 1 0 0 0 0 0 0 0 0 0 0 0 0 0 0 0 0 0 0 0 0 0
0 0 0 0 0 0 0 0 0 0 1 3 5 5 3 1 0 0 0 0 0 1 1 1 1 1 1 1 0 0 0 0 0 0 0 0 0 0 0 0 0 0 0 0 0 0 0 0 0
0 0 0 0 0 0 0 0 0 0 0 2 4 4 3 1 0 0 0 0 0 0 0 0 0 0 0 0 0 0 0 0 0 0 0 0 0 0 0 0 0 0 0 0 0 0 0 0 0
0 0 0 0 0 0 0 0 0 0 0 2 3 3 2 1 0 0 0 0 0 0 0 0 0 0 0 0 0 0 0 0 0 0 0 0 0 0 0 0 0 0 0 0 0 0 0 0 0
0 0 0 0 0 0 0 0 0 0 0 1 2 3 2 1 0 0 0 0 0 0 0 0 0 0 0 0 0 0 0 0 0 0 0 0 0 0 0 0 0 0 0 0 0 0 0 0 0
0 0 0 0 0 0 0 0 0 0 0 0 1 2 2 1 0 0 0 0 0 0 0 0 0 0 0 0 0 0 0 0 0 0 0 0 0 0 0 0 0 0 0 0 0 0 0 0 0
0 0 0 0 0 0 0 0 0 0 0 0 0 1 2 1 0 0 0 0 0 0 0 0 0 0 0 0 0 0 0 0 0 0 0 0 0 0 0 0 0 0 0 0 0 0 0 0 0

GEFSSGP_con_prob3kmehi_150.txt.gz
EHI
0 0 0 0 0 0 0 0 0 0 0 0 0 0 0 0 0 2 4 3 5 7 6 4 8 15 25 36 46 53 52 45 40 35 27 19 12 6 2 1 1 2 4 3 1 0 0 0 0
0 0 0 0 0 0 0 0 1 1 0 0 0 0 0 0 0 3 6 7 9 11 9 6 9 16 25 36 45 52 52 47 43 37 28 19 12 6 2 1 1 1 1 1 0 0 0 0 0
0 0 0 0 0 0 0 1 2 3 2 0 0 1 2 2 3 4 8 11 13 15 12 9 10 16 26 35 42 48 48 46 42 35 27 20 11 5 3 2 2 1 1 1 0 0 0 0 0
0 0 0 0 0 0 1 2 3 3 3 1 1 3 5 7 6 7 10 12 14 13 11 10 11 15 25 33 41 44 43 41 36 29 25 20 12 6 5 5 4 3 2 2 1 0 0 0 0
0 0 0 0 0 2 3 3 2 2 2 1 1 5 9 11 11 12 13 13 12 9 9 10 12 15 22 29 35 39 39 35 29 24 21 17 13 9 7 7 6 4 3 2 1 0 0 0 0
0 0 0 0 1 4 4 3 3 3 2 1 2 6 12 15 16 15 15 13 9 7 9 11 11 13 18 24 28 32 35 32 26 20 17 15 12 10 8 7 5 4 3 2 1 0 0 0 0
0 0 0 0 1 4 4 3 3 4 4 4 4 8 16 23 22 17 14 11 8 8 10 9 8 8 12 19 25 29 32 31 25 20 17 15 12 9 7 5 4 3 3 2 1 0 0 0 0
0 0 0 0 1 2 2 3 4 6 8 9 8 13 24 33 29 19 15 13 12 12 11 9 6 6 8 14 21 26 26 25 23 21 18 14 9 7 5 4 4 3 1 1 0 0 0 0 0
0 0 0 0 0 0 0 3 7 9 12 15 16 21 33 40 34 25 22 21 21 21 18 13 10 9 9 12 18 19 17 17 17 16 13 9 6 4 3 3 4 3 1 0 0 0 0 0 0
0 0 0 0 0 0 1 3 7 9 13 18 23 29 36 39 34 28 27 28 28 27 23 18 17 15 14 16 20 19 15 14 13 12 9 7 6 5 3 3 2 1 0 0 0 0 1 1 1
0 0 0 1 1 1 2 4 7 9 11 16 23 29 33 33 30 27 28 29 30 28 23 20 19 20 20 23 25 24 22 19 17 14 11 9 8 5 3 1 0 0 0 0 0 1 2 2 2
1 2 2 2 3 3 3 6 9 11 13 16 18 22 26 26 23 22 24 26 27 24 20 18 19 21 25 28 28 28 26 24 21 18 13 10 7 4 2 2 2 2 2 1 1 2 2 3 3
4 5 5 4 4 4 3 6 11 13 16 18 16 16 18 18 16 17 19 22 22 20 18 17 18 21 26 29 29 27 26 24 22 19 14 9 6 3 2 3 4 5 4 2 2 2 2 2 2
4 6 7 5 4 2 3 6 11 13 15 18 16 14 13 13 13 14 16 18 18 17 18 18 18 20 24 26 25 24 22 22 21 19 14 9 6 4 3 4 5 6 4 2 1 1 1 2 2
2 4 5 4 2 1 2 5 9 11 14 15 15 13 12 12 11 11 13 15 15 17 19 19 18 18 20 19 19 19 18 18 18 17 14 9 5 3 4 5 5 5 4 3 2 1 1 1 2
1 1 2 1 0 0 1 3 6 9 12 14 14 13 11 10 9 10 11 12 14 18 19 18 16 16 15 14 14 15 15 16 15 14 12 9 4 4 6 6 5 4 3 4 4 4 4 2 2
0 0 0 0 0 0 0 2 5 8 10 12 13 11 9 9 9 10 10 10 12 16 16 14 13 14 15 15 15 14 14 15 13 11 11 9 6 4 5 5 4 4 4 6 7 7 6 4 2
0 0 0 0 0 0 0 1 4 7 7 9 12 11 9 9 9 8 7 7 8 10 11 10 10 13 16 17 16 14 13 13 11 11 12 11 7 4 3 3 4 4 5 8 9 7 5 4 3
0 0 0 0 0 0 0 1 3 5 5 9 13 13 11 11 9 7 6 5 5 6 7 7 8 11 14 14 13 12 11 10 9 10 11 10 8 6 4 5 6 7 8 9 8 5 2 2 2
0 0 0 0 0 0 0 0 1 3 4 9 12 12 12 12 10 7 5 4 4 4 5 5 7 9 10 10 9 9 8 8 6 6 6 7 8 8 8 7 8 9 10 9 6 3 1 1 1
0 0 0 0 0 0 0 0 1 2 5 9 10 10 10 11 11 9 5 4 3 4 4 5 7 8 8 6 5 5 6 7 6 5 5 6 6 7 8 9 8 9 9 7 5 2 1 0 0
0 0 0 0 0 0 0 0 1 2 4 8 10 11 11 11 11 11 8 5 4 3 3 5 7 8 7 5 3 3 4 6 7 7 7 6 5 4 5 6 6 7 7 7 5 2 1 1 1
0 0 0 0 0 0 0 0 0 1 2 5 9 13 15 13 13 13 12 9 5 2 3 5 7 7 6 5 3 3 4 6 7 7 6 5 3 2 3 4 5 6 8 7 4 2 2 2 2
0 0 0 0 0 0 0 0 0 0 0 3 9 16 20 18 16 15 14 12 8 5 4 6 7 6 5 4 3 3 4 5 5 6 5 4 2 3 4 4 5 6 6 6 4 2 2 3 3
0 0 0 0 0 0 0 0 0 1 1 5 11 18 22 21 17 15 13 12 10 7 6 6 6 6 4 3 3 3 4 5 5 5 6 4 3 3 4 4 5 4 4 3 2 1 1 2 2
0 0 0 0 0 0 0 0 1 2 3 7 13 18 21 19 15 13 12 12 9 7 6 6 6 6 5 4 3 3 3 4 4 4 5 4 3 3 3 3 4 3 2 1 1 1 0 1 1
0 0 0 0 0 0 0 0 1 3 5 8 13 17 18 15 12 11 12 11 7 5 4 4 5 6 5 4 3 3 3 3 3 3 3 3 3 3 2 2 2 2 1 0 0 0 0 0 0
0 0 0 0 0 0 0 0 2 4 6 8 12 15 14 12 10 10 10 8 5 3 3 3 4 4 3 3 2 2 2 2 1 1 1 2 2 1 1 1 1 1 0 0 0 0 0 0 0
0 0 0 0 0 0 0 0 2 5 7 9 11 13 12 9 8 7 5 4 2 1 1 2 2 2 1 1 1 1 1 1 0 0 0 1 1 0 0 0 0 0 0 0 0 0 0 0 0
0 0 0 0 0 0 0 0 1 5 9 9 9 11 10 7 4 3 2 2 1 0 0 1 1 0 0 0 0 0 0 0 0 0 0 0 0 0 0 0 0 0 0 0 0 0 0 0 0

GEFSSGP_con_prob3kmehi_156.txt.gz
EHI
0 0 0 0 0 0 0 0 1 1 1 3 5 9 15 17 13 11 12 23 33 29 23 22 25 26 22 16 9 3 0 0 0 0 0 0 0 0 0 0 0 0 0 0 0 0 0 0 0
0 0 0 0 0 0 0 0 1 1 2 3 7 12 15 15 14 13 17 27 31 27 25 25 26 25 21 16 10 4 1 1 1 0 0 0 0 0 0 0 0 0 0 0 0 0 0 0 0
0 0 0 0 0 0 0 2 3 3 3 4 9 15 15 15 16 18 23 29 28 27 28 30 30 28 23 18 12 8 5 5 3 1 0 1 1 1 0 0 0 0 0 0 0 0 0 0 0
0 0 0 0 0 0 1 4 6 5 3 5 11 19 19 17 18 22 27 28 25 25 27 32 37 34 25 19 16 12 11 10 7 4 3 4 4 3 1 0 0 0 0 0 0 0 0 0 0
0 0 0 0 1 1 2 4 6 5 4 6 15 25 25 20 21 24 25 25 23 23 25 32 39 37 27 20 18 16 15 14 10 8 8 8 7 5 2 0 0 0 0 0 0 0 0 0 0
0 0 0 1 2 2 3 4 5 4 4 9 20 29 27 23 22 22 20 20 22 25 27 30 35 36 30 23 21 20 19 16 12 11 11 10 9 6 2 0 0 0 0 0 0 0 0 0 0
0 0 0 1 2 3 4 5 6 4 5 11 20 27 28 25 22 19 17 19 23 27 28 27 27 28 26 23 23 23 20 17 14 12 10 9 8 5 1 0 0 0 0 0 0 0 0 0 0
0 0 0 1 2 4 6 8 9 9 10 15 23 31 34 31 24 20 21 24 29 32 29 24 20 18 16 15 17 18 18 16 15 11 8 6 5 3 1 1 2 1 0 0 0 0 0 0 0
0 0 0 1 3 5 8 10 12 16 19 26 36 43 44 37 30 29 31 33 36 37 30 22 18 14 9 8 11 13 13 13 11 8 5 3 3 3 3 6 8 5 1 0 0 0 0 0 0
0 0 0 1 3 6 8 10 13 19 25 34 46 50 46 38 34 37 40 38 37 35 29 24 23 18 11 10 13 12 10 10 8 6 5 5 6 6 7 11 13 8 3 0 0 1 0 0 1
0 0 1 2 3 6 10 12 14 18 24 34 44 47 44 37 36 40 41 39 36 32 27 26 27 26 23 21 18 15 14 12 10 10 11 9 9 9 10 12 12 8 4 3 3 3 3 3 4
0 0 1 2 3 7 13 16 17 18 22 29 37 41 42 39 40 43 42 40 37 31 26 26 29 33 37 34 27 22 21 20 18 18 16 11 10 11 11 11 11 9 8 7 7 8 7 6 7
1 1 2 2 4 8 13 15 17 18 20 25 31 36 40 42 45 46 42 38 35 29 26 27 30 36 40 39 34 29 28 25 24 25 22 16 14 14 13 12 13 13 12 11 11 12 12 11 9
1 1 2 4 6 7 9 10 12 14 18 23 28 33 37 41 45 45 39 33 29 26 27 28 31 35 37 36 34 31 28 27 28 27 25 23 21 22 21 19 18 17 16 16 16 15 15 14 11
0 1 2 4 5 5 5 7 9 11 16 20 25 31 36 38 40 41 36 31 27 27 30 29 29 33 36 35 33 30 28 28 27 24 24 24 25 28 30 27 23 21 19 18 18 16 14 12 10
0 0 1 1 2 2 2 6 9 11 13 18 25 31 36 36 35 36 36 33 31 31 32 32 30 33 37 37 35 32 30 28 25 22 21 20 22 27 29 27 24 22 19 16 15 14 11 8 6
0 0 0 0 0 0 1 6 10 10 10 17 27 34 38 37 34 33 33 32 31 31 34 35 34 36 37 36 34 33 30 25 21 19 19 17 18 20 21 21 20 20 18 13 12 13 12 7 5
0 0 0 0 0 1 4 8 11 9 10 17 27 34 37 37 35 33 31 30 29 29 31 34 35 37 37 34 31 29 25 20 17 17 18 16 16 16 17 18 19 18 16 14 13 13 12 7 3
0 0 0 0 1 3 6 9 11 12 13 17 23 31 35 36 35 33 30 30 29 28 27 28 31 34 35 33 30 25 20 16 14 15 14 13 12 13 15 17 19 17 15 14 13 11 8 4 2
0 0 0 0 1 2 4 7 10 13 16 18 21 26 32 35 36 33 31 30 29 28 25 24 26 29 31 31 28 24 19 16 13 11 10 8 9 11 14 16 16 14 14 13 12 8 5 2 1
0 0 1 1 1 1 1 3 9 13 17 20 21 24 28 33 34 33 31 30 29 28 25 23 23 24 26 28 26 22 20 16 12 10 9 8 8 9 11 12 12 12 11 11 9 6 4 3 2
0 0 1 1 0 0 0 2 8 14 18 19 20 23 27 31 33 30 29 31 32 30 27 24 22 21 23 24 22 19 16 14 13 12 12 11 9 7 6 8 9 9 10 9 7 5 4 5 5
0 0 1 1 0 0 0 1 7 12 16 18 20 22 27 32 35 31 29 32 32 29 25 23 21 20 20 20 18 15 13 13 13 13 12 11 8 5 3 4 6 7 7 6 5 5 6 6 6
0 0 0 0 0 0 0 1 4 7 12 19 22 24 28 36 40 37 33 32 29 24 21 20 20 19 19 17 16 15 13 12 11 10 9 8 7 5 2 2 5 6 5 4 4 4 6 6 5
0 0 0 0 0 0 0 1 3 6 12 19 24 26 32 40 45 42 35 31 26 22 20 19 18 17 17 16 15 16 15 12 10 9 7 6 6 5 3 3 4 4 4 3 3 3 4 4 2
0 0 0 0 0 0 0 2 5 9 14 19 23 27 33 39 43 41 35 30 25 22 19 18 17 16 15 13 14 15 14 11 10 9 6 4 4 4 3 3 3 3 2 2 2 3 3 2 1
0 0 0 0 0 0 0 2 4 9 14 17 20 25 29 32 33 32 30 26 23 20 17 16 15 15 13 11 10 10 10 9 8 7 6 4 3 3 3 3 3 2 1 1 2 2 2 2 1
0 0 0 0 0 0 0 1 3 8 12 16 19 24 28 28 26 24 23 21 18 16 13 12 11 11 9 7 5 4 5 6 6 5 5 4 3 3 3 3 3 3 1 0 1 1 1 1 2
0 0 0 0 0 0 0 0 3 8 12 15 20 24 27 26 23 20 18 16 13 10 8 7 7 5 3 2 1 1 2 3 3 3 3 3 3 3 3 3 3 2 1 0 0 0 0 1 1
0 0 0 0 0 0 0 1 4 8 11 14 19 24 26 25 22 19 16 12 9 7 5 5 4 3 1 0 0 0 0 1 1 1 2 3 3 3 2 2 2 1 0 0 0 0 0 0 0

GEFSSGP_con_prob3kmehi_162.txt.gz
EHI
0 0 0 0 0 0 0 1 2 4 6 10 18 23 21 14 7 5 4 9 22 31 32 35 38 34 26 20 14 7 4 4 5 8 10 10 9 9 9 7 4 3 2 1 0 0 1 2 3
0 0 0 0 0 0 0 1 3 5 8 16 27 31 27 17 10 7 5 10 23 31 32 37 41 39 32 25 18 10 6 4 4 5 7 6 5 5 4 3 2 1 1 0 0 0 1 2 2
0 0 0 0 0 0 0 2 5 9 15 25 36 39 30 16 9 7 6 12 23 30 33 40 47 47 39 30 22 16 10 5 3 3 3 2 1 1 1 0 0 0 0 0 0 0 0 1 1
0 0 0 0 0 0 1 4 7 13 22 32 40 40 29 15 10 9 9 15 26 31 33 40 49 49 39 28 22 18 13 7 4 3 2 1 0 0 0 0 0 0 0 0 0 0 0 0 0
0 0 0 0 0 0 2 6 10 16 26 35 41 39 27 17 16 17 16 22 31 35 33 37 44 43 33 25 20 18 14 9 4 3 3 2 1 0 0 0 0 0 0 0 0 0 0 0 0
0 0 0 0 0 1 3 7 12 19 28 35 39 37 26 19 20 21 22 27 32 33 32 32 35 34 29 25 23 19 15 10 5 4 3 3 2 1 0 0 0 0 0 0 0 0 0 0 0
0 0 0 0 1 2 3 7 13 23 29 32 34 33 25 20 20 22 24 28 29 30 30 30 28 27 26 26 25 22 18 13 9 6 4 3 2 1 0 0 0 0 0 0 0 1 1 1 1
0 0 0 0 1 2 3 8 16 25 29 28 28 28 24 21 23 25 28 29 28 27 28 27 25 24 23 23 25 23 20 16 12 8 5 4 2 1 2 2 1 1 1 1 1 1 2 2 2
0 0 0 1 2 2 4 9 18 27 30 28 28 29 27 28 32 34 32 28 25 24 23 24 23 22 21 21 23 22 19 16 13 9 7 5 2 1 2 3 3 2 2 2 1 1 1 1 1
0 0 0 2 4 5 6 11 19 25 28 29 32 36 36 39 42 40 32 25 20 18 17 17 18 18 18 19 20 19 15 13 11 9 7 6 3 1 1 2 3 3 3 2 1 0 0 1 1
0 0 0 2 5 7 9 13 19 24 25 27 34 39 41 42 42 37 29 24 20 19 16 14 14 14 14 16 16 14 11 9 8 7 6 5 3 1 0 1 1 1 2 1 0 0 0 0 0
1 1 1 4 6 9 11 14 19 23 23 25 30 35 37 37 35 32 30 26 24 22 20 17 15 14 14 13 12 10 8 7 5 4 3 2 1 1 0 0 0 0 0 0 0 0 0 0 0
1 1 2 5 6 9 12 15 16 18 21 23 25 27 28 29 28 30 32 31 28 27 24 21 18 17 16 13 10 8 6 5 4 2 1 1 0 0 1 1 0 0 0 0 0 0 0 0 0
2 2 3 3 3 6 10 12 12 12 15 18 20 22 24 25 25 28 32 32 30 28 25 21 18 17 16 13 10 8 7 6 4 3 2 1 1 1 1 1 0 0 0 0 0 0 0 0 0
3 4 3 1 0 2 5 6 8 10 13 18 22 25 27 26 25 26 28 29 29 26 24 20 18 16 15 13 12 10 9 8 6 4 3 3 2 2 1 1 0 0 0 0 0 0 0 0 0
2 2 2 1 0 0 1 3 8 13 19 25 29 30 29 28 26 26 26 27 26 25 24 22 20 19 16 13 12 11 8 7 5 3 2 2 2 2 2 1 0 0 0 0 0 0 0 0 0
0 1 1 0 0 0 1 5 12 17 22 27 30 30 29 28 27 27 27 27 27 25 24 23 23 21 17 13 10 7 4 2 1 1 1 1 1 1 1 1 0 0 0 0 0 0 0 0 0
0 0 0 0 0 0 2 8 14 18 21 24 25 27 29 30 28 26 25 24 24 23 21 20 20 18 15 12 7 3 0 0 0 0 0 0 1 1 0 0 0 0 0 0 0 0 0 0 0
0 0 0 0 0 0 3 9 15 17 18 19 22 25 29 31 29 25 21 20 19 18 16 15 14 13 12 9 4 1 0 0 0 0 0 0 1 0 0 0 0 0 0 0 0 0 0 0 0
0 0 0 0 0 1 3 8 13 14 15 17 21 26 29 30 28 23 18 16 16 15 13 11 10 9 8 5 2 0 0 0 0 0 0 0 0 0 0 0 0 0 0 0 0 0 0 0 0
0 0 0 0 0 1 3 5 8 11 13 16 20 25 27 26 25 21 17 14 13 13 12 11 10 7 5 3 1 0 0 0 0 1 1 0 1 1 1 1 0 0 0 0 0 0 0 0 0
0 0 0 0 0 0 1 2 4 9 13 15 19 22 21 20 20 20 16 12 11 11 11 11 10 8 6 4 2 1 0 0 1 2 2 2 2 2 2 2 1 0 0 0 0 0 0 0 0
0 0 0 0 0 0 0 0 2 7 11 14 17 17 16 15 17 18 14 9 9 11 11 11 9 8 7 6 3 1 0 0 1 2 3 2 2 2 2 2 1 0 0 0 0 0 0 0 0
0 0 0 0 0 0 0 0 1 3 8 12 12 12 12 13 15 15 12 8 8 10 11 11 10 8 7 6 4 2 0 0 1 2 2 1 1 1 1 1 0 0 0 0 0 0 0 0 0
0 0 0 0 0 0 0 0 0 1 6 10 10 10 13 15 14 12 10 8 8 9 10 10 10 8 6 4 3 1 1 1 0 1 1 0 0 0 0 0 0 0 0 0 0 0 0 0 0
0 0 0 0 0 0 0 0 0 1 5 10 11 12 15 15 12 10 8 8 7 7 7 8 7 6 4 2 1 1 1 1 0 0 0 0 0 0 0 0 0 0 0 0 0 0 0 0 0
0 0 0 0 0 0 0 0 0 2 6 10 12 13 13 12 10 7 6 6 6 5 5 4 4 3 2 1 1 1 1 1 0 0 0 0 0 0 0 0 0 0 0 0 0 0 0 0 0
0 0 0 0 0 0 0 0 0 2 6 10 11 10 9 8 6 5 4 4 4 4 3 3 2 1 1 1 0 0 0 0 0 0 0 0 0 0 0 0 0 0 0 0 0 0 0 0 0
0 0 0 0 0 0 0 0 0 2 5 8 8 8 7 5 4 4 4 4 3 3 3 3 2 1 0 0 0 0 0 0 0 0 0 0 0 0 0 0 0 0 0 0 0 0 0 0 0
0 0 0 0 0 0 0 0 0 2 5 6 7 7 6 4 3 4 4 4 3 3 3 3 3 2 1 0 0 0 0 0 0 0 0 0 0 0 0 0 0 0 0 0 0 0 0 0 0

GEFSSGP_con_prob3kmehi_168.txt.gz
EHI
0 0 0 0 0 0 0 0 1 2 2 3 5 5 5 3 1 1 1 4 8 13 20 28 34 36 37 38 38 35 31 30 31 31 30 28 26 24 20 16 11 8 6 6 5 3 3 3 3
0 0 0 0 0 0 0 1 2 3 4 6 7 6 6 4 2 1 2 5 11 17 22 29 36 39 37 36 36 34 32 31 31 31 30 27 25 22 18 14 10 7 6 6 4 3 2 3 3
0 0 0 0 0 0 0 1 3 5 8 9 8 6 5 3 2 2 4 7 13 18 21 28 37 40 37 34 31 31 32 31 30 29 27 25 22 19 16 12 8 6 5 5 4 2 1 3 4
0 0 0 0 0 0 0 1 4 7 10 9 6 3 3 2 2 3 6 9 14 16 18 24 34 38 35 30 27 27 27 26 25 23 21 19 16 15 13 9 6 4 3 3 3 2 2 3 5
0 0 0 0 0 1 1 3 5 8 9 7 4 4 5 4 4 7 10 12 14 16 16 22 31 35 33 29 26 23 21 20 18 15 13 11 11 11 11 8 5 3 3 3 2 3 4 5 6
0 0 0 0 1 2 2 3 5 7 7 6 7 10 10 8 8 11 13 13 14 15 16 20 27 31 30 28 26 21 18 16 13 11 9 10 11 12 11 9 7 4 3 3 2 3 5 6 7
0 0 0 0 1 1 1 2 6 9 9 10 13 15 13 12 12 14 15 14 14 14 15 16 20 22 24 24 21 17 15 14 12 10 9 10 12 13 12 9 6 4 3 2 1 2 4 5 6
0 0 0 0 0 0 0 2 8 12 11 12 13 13 14 17 20 20 19 18 15 13 12 12 13 14 15 15 14 11 11 12 12 11 10 9 9 10 10 7 4 3 2 1 0 1 3 3 2
0 0 0 0 0 0 0 3 7 9 9 10 11 14 21 29 30 26 23 20 18 14 11 10 10 10 10 11 11 9 7 9 10 10 9 8 7 7 8 7 4 2 1 0 1 2 3 2 1
0 0 0 0 0 0 2 4 5 5 5 7 12 24 36 39 33 26 21 20 18 15 11 9 9 9 9 10 11 10 8 8 8 8 7 6 5 5 6 6 4 2 1 1 2 1 2 2 1
0 0 0 0 1 2 4 6 6 4 3 5 16 33 44 40 31 23 18 17 16 13 10 8 8 9 9 10 10 10 10 10 9 7 5 4 4 4 4 4 3 3 3 3 3 2 2 2 1
0 0 1 1 2 4 6 8 7 6 5 7 18 35 41 36 28 21 16 13 11 11 10 9 8 8 8 9 9 9 9 9 8 6 4 3 3 3 3 3 3 4 5 5 5 4 3 1 1
0 1 2 3 3 5 8 10 9 8 9 14 23 34 36 32 26 19 14 11 10 11 11 10 8 7 7 7 7 7 7 6 5 4 3 2 2 2 2 2 2 3 3 3 4 4 3 1 1
0 1 2 3 3 5 8 10 9 8 13 20 27 33 33 30 25 18 14 11 11 11 10 8 7 6 6 6 6 6 5 4 2 2 2 1 1 1 1 1 1 1 1 1 2 3 3 3 2
0 1 2 2 2 3 6 8 8 9 15 21 25 28 28 26 22 17 13 11 9 9 7 6 5 6 7 7 6 4 3 2 1 0 0 0 0 0 0 0 0 0 0 0 1 1 2 2 2
0 0 1 1 0 1 2 4 7 12 16 18 21 23 23 21 17 14 11 8 6 5 5 5 6 7 8 7 5 3 1 1 0 0 0 0 0 0 0 0 0 0 0 0 0 0 1 1 1
0 0 0 0 0 0 1 3 6 12 17 18 19 21 20 18 15 12 10 9 7 6 4 4 6 7 7 6 4 2 1 0 0 0 0 0 0 0 0 0 0 0 0 0 0 0 0 0 0
0 0 0 0 0 0 1 2 6 12 17 18 19 19 18 16 13 11 11 11 10 7 5 4 5 6 6 6 4 1 0 0 0 0 0 0 0 0 0 0 0 0 0 0 0 0 0 0 0
0 0 0 0 0 0 1 2 5 9 14 16 17 18 17 15 12 10 11 11 10 7 5 5 5 4 4 4 2 0 0 0 0 0 0 0 0 0 0 0 0 0 0 0 0 0 0 0 0
0 0 0 0 0 0 1 2 3 6 10 14 16 17 18 17 15 13 11 10 8 6 4 4 3 2 2 2 1 0 0 0 0 0 0 0 0 0 0 0 0 0 0 0 0 0 0 0 0
0 0 0 0 0 0 1 2 2 3 6 11 14 15 16 18 18 16 13 10 7 5 4 2 1 1 2 2 1 0 0 0 0 0 0 0 0 0 0 0 0 0 0 0 0 0 0 0 0
0 0 0 0 0 0 1 1 1 1 2 6 9 11 14 16 18 18 15 11 7 4 2 1 0 1 2 2 1 0 0 0 0 0 0 0 0 0 0 0 0 0 0 0 0 0 0 0 0
0 0 0 0 0 0 0 0 0 0 1 2 5 9 12 14 16 17 16 12 8 4 1 0 1 2 3 2 0 0 0 0 0 0 0 0 0 0 0 0 0 0 0 0 0 0 0 0 0
0 0 0 0 0 0 0 0 0 0 0 1 3 8 11 12 14 15 14 11 7 3 1 0 2 3 3 2 1 0 0 0 0 0 0 0 0 0 0 0 0 0 0 0 0 0 0 0 0
0 0 0 0 0 0 0 0 0 0 0 1 2 5 9 11 12 12 12 11 7 3 0 0 1 2 3 3 2 1 0 0 0 0 0 0 0 0 0 0 0 0 0 0 0 0 0 0 0
0 0 0 0 0 0 0 0 0 0 0 0 0 2 5 7 8 9 10 9 6 2 0 0 1 1 2 2 2 1 0 0 0 0 0 0 0 0 0 0 0 0 0 0 0 0 0 0 0
0 0 0 0 0 0 0 0 0 0 0 1 1 1 3 5 6 7 7 6 4 2 1 1 1 1 1 1 1 0 0 0 0 0 0 0 0 0 0 0 0 0 0 0 0 0 0 0 0
0 0 0 0 0 0 0 0 0 0 0 1 1 1 3 4 5 5 4 3 1 1 1 1 1 1 0 0 0 0 0 0 0 0 0 0 0 0 0 0 0 0 0 0 0 0 0 0 0
0 0 0 0 0 0 0 0 0 0 0 1 1 1 2 3 3 3 2 0 0 1 1 1 2 2 1 0 0 0 0 0 0 0 0 0 0 0 0 0 0 0 0 0 0 0 0 0 0
0 0 0 0 0 0 0 0 0 0 0 0 0 0 1 2 2 1 0 0 1 2 2 2 3 2 2 1 0 0 0 0 0 0 0 0 0 0 0 0 0 0 0 0 0 0 0 0 0

GEFSSGP_con_prob3kmehi_174.txt.gz
EHI
0 0 0 0 0 0 0 0 0 0 0 0 0 0 0 0 1 2 3 5 9 13 12 11 11 13 18 26 36 43 46 46 41 35 29 21 14 9 6 4 3 3 1 1 2 3 4 5 5
0 0 0 0 0 0 0 1 1 1 0 0 0 0 0 0 0 2 3 6 11 15 15 12 13 16 19 26 34 39 41 40 37 32 26 20 14 8 5 3 3 3 2 1 2 3 3 3 3
0 0 0 0 0 0 1 2 2 2 1 0 0 0 1 1 1 1 3 7 12 16 16 15 14 16 20 24 29 32 32 32 31 27 22 17 12 7 4 3 3 4 3 1 1 2 2 1 1
0 0 0 0 0 0 1 2 2 2 1 0 0 1 3 4 3 3 6 10 13 14 15 15 15 15 17 20 24 26 26 28 28 24 19 15 9 5 4 4 4 5 5 3 2 2 2 1 0
0 0 0 0 0 0 0 1 1 1 1 1 1 3 6 11 11 9 11 13 12 11 12 14 14 14 13 16 20 23 24 26 27 24 20 16 10 6 6 7 7 7 7 6 4 3 2 1 1
0 0 0 0 0 0 1 1 1 1 2 2 2 3 10 21 23 17 14 13 10 8 9 11 12 11 11 14 19 23 25 26 26 25 21 18 13 9 9 9 8 6 6 7 5 4 3 1 0
0 0 0 0 0 1 2 2 1 1 2 2 2 3 14 30 33 23 17 13 10 9 9 9 9 9 10 12 17 22 25 25 24 22 19 16 13 9 8 8 7 6 5 6 6 4 2 1 0
0 0 0 0 0 1 2 3 2 1 3 4 3 4 18 38 40 30 25 17 12 11 10 10 9 8 8 9 11 15 19 20 20 18 14 12 10 7 5 6 6 6 6 6 6 5 3 2 1
0 0 0 0 0 0 2 4 3 3 4 6 7 10 26 43 43 36 31 24 16 13 11 10 9 8 6 5 6 8 11 12 13 11 10 9 8 6 5 6 7 6 6 6 6 6 5 4 2
0 0 0 0 0 1 2 4 3 3 4 8 12 19 32 42 41 36 31 25 20 16 13 10 8 7 6 6 7 7 8 9 7 7 8 9 9 7 6 7 7 5 5 6 7 7 5 3 2
0 1 1 1 1 2 3 4 4 4 5 10 16 24 34 39 36 32 26 23 20 19 16 11 8 7 8 10 10 9 10 10 7 6 8 10 11 10 10 10 8 6 5 5 7 7 4 2 1
1 1 2 2 2 3 5 6 8 10 10 13 18 25 32 34 31 26 22 19 18 18 16 12 10 10 11 13 13 12 12 11 9 8 9 12 15 16 17 16 13 9 7 6 7 6 4 2 2
0 1 3 4 4 4 6 9 12 15 15 16 19 24 28 29 26 23 21 19 17 18 16 13 12 13 15 16 16 14 12 11 12 12 12 14 18 20 21 19 16 11 8 8 8 6 4 4 4
0 1 4 6 5 5 7 10 12 13 15 18 20 23 24 24 24 25 25 23 21 20 18 14 12 13 15 16 16 14 12 13 14 14 14 15 19 21 20 18 15 10 7 7 7 6 6 5 5
1 2 4 5 4 3 5 8 9 11 14 20 23 24 25 24 25 27 27 26 25 23 19 14 11 11 13 15 15 15 15 16 15 13 12 12 15 16 16 14 12 7 3 3 4 5 6 5 4
0 1 2 2 1 1 2 4 6 9 12 19 23 24 24 23 21 21 22 24 25 22 19 15 12 12 14 16 16 16 18 18 14 11 10 10 10 10 10 11 10 7 4 3 3 4 5 5 4
0 0 0 0 0 0 0 2 5 7 9 14 18 19 20 20 17 15 18 21 22 21 19 19 18 19 20 20 18 17 18 17 13 9 8 7 6 5 5 6 7 7 5 4 3 4 5 5 4
0 0 0 0 0 0 0 2 5 5 7 10 13 16 18 17 17 17 20 23 23 23 24 25 26 26 24 21 19 17 16 13 9 6 5 3 2 1 1 2 3 5 5 4 3 4 5 5 4
0 0 0 0 0 0 1 3 4 5 6 8 10 15 17 16 16 21 25 27 26 26 29 30 29 27 24 20 17 16 13 9 5 3 2 1 0 0 0 0 2 3 5 4 3 4 5 4 3
0 0 0 0 0 0 1 3 3 4 6 6 7 12 16 15 16 21 27 29 28 28 32 33 30 25 21 17 15 13 11 8 4 2 1 0 0 0 0 0 1 3 4 3 4 4 4 4 4
0 0 0 0 0 0 1 2 3 3 3 3 4 9 14 15 16 19 23 27 28 30 31 31 30 25 20 16 13 11 8 6 3 2 1 1 0 0 0 0 2 3 3 3 4 5 5 5 6
0 0 0 0 0 0 1 1 2 3 3 3 5 10 13 14 14 16 20 25 29 31 31 29 27 23 17 14 13 10 6 3 2 3 3 1 0 0 0 1 3 3 3 3 4 6 6 6 6
0 0 0 0 0 0 0 0 1 2 4 5 8 12 13 11 11 15 19 24 27 28 29 28 24 18 13 12 13 12 6 2 2 2 3 1 0 1 1 2 4 4 3 3 5 6 5 4 5
0 0 0 0 0 0 0 0 0 1 3 6 10 14 13 9 10 15 19 22 24 24 24 24 19 14 10 9 10 10 7 4 1 1 1 1 1 2 3 4 5 4 3 4 5 5 3 1 2
0 0 0 0 0 0 0 0 0 1 3 5 10 13 11 9 10 15 18 20 21 20 18 17 15 11 8 6 6 6 6 5 2 0 0 1 2 3 4 4 4 3 3 4 3 2 1 0 0
0 0 0 0 0 0 0 0 1 1 2 6 9 10 9 9 10 13 17 19 19 18 14 12 11 9 7 5 3 3 4 4 1 0 0 1 2 3 4 4 4 3 2 2 1 1 0 0 0
0 0 0 0 0 0 0 0 1 1 2 5 7 7 7 9 10 12 16 19 19 16 11 8 7 6 5 3 2 1 2 3 1 0 0 1 2 3 3 3 3 2 1 0 0 0 0 0 0
0 0 0 0 0 0 0 0 0 0 2 4 5 4 6 9 12 13 17 19 18 14 8 5 4 4 3 2 1 1 1 2 1 0 0 0 1 1 2 1 1 1 0 0 0 0 0 0 0
0 0 0 0 0 0 0 0 0 1 3 6 6 4 5 9 12 13 15 18 17 12 6 4 3 3 2 1 0 0 1 1 1 0 0 0 0 0 0 0 0 0 0 0 0 0 0 0 0
0 0 0 0 0 0 0 0 0 1 4 7 8 5 4 7 10 11 13 16 15 10 5 4 3 3 1 0 0 0 0 0 0 0 0 0 0 0 0 0 0 0 0 0 0 0 0 0 0